<?xml version="1.0" encoding="UTF-8" standalone="no" ?>
<gpx xmlns="http://www.topografix.com/GPX/1/1" xmlns:xsi="http://www.w3.org/2001/XMLSchema-instance" xsi:schemaLocation="http://www.topografix.com/GPX/1/1 http://www.topografix.com/GPX/1/1/gpx.xsd" version="1.1" creator="VisuGPX - https://www.visugpx.com">
  <metadata>
    <name>Saint nazaire les eymes-montalieu-Saint nazaire les eymes </name>
    <desc><![CDATA[File with points/tracks from Locus Map/4.4.3]]></desc>
  </metadata>
  <trk>
    <name><![CDATA[2021-11-20 12:07]]></name>
    <extensions>
      <line xmlns="http://www.topografix.com/GPX/gpx_style/0/2">
        <color>0000FF</color>
        <opacity>0.59</opacity>
        <width>6.0</width>
      </line>
    </extensions>
    <trkseg>
      <trkpt lat="45.25286" lon="5.85038">
        <ele>312.31</ele>
        <time>2021-11-20T11:07:33.000Z</time>
      </trkpt>
      <trkpt lat="45.25271" lon="5.85055">
        <ele>309.15</ele>
        <time>2021-11-20T11:07:38.000Z</time>
      </trkpt>
      <trkpt lat="45.25256" lon="5.85071">
        <ele>303.51</ele>
        <time>2021-11-20T11:07:43.000Z</time>
      </trkpt>
      <trkpt lat="45.25231" lon="5.85097">
        <ele>303.15</ele>
        <time>2021-11-20T11:07:48.000Z</time>
      </trkpt>
      <trkpt lat="45.25203" lon="5.85129">
        <ele>303.09</ele>
        <time>2021-11-20T11:07:53.000Z</time>
      </trkpt>
      <trkpt lat="45.25171" lon="5.85147">
        <ele>301.14</ele>
        <time>2021-11-20T11:07:58.000Z</time>
      </trkpt>
      <trkpt lat="45.25131" lon="5.85154">
        <ele>299.62</ele>
        <time>2021-11-20T11:08:03.000Z</time>
      </trkpt>
      <trkpt lat="45.25102" lon="5.85158">
        <ele>297.69</ele>
        <time>2021-11-20T11:08:08.000Z</time>
      </trkpt>
      <trkpt lat="45.25098" lon="5.85187">
        <ele>296.54</ele>
        <time>2021-11-20T11:08:13.000Z</time>
      </trkpt>
      <trkpt lat="45.25088" lon="5.85219">
        <ele>296.65</ele>
        <time>2021-11-20T11:08:18.000Z</time>
      </trkpt>
      <trkpt lat="45.25078" lon="5.85247">
        <ele>294.91</ele>
        <time>2021-11-20T11:08:23.000Z</time>
      </trkpt>
      <trkpt lat="45.25072" lon="5.85289">
        <ele>295.81</ele>
        <time>2021-11-20T11:08:28.000Z</time>
      </trkpt>
      <trkpt lat="45.25071" lon="5.85334">
        <ele>296.68</ele>
        <time>2021-11-20T11:08:33.000Z</time>
      </trkpt>
      <trkpt lat="45.25074" lon="5.85375">
        <ele>297.88</ele>
        <time>2021-11-20T11:08:38.000Z</time>
      </trkpt>
      <trkpt lat="45.25072" lon="5.85414">
        <ele>295.93</ele>
        <time>2021-11-20T11:08:43.000Z</time>
      </trkpt>
      <trkpt lat="45.25054" lon="5.8544">
        <ele>296.52</ele>
        <time>2021-11-20T11:08:48.000Z</time>
      </trkpt>
      <trkpt lat="45.25037" lon="5.85464">
        <ele>297.86</ele>
        <time>2021-11-20T11:08:53.000Z</time>
      </trkpt>
      <trkpt lat="45.25024" lon="5.85486">
        <ele>299.67</ele>
        <time>2021-11-20T11:08:58.000Z</time>
      </trkpt>
      <trkpt lat="45.25015" lon="5.85514">
        <ele>299.11</ele>
        <time>2021-11-20T11:09:03.000Z</time>
      </trkpt>
      <trkpt lat="45.25012" lon="5.85544">
        <ele>303.25</ele>
        <time>2021-11-20T11:09:08.000Z</time>
      </trkpt>
      <trkpt lat="45.25012" lon="5.85576">
        <ele>304.02</ele>
        <time>2021-11-20T11:09:13.000Z</time>
      </trkpt>
      <trkpt lat="45.25019" lon="5.85608">
        <ele>303.6</ele>
        <time>2021-11-20T11:09:18.000Z</time>
      </trkpt>
      <trkpt lat="45.2503" lon="5.85629">
        <ele>303.01</ele>
        <time>2021-11-20T11:09:23.000Z</time>
      </trkpt>
      <trkpt lat="45.25036" lon="5.8564">
        <ele>296.43</ele>
        <time>2021-11-20T11:10:08.000Z</time>
      </trkpt>
      <trkpt lat="45.25049" lon="5.85658">
        <ele>298.7</ele>
        <time>2021-11-20T11:10:13.000Z</time>
      </trkpt>
      <trkpt lat="45.25079" lon="5.8568">
        <ele>300.47</ele>
        <time>2021-11-20T11:10:18.000Z</time>
      </trkpt>
      <trkpt lat="45.251" lon="5.85703">
        <ele>305</ele>
        <time>2021-11-20T11:10:23.000Z</time>
      </trkpt>
      <trkpt lat="45.2512" lon="5.8573">
        <ele>310.01</ele>
        <time>2021-11-20T11:10:28.000Z</time>
      </trkpt>
      <trkpt lat="45.25136" lon="5.85763">
        <ele>308.85</ele>
        <time>2021-11-20T11:10:33.000Z</time>
      </trkpt>
      <trkpt lat="45.25157" lon="5.85799">
        <ele>307.84</ele>
        <time>2021-11-20T11:10:38.000Z</time>
      </trkpt>
      <trkpt lat="45.25168" lon="5.85836">
        <ele>299</ele>
        <time>2021-11-20T11:10:43.000Z</time>
      </trkpt>
      <trkpt lat="45.25181" lon="5.85875">
        <ele>298.92</ele>
        <time>2021-11-20T11:10:48.000Z</time>
      </trkpt>
      <trkpt lat="45.25198" lon="5.85912">
        <ele>296.07</ele>
        <time>2021-11-20T11:10:53.000Z</time>
      </trkpt>
      <trkpt lat="45.25216" lon="5.85947">
        <ele>292.85</ele>
        <time>2021-11-20T11:10:58.000Z</time>
      </trkpt>
      <trkpt lat="45.25231" lon="5.85976">
        <ele>296.3</ele>
        <time>2021-11-20T11:11:03.000Z</time>
      </trkpt>
      <trkpt lat="45.2525" lon="5.86004">
        <ele>290.35</ele>
        <time>2021-11-20T11:11:08.000Z</time>
      </trkpt>
      <trkpt lat="45.25265" lon="5.86035">
        <ele>288.37</ele>
        <time>2021-11-20T11:11:13.000Z</time>
      </trkpt>
      <trkpt lat="45.25281" lon="5.86061">
        <ele>287.32</ele>
        <time>2021-11-20T11:11:18.000Z</time>
      </trkpt>
      <trkpt lat="45.25298" lon="5.86097">
        <ele>285.45</ele>
        <time>2021-11-20T11:11:23.000Z</time>
      </trkpt>
      <trkpt lat="45.25308" lon="5.86132">
        <ele>285.26</ele>
        <time>2021-11-20T11:11:28.000Z</time>
      </trkpt>
      <trkpt lat="45.25318" lon="5.86164">
        <ele>283.44</ele>
        <time>2021-11-20T11:11:33.000Z</time>
      </trkpt>
      <trkpt lat="45.25327" lon="5.86193">
        <ele>285.57</ele>
        <time>2021-11-20T11:11:38.000Z</time>
      </trkpt>
      <trkpt lat="45.25335" lon="5.86231">
        <ele>282.13</ele>
        <time>2021-11-20T11:11:43.000Z</time>
      </trkpt>
      <trkpt lat="45.25341" lon="5.86271">
        <ele>284.06</ele>
        <time>2021-11-20T11:11:48.000Z</time>
      </trkpt>
      <trkpt lat="45.25353" lon="5.86295">
        <ele>285.47</ele>
        <time>2021-11-20T11:11:53.000Z</time>
      </trkpt>
      <trkpt lat="45.25373" lon="5.86322">
        <ele>286.33</ele>
        <time>2021-11-20T11:11:58.000Z</time>
      </trkpt>
      <trkpt lat="45.25394" lon="5.86339">
        <ele>286.89</ele>
        <time>2021-11-20T11:12:03.000Z</time>
      </trkpt>
      <trkpt lat="45.25412" lon="5.86358">
        <ele>287.89</ele>
        <time>2021-11-20T11:12:08.000Z</time>
      </trkpt>
      <trkpt lat="45.25434" lon="5.86369">
        <ele>289.4</ele>
        <time>2021-11-20T11:12:13.000Z</time>
      </trkpt>
      <trkpt lat="45.25456" lon="5.8638">
        <ele>289.19</ele>
        <time>2021-11-20T11:12:18.000Z</time>
      </trkpt>
      <trkpt lat="45.2548" lon="5.86384">
        <ele>288.76</ele>
        <time>2021-11-20T11:12:23.000Z</time>
      </trkpt>
      <trkpt lat="45.25507" lon="5.86392">
        <ele>288.36</ele>
        <time>2021-11-20T11:12:28.000Z</time>
      </trkpt>
      <trkpt lat="45.25523" lon="5.86394">
        <ele>288.7</ele>
        <time>2021-11-20T11:12:33.000Z</time>
      </trkpt>
      <trkpt lat="45.25543" lon="5.86393">
        <ele>288.32</ele>
        <time>2021-11-20T11:12:38.000Z</time>
      </trkpt>
      <trkpt lat="45.25565" lon="5.86388">
        <ele>289.93</ele>
        <time>2021-11-20T11:12:43.000Z</time>
      </trkpt>
      <trkpt lat="45.25595" lon="5.86385">
        <ele>290.5</ele>
        <time>2021-11-20T11:12:48.000Z</time>
      </trkpt>
      <trkpt lat="45.25621" lon="5.86395">
        <ele>291.14</ele>
        <time>2021-11-20T11:12:53.000Z</time>
      </trkpt>
      <trkpt lat="45.25652" lon="5.86412">
        <ele>291.44</ele>
        <time>2021-11-20T11:12:58.000Z</time>
      </trkpt>
      <trkpt lat="45.25684" lon="5.86431">
        <ele>294.9</ele>
        <time>2021-11-20T11:13:03.000Z</time>
      </trkpt>
      <trkpt lat="45.25721" lon="5.86455">
        <ele>298.19</ele>
        <time>2021-11-20T11:13:08.000Z</time>
      </trkpt>
      <trkpt lat="45.25749" lon="5.86485">
        <ele>298.51</ele>
        <time>2021-11-20T11:13:13.000Z</time>
      </trkpt>
      <trkpt lat="45.25776" lon="5.8651">
        <ele>295.89</ele>
        <time>2021-11-20T11:13:18.000Z</time>
      </trkpt>
      <trkpt lat="45.25809" lon="5.8652">
        <ele>297.58</ele>
        <time>2021-11-20T11:13:23.000Z</time>
      </trkpt>
      <trkpt lat="45.25847" lon="5.86533">
        <ele>301.05</ele>
        <time>2021-11-20T11:13:28.000Z</time>
      </trkpt>
      <trkpt lat="45.25878" lon="5.86542">
        <ele>302.97</ele>
        <time>2021-11-20T11:13:33.000Z</time>
      </trkpt>
      <trkpt lat="45.25916" lon="5.86541">
        <ele>300.24</ele>
        <time>2021-11-20T11:13:38.000Z</time>
      </trkpt>
      <trkpt lat="45.25948" lon="5.86541">
        <ele>298.42</ele>
        <time>2021-11-20T11:13:43.000Z</time>
      </trkpt>
      <trkpt lat="45.25983" lon="5.86535">
        <ele>297.06</ele>
        <time>2021-11-20T11:13:48.000Z</time>
      </trkpt>
      <trkpt lat="45.26014" lon="5.86528">
        <ele>296.41</ele>
        <time>2021-11-20T11:13:53.000Z</time>
      </trkpt>
      <trkpt lat="45.2605" lon="5.86518">
        <ele>295.14</ele>
        <time>2021-11-20T11:13:58.000Z</time>
      </trkpt>
      <trkpt lat="45.26079" lon="5.86512">
        <ele>293.81</ele>
        <time>2021-11-20T11:14:03.000Z</time>
      </trkpt>
      <trkpt lat="45.26113" lon="5.86502">
        <ele>289.63</ele>
        <time>2021-11-20T11:14:08.000Z</time>
      </trkpt>
      <trkpt lat="45.26142" lon="5.86501">
        <ele>290.79</ele>
        <time>2021-11-20T11:14:13.000Z</time>
      </trkpt>
      <trkpt lat="45.26168" lon="5.8651">
        <ele>289.82</ele>
        <time>2021-11-20T11:14:18.000Z</time>
      </trkpt>
      <trkpt lat="45.26197" lon="5.86519">
        <ele>289.76</ele>
        <time>2021-11-20T11:14:23.000Z</time>
      </trkpt>
      <trkpt lat="45.26221" lon="5.86533">
        <ele>285.95</ele>
        <time>2021-11-20T11:14:28.000Z</time>
      </trkpt>
      <trkpt lat="45.26249" lon="5.86544">
        <ele>288.24</ele>
        <time>2021-11-20T11:14:33.000Z</time>
      </trkpt>
      <trkpt lat="45.26272" lon="5.86554">
        <ele>293.44</ele>
        <time>2021-11-20T11:14:38.000Z</time>
      </trkpt>
      <trkpt lat="45.26277" lon="5.86565">
        <ele>288.67</ele>
        <time>2021-11-20T11:14:44.000Z</time>
      </trkpt>
      <trkpt lat="45.26267" lon="5.86589">
        <ele>285.78</ele>
        <time>2021-11-20T11:14:49.000Z</time>
      </trkpt>
      <trkpt lat="45.26261" lon="5.86611">
        <ele>284.16</ele>
        <time>2021-11-20T11:14:54.000Z</time>
      </trkpt>
      <trkpt lat="45.26275" lon="5.86622">
        <ele>281.45</ele>
        <time>2021-11-20T11:14:59.000Z</time>
      </trkpt>
      <trkpt lat="45.26297" lon="5.86622">
        <ele>281.6</ele>
        <time>2021-11-20T11:15:04.000Z</time>
      </trkpt>
      <trkpt lat="45.26316" lon="5.86637">
        <ele>281.37</ele>
        <time>2021-11-20T11:15:09.000Z</time>
      </trkpt>
      <trkpt lat="45.26338" lon="5.86652">
        <ele>283.03</ele>
        <time>2021-11-20T11:15:14.000Z</time>
      </trkpt>
      <trkpt lat="45.26356" lon="5.86673">
        <ele>278.9</ele>
        <time>2021-11-20T11:15:19.000Z</time>
      </trkpt>
      <trkpt lat="45.2638" lon="5.86693">
        <ele>278.59</ele>
        <time>2021-11-20T11:15:24.000Z</time>
      </trkpt>
      <trkpt lat="45.264" lon="5.8671">
        <ele>276.45</ele>
        <time>2021-11-20T11:15:29.000Z</time>
      </trkpt>
      <trkpt lat="45.26422" lon="5.86727">
        <ele>278.06</ele>
        <time>2021-11-20T11:15:34.000Z</time>
      </trkpt>
      <trkpt lat="45.26446" lon="5.86746">
        <ele>277.87</ele>
        <time>2021-11-20T11:15:39.000Z</time>
      </trkpt>
      <trkpt lat="45.26472" lon="5.86768">
        <ele>279.44</ele>
        <time>2021-11-20T11:15:44.000Z</time>
      </trkpt>
      <trkpt lat="45.26502" lon="5.86787">
        <ele>280.12</ele>
        <time>2021-11-20T11:15:49.000Z</time>
      </trkpt>
      <trkpt lat="45.26527" lon="5.86816">
        <ele>280.48</ele>
        <time>2021-11-20T11:15:54.000Z</time>
      </trkpt>
      <trkpt lat="45.26553" lon="5.86826">
        <ele>281.39</ele>
        <time>2021-11-20T11:15:59.000Z</time>
      </trkpt>
      <trkpt lat="45.26575" lon="5.86833">
        <ele>286.14</ele>
        <time>2021-11-20T11:16:04.000Z</time>
      </trkpt>
      <trkpt lat="45.26581" lon="5.86842">
        <ele>284.77</ele>
        <time>2021-11-20T11:16:09.000Z</time>
      </trkpt>
      <trkpt lat="45.26573" lon="5.86862">
        <ele>284.36</ele>
        <time>2021-11-20T11:16:14.000Z</time>
      </trkpt>
      <trkpt lat="45.26559" lon="5.86901">
        <ele>282.37</ele>
        <time>2021-11-20T11:16:19.000Z</time>
      </trkpt>
      <trkpt lat="45.2654" lon="5.86936">
        <ele>277.58</ele>
        <time>2021-11-20T11:16:24.000Z</time>
      </trkpt>
      <trkpt lat="45.2653" lon="5.8696">
        <ele>273.64</ele>
        <time>2021-11-20T11:16:29.000Z</time>
      </trkpt>
      <trkpt lat="45.26522" lon="5.86988">
        <ele>270.97</ele>
        <time>2021-11-20T11:16:34.000Z</time>
      </trkpt>
      <trkpt lat="45.26514" lon="5.87028">
        <ele>269.81</ele>
        <time>2021-11-20T11:16:39.000Z</time>
      </trkpt>
      <trkpt lat="45.26496" lon="5.87071">
        <ele>265.3</ele>
        <time>2021-11-20T11:16:44.000Z</time>
      </trkpt>
      <trkpt lat="45.2647" lon="5.8712">
        <ele>262.08</ele>
        <time>2021-11-20T11:16:49.000Z</time>
      </trkpt>
      <trkpt lat="45.26443" lon="5.87166">
        <ele>262.52</ele>
        <time>2021-11-20T11:16:54.000Z</time>
      </trkpt>
      <trkpt lat="45.26419" lon="5.8721">
        <ele>257.38</ele>
        <time>2021-11-20T11:16:59.000Z</time>
      </trkpt>
      <trkpt lat="45.26393" lon="5.87261">
        <ele>254.04</ele>
        <time>2021-11-20T11:17:04.000Z</time>
      </trkpt>
      <trkpt lat="45.26366" lon="5.87315">
        <ele>250.85</ele>
        <time>2021-11-20T11:17:09.000Z</time>
      </trkpt>
      <trkpt lat="45.26338" lon="5.87372">
        <ele>248.15</ele>
        <time>2021-11-20T11:17:14.000Z</time>
      </trkpt>
      <trkpt lat="45.26303" lon="5.87418">
        <ele>244.93</ele>
        <time>2021-11-20T11:17:19.000Z</time>
      </trkpt>
      <trkpt lat="45.263" lon="5.87454">
        <ele>243.92</ele>
        <time>2021-11-20T11:17:24.000Z</time>
      </trkpt>
      <trkpt lat="45.26307" lon="5.87501">
        <ele>244.82</ele>
        <time>2021-11-20T11:17:29.000Z</time>
      </trkpt>
      <trkpt lat="45.26323" lon="5.87555">
        <ele>243.04</ele>
        <time>2021-11-20T11:17:34.000Z</time>
      </trkpt>
      <trkpt lat="45.26332" lon="5.87601">
        <ele>238.11</ele>
        <time>2021-11-20T11:17:39.000Z</time>
      </trkpt>
      <trkpt lat="45.26345" lon="5.87646">
        <ele>236.31</ele>
        <time>2021-11-20T11:17:44.000Z</time>
      </trkpt>
      <trkpt lat="45.26362" lon="5.87687">
        <ele>234.9</ele>
        <time>2021-11-20T11:17:49.000Z</time>
      </trkpt>
      <trkpt lat="45.26381" lon="5.87721">
        <ele>236.26</ele>
        <time>2021-11-20T11:17:54.000Z</time>
      </trkpt>
      <trkpt lat="45.26393" lon="5.87757">
        <ele>232.29</ele>
        <time>2021-11-20T11:17:59.000Z</time>
      </trkpt>
      <trkpt lat="45.26408" lon="5.87792">
        <ele>226.35</ele>
        <time>2021-11-20T11:18:04.000Z</time>
      </trkpt>
      <trkpt lat="45.26415" lon="5.87821">
        <ele>225.93</ele>
        <time>2021-11-20T11:18:09.000Z</time>
      </trkpt>
      <trkpt lat="45.26412" lon="5.87853">
        <ele>229.29</ele>
        <time>2021-11-20T11:18:14.000Z</time>
      </trkpt>
      <trkpt lat="45.26425" lon="5.87882">
        <ele>230.55</ele>
        <time>2021-11-20T11:18:19.000Z</time>
      </trkpt>
      <trkpt lat="45.26434" lon="5.87916">
        <ele>232.53</ele>
        <time>2021-11-20T11:18:24.000Z</time>
      </trkpt>
      <trkpt lat="45.26439" lon="5.87953">
        <ele>236.65</ele>
        <time>2021-11-20T11:18:29.000Z</time>
      </trkpt>
      <trkpt lat="45.2644" lon="5.87994">
        <ele>235.82</ele>
        <time>2021-11-20T11:18:34.000Z</time>
      </trkpt>
      <trkpt lat="45.26444" lon="5.88028">
        <ele>237.52</ele>
        <time>2021-11-20T11:18:39.000Z</time>
      </trkpt>
      <trkpt lat="45.26455" lon="5.88057">
        <ele>238.9</ele>
        <time>2021-11-20T11:18:44.000Z</time>
      </trkpt>
      <trkpt lat="45.26469" lon="5.88092">
        <ele>241.06</ele>
        <time>2021-11-20T11:18:49.000Z</time>
      </trkpt>
      <trkpt lat="45.26488" lon="5.8813">
        <ele>242.66</ele>
        <time>2021-11-20T11:18:54.000Z</time>
      </trkpt>
      <trkpt lat="45.26516" lon="5.88169">
        <ele>242.93</ele>
        <time>2021-11-20T11:18:59.000Z</time>
      </trkpt>
      <trkpt lat="45.26544" lon="5.88196">
        <ele>244.37</ele>
        <time>2021-11-20T11:19:04.000Z</time>
      </trkpt>
      <trkpt lat="45.2657" lon="5.88228">
        <ele>243.81</ele>
        <time>2021-11-20T11:19:09.000Z</time>
      </trkpt>
      <trkpt lat="45.26589" lon="5.88259">
        <ele>244.61</ele>
        <time>2021-11-20T11:19:14.000Z</time>
      </trkpt>
      <trkpt lat="45.26607" lon="5.8829">
        <ele>243.37</ele>
        <time>2021-11-20T11:19:19.000Z</time>
      </trkpt>
      <trkpt lat="45.26618" lon="5.88329">
        <ele>240.91</ele>
        <time>2021-11-20T11:19:24.000Z</time>
      </trkpt>
      <trkpt lat="45.26629" lon="5.88363">
        <ele>238.77</ele>
        <time>2021-11-20T11:19:29.000Z</time>
      </trkpt>
      <trkpt lat="45.26645" lon="5.88389">
        <ele>238.9</ele>
        <time>2021-11-20T11:19:34.000Z</time>
      </trkpt>
      <trkpt lat="45.26666" lon="5.88415">
        <ele>240.1</ele>
        <time>2021-11-20T11:19:39.000Z</time>
      </trkpt>
      <trkpt lat="45.26685" lon="5.88441">
        <ele>241.41</ele>
        <time>2021-11-20T11:19:44.000Z</time>
      </trkpt>
      <trkpt lat="45.26686" lon="5.88483">
        <ele>240.37</ele>
        <time>2021-11-20T11:19:49.000Z</time>
      </trkpt>
      <trkpt lat="45.26686" lon="5.8852">
        <ele>240.92</ele>
        <time>2021-11-20T11:19:54.000Z</time>
      </trkpt>
      <trkpt lat="45.26698" lon="5.88557">
        <ele>242.38</ele>
        <time>2021-11-20T11:19:59.000Z</time>
      </trkpt>
      <trkpt lat="45.26718" lon="5.88589">
        <ele>239.23</ele>
        <time>2021-11-20T11:20:04.000Z</time>
      </trkpt>
      <trkpt lat="45.26739" lon="5.88617">
        <ele>240.06</ele>
        <time>2021-11-20T11:20:09.000Z</time>
      </trkpt>
      <trkpt lat="45.26747" lon="5.88654">
        <ele>238.18</ele>
        <time>2021-11-20T11:20:14.000Z</time>
      </trkpt>
      <trkpt lat="45.26755" lon="5.88692">
        <ele>239.66</ele>
        <time>2021-11-20T11:20:19.000Z</time>
      </trkpt>
      <trkpt lat="45.26774" lon="5.88724">
        <ele>240</ele>
        <time>2021-11-20T11:20:24.000Z</time>
      </trkpt>
      <trkpt lat="45.26796" lon="5.88743">
        <ele>242.15</ele>
        <time>2021-11-20T11:20:29.000Z</time>
      </trkpt>
      <trkpt lat="45.26812" lon="5.88778">
        <ele>240.92</ele>
        <time>2021-11-20T11:20:34.000Z</time>
      </trkpt>
      <trkpt lat="45.2682" lon="5.88819">
        <ele>240.01</ele>
        <time>2021-11-20T11:20:39.000Z</time>
      </trkpt>
      <trkpt lat="45.26826" lon="5.88861">
        <ele>238.81</ele>
        <time>2021-11-20T11:20:44.000Z</time>
      </trkpt>
      <trkpt lat="45.26836" lon="5.889">
        <ele>238.54</ele>
        <time>2021-11-20T11:20:49.000Z</time>
      </trkpt>
      <trkpt lat="45.26846" lon="5.88936">
        <ele>241.09</ele>
        <time>2021-11-20T11:20:54.000Z</time>
      </trkpt>
      <trkpt lat="45.26857" lon="5.88968">
        <ele>242.94</ele>
        <time>2021-11-20T11:20:59.000Z</time>
      </trkpt>
      <trkpt lat="45.26878" lon="5.88993">
        <ele>241.55</ele>
        <time>2021-11-20T11:21:04.000Z</time>
      </trkpt>
      <trkpt lat="45.26903" lon="5.89017">
        <ele>243.69</ele>
        <time>2021-11-20T11:21:09.000Z</time>
      </trkpt>
      <trkpt lat="45.26924" lon="5.89044">
        <ele>242.57</ele>
        <time>2021-11-20T11:21:14.000Z</time>
      </trkpt>
      <trkpt lat="45.2695" lon="5.89067">
        <ele>237.05</ele>
        <time>2021-11-20T11:21:19.000Z</time>
      </trkpt>
      <trkpt lat="45.26971" lon="5.891">
        <ele>235.21</ele>
        <time>2021-11-20T11:21:24.000Z</time>
      </trkpt>
      <trkpt lat="45.26991" lon="5.8913">
        <ele>234.37</ele>
        <time>2021-11-20T11:21:29.000Z</time>
      </trkpt>
      <trkpt lat="45.27005" lon="5.89159">
        <ele>234.45</ele>
        <time>2021-11-20T11:21:34.000Z</time>
      </trkpt>
      <trkpt lat="45.27015" lon="5.89182">
        <ele>234.94</ele>
        <time>2021-11-20T11:21:39.000Z</time>
      </trkpt>
      <trkpt lat="45.27031" lon="5.89207">
        <ele>236.78</ele>
        <time>2021-11-20T11:21:44.000Z</time>
      </trkpt>
      <trkpt lat="45.27062" lon="5.89202">
        <ele>237.97</ele>
        <time>2021-11-20T11:21:49.000Z</time>
      </trkpt>
      <trkpt lat="45.27089" lon="5.89223">
        <ele>234.78</ele>
        <time>2021-11-20T11:21:54.000Z</time>
      </trkpt>
      <trkpt lat="45.27115" lon="5.89239">
        <ele>235.27</ele>
        <time>2021-11-20T11:21:59.000Z</time>
      </trkpt>
      <trkpt lat="45.27142" lon="5.89255">
        <ele>233.59</ele>
        <time>2021-11-20T11:22:04.000Z</time>
      </trkpt>
      <trkpt lat="45.27168" lon="5.89273">
        <ele>233.18</ele>
        <time>2021-11-20T11:22:09.000Z</time>
      </trkpt>
      <trkpt lat="45.27194" lon="5.89292">
        <ele>231.12</ele>
        <time>2021-11-20T11:22:14.000Z</time>
      </trkpt>
      <trkpt lat="45.2722" lon="5.89313">
        <ele>234.45</ele>
        <time>2021-11-20T11:22:19.000Z</time>
      </trkpt>
      <trkpt lat="45.27237" lon="5.89344">
        <ele>231.6</ele>
        <time>2021-11-20T11:22:24.000Z</time>
      </trkpt>
      <trkpt lat="45.27255" lon="5.89372">
        <ele>230.19</ele>
        <time>2021-11-20T11:22:29.000Z</time>
      </trkpt>
      <trkpt lat="45.27276" lon="5.89408">
        <ele>229.37</ele>
        <time>2021-11-20T11:22:34.000Z</time>
      </trkpt>
      <trkpt lat="45.27297" lon="5.89436">
        <ele>227.78</ele>
        <time>2021-11-20T11:22:39.000Z</time>
      </trkpt>
      <trkpt lat="45.27318" lon="5.89469">
        <ele>228.84</ele>
        <time>2021-11-20T11:22:44.000Z</time>
      </trkpt>
      <trkpt lat="45.27341" lon="5.89503">
        <ele>228.8</ele>
        <time>2021-11-20T11:22:49.000Z</time>
      </trkpt>
      <trkpt lat="45.27366" lon="5.89532">
        <ele>230.27</ele>
        <time>2021-11-20T11:22:54.000Z</time>
      </trkpt>
      <trkpt lat="45.27393" lon="5.89559">
        <ele>228.45</ele>
        <time>2021-11-20T11:22:59.000Z</time>
      </trkpt>
      <trkpt lat="45.27417" lon="5.89589">
        <ele>229.96</ele>
        <time>2021-11-20T11:23:04.000Z</time>
      </trkpt>
      <trkpt lat="45.27445" lon="5.89621">
        <ele>229.29</ele>
        <time>2021-11-20T11:23:09.000Z</time>
      </trkpt>
      <trkpt lat="45.27469" lon="5.89649">
        <ele>226.61</ele>
        <time>2021-11-20T11:23:14.000Z</time>
      </trkpt>
      <trkpt lat="45.27493" lon="5.89676">
        <ele>226.11</ele>
        <time>2021-11-20T11:23:19.000Z</time>
      </trkpt>
      <trkpt lat="45.27518" lon="5.89659">
        <ele>228.01</ele>
        <time>2021-11-20T11:23:24.000Z</time>
      </trkpt>
      <trkpt lat="45.27537" lon="5.89629">
        <ele>226.83</ele>
        <time>2021-11-20T11:23:29.000Z</time>
      </trkpt>
      <trkpt lat="45.27552" lon="5.89597">
        <ele>230.07</ele>
        <time>2021-11-20T11:23:34.000Z</time>
      </trkpt>
      <trkpt lat="45.27573" lon="5.89609">
        <ele>229.63</ele>
        <time>2021-11-20T11:23:39.000Z</time>
      </trkpt>
      <trkpt lat="45.27592" lon="5.89628">
        <ele>230.01</ele>
        <time>2021-11-20T11:23:44.000Z</time>
      </trkpt>
      <trkpt lat="45.27611" lon="5.89645">
        <ele>228.01</ele>
        <time>2021-11-20T11:23:49.000Z</time>
      </trkpt>
      <trkpt lat="45.27631" lon="5.89637">
        <ele>226.89</ele>
        <time>2021-11-20T11:23:54.000Z</time>
      </trkpt>
      <trkpt lat="45.27643" lon="5.8964">
        <ele>227.08</ele>
        <time>2021-11-20T11:23:59.000Z</time>
      </trkpt>
      <trkpt lat="45.27655" lon="5.89651">
        <ele>227.77</ele>
        <time>2021-11-20T11:24:04.000Z</time>
      </trkpt>
      <trkpt lat="45.27671" lon="5.89668">
        <ele>228.72</ele>
        <time>2021-11-20T11:24:09.000Z</time>
      </trkpt>
      <trkpt lat="45.27687" lon="5.89657">
        <ele>229.01</ele>
        <time>2021-11-20T11:24:14.000Z</time>
      </trkpt>
      <trkpt lat="45.277" lon="5.89651">
        <ele>230.47</ele>
        <time>2021-11-20T11:24:19.000Z</time>
      </trkpt>
      <trkpt lat="45.27712" lon="5.89675">
        <ele>234.06</ele>
        <time>2021-11-20T11:24:24.000Z</time>
      </trkpt>
      <trkpt lat="45.27727" lon="5.89699">
        <ele>234.28</ele>
        <time>2021-11-20T11:24:29.000Z</time>
      </trkpt>
      <trkpt lat="45.27742" lon="5.89723">
        <ele>233.07</ele>
        <time>2021-11-20T11:24:34.000Z</time>
      </trkpt>
      <trkpt lat="45.27759" lon="5.89746">
        <ele>233.09</ele>
        <time>2021-11-20T11:24:39.000Z</time>
      </trkpt>
      <trkpt lat="45.27776" lon="5.89769">
        <ele>231.4</ele>
        <time>2021-11-20T11:24:44.000Z</time>
      </trkpt>
      <trkpt lat="45.27792" lon="5.89797">
        <ele>228.63</ele>
        <time>2021-11-20T11:24:49.000Z</time>
      </trkpt>
      <trkpt lat="45.27812" lon="5.89817">
        <ele>229.29</ele>
        <time>2021-11-20T11:24:54.000Z</time>
      </trkpt>
      <trkpt lat="45.27837" lon="5.89829">
        <ele>231.59</ele>
        <time>2021-11-20T11:24:59.000Z</time>
      </trkpt>
      <trkpt lat="45.2786" lon="5.89843">
        <ele>234.48</ele>
        <time>2021-11-20T11:25:04.000Z</time>
      </trkpt>
      <trkpt lat="45.27886" lon="5.89857">
        <ele>234.17</ele>
        <time>2021-11-20T11:25:09.000Z</time>
      </trkpt>
      <trkpt lat="45.27911" lon="5.89871">
        <ele>232.75</ele>
        <time>2021-11-20T11:25:14.000Z</time>
      </trkpt>
      <trkpt lat="45.27937" lon="5.89885">
        <ele>233.4</ele>
        <time>2021-11-20T11:25:19.000Z</time>
      </trkpt>
      <trkpt lat="45.27963" lon="5.89902">
        <ele>230.52</ele>
        <time>2021-11-20T11:25:24.000Z</time>
      </trkpt>
      <trkpt lat="45.27987" lon="5.89925">
        <ele>230.9</ele>
        <time>2021-11-20T11:25:29.000Z</time>
      </trkpt>
      <trkpt lat="45.28008" lon="5.89952">
        <ele>233.49</ele>
        <time>2021-11-20T11:25:34.000Z</time>
      </trkpt>
      <trkpt lat="45.2803" lon="5.89982">
        <ele>232.63</ele>
        <time>2021-11-20T11:25:39.000Z</time>
      </trkpt>
      <trkpt lat="45.2805" lon="5.90018">
        <ele>231.16</ele>
        <time>2021-11-20T11:25:44.000Z</time>
      </trkpt>
      <trkpt lat="45.28067" lon="5.90058">
        <ele>230.31</ele>
        <time>2021-11-20T11:25:49.000Z</time>
      </trkpt>
      <trkpt lat="45.28085" lon="5.90093">
        <ele>231.37</ele>
        <time>2021-11-20T11:25:54.000Z</time>
      </trkpt>
      <trkpt lat="45.28104" lon="5.90126">
        <ele>232.14</ele>
        <time>2021-11-20T11:25:59.000Z</time>
      </trkpt>
      <trkpt lat="45.2813" lon="5.9014">
        <ele>231.01</ele>
        <time>2021-11-20T11:26:04.000Z</time>
      </trkpt>
      <trkpt lat="45.28151" lon="5.90119">
        <ele>229.61</ele>
        <time>2021-11-20T11:26:09.000Z</time>
      </trkpt>
      <trkpt lat="45.28172" lon="5.90101">
        <ele>233.42</ele>
        <time>2021-11-20T11:26:14.000Z</time>
      </trkpt>
      <trkpt lat="45.28193" lon="5.90082">
        <ele>231.97</ele>
        <time>2021-11-20T11:26:19.000Z</time>
      </trkpt>
      <trkpt lat="45.28212" lon="5.90068">
        <ele>229</ele>
        <time>2021-11-20T11:26:24.000Z</time>
      </trkpt>
      <trkpt lat="45.28233" lon="5.90049">
        <ele>232.75</ele>
        <time>2021-11-20T11:26:29.000Z</time>
      </trkpt>
      <trkpt lat="45.28253" lon="5.90031">
        <ele>232.67</ele>
        <time>2021-11-20T11:26:34.000Z</time>
      </trkpt>
      <trkpt lat="45.28274" lon="5.9001">
        <ele>231.76</ele>
        <time>2021-11-20T11:26:39.000Z</time>
      </trkpt>
      <trkpt lat="45.28294" lon="5.8999">
        <ele>232.58</ele>
        <time>2021-11-20T11:26:44.000Z</time>
      </trkpt>
      <trkpt lat="45.28315" lon="5.89971">
        <ele>232.51</ele>
        <time>2021-11-20T11:26:49.000Z</time>
      </trkpt>
      <trkpt lat="45.28335" lon="5.89955">
        <ele>232.85</ele>
        <time>2021-11-20T11:26:54.000Z</time>
      </trkpt>
      <trkpt lat="45.28357" lon="5.89937">
        <ele>233.46</ele>
        <time>2021-11-20T11:26:59.000Z</time>
      </trkpt>
      <trkpt lat="45.28376" lon="5.89915">
        <ele>231.98</ele>
        <time>2021-11-20T11:27:04.000Z</time>
      </trkpt>
      <trkpt lat="45.28392" lon="5.89888">
        <ele>233.05</ele>
        <time>2021-11-20T11:27:09.000Z</time>
      </trkpt>
      <trkpt lat="45.28409" lon="5.89864">
        <ele>234.26</ele>
        <time>2021-11-20T11:27:14.000Z</time>
      </trkpt>
      <trkpt lat="45.28422" lon="5.89837">
        <ele>231.29</ele>
        <time>2021-11-20T11:27:19.000Z</time>
      </trkpt>
      <trkpt lat="45.28437" lon="5.89845">
        <ele>230.31</ele>
        <time>2021-11-20T11:27:24.000Z</time>
      </trkpt>
      <trkpt lat="45.28439" lon="5.89879">
        <ele>230</ele>
        <time>2021-11-20T11:27:29.000Z</time>
      </trkpt>
      <trkpt lat="45.28441" lon="5.89915">
        <ele>233.48</ele>
        <time>2021-11-20T11:27:34.000Z</time>
      </trkpt>
      <trkpt lat="45.28439" lon="5.89951">
        <ele>232.88</ele>
        <time>2021-11-20T11:27:39.000Z</time>
      </trkpt>
      <trkpt lat="45.28441" lon="5.89989">
        <ele>229.93</ele>
        <time>2021-11-20T11:27:44.000Z</time>
      </trkpt>
      <trkpt lat="45.28443" lon="5.90029">
        <ele>229.53</ele>
        <time>2021-11-20T11:27:49.000Z</time>
      </trkpt>
      <trkpt lat="45.2845" lon="5.9007">
        <ele>226.81</ele>
        <time>2021-11-20T11:27:54.000Z</time>
      </trkpt>
      <trkpt lat="45.28458" lon="5.90107">
        <ele>230.22</ele>
        <time>2021-11-20T11:27:59.000Z</time>
      </trkpt>
      <trkpt lat="45.28466" lon="5.90146">
        <ele>229.89</ele>
        <time>2021-11-20T11:28:04.000Z</time>
      </trkpt>
      <trkpt lat="45.28475" lon="5.90187">
        <ele>230.71</ele>
        <time>2021-11-20T11:28:09.000Z</time>
      </trkpt>
      <trkpt lat="45.28482" lon="5.90231">
        <ele>231.08</ele>
        <time>2021-11-20T11:28:14.000Z</time>
      </trkpt>
      <trkpt lat="45.28488" lon="5.90273">
        <ele>229.92</ele>
        <time>2021-11-20T11:28:19.000Z</time>
      </trkpt>
      <trkpt lat="45.28492" lon="5.90314">
        <ele>230.29</ele>
        <time>2021-11-20T11:28:24.000Z</time>
      </trkpt>
      <trkpt lat="45.28493" lon="5.90358">
        <ele>230.56</ele>
        <time>2021-11-20T11:28:29.000Z</time>
      </trkpt>
      <trkpt lat="45.28492" lon="5.90404">
        <ele>231.55</ele>
        <time>2021-11-20T11:28:34.000Z</time>
      </trkpt>
      <trkpt lat="45.28492" lon="5.90447">
        <ele>230.97</ele>
        <time>2021-11-20T11:28:39.000Z</time>
      </trkpt>
      <trkpt lat="45.28491" lon="5.9049">
        <ele>231.53</ele>
        <time>2021-11-20T11:28:44.000Z</time>
      </trkpt>
      <trkpt lat="45.28493" lon="5.90532">
        <ele>234.98</ele>
        <time>2021-11-20T11:28:49.000Z</time>
      </trkpt>
      <trkpt lat="45.28516" lon="5.90533">
        <ele>234.53</ele>
        <time>2021-11-20T11:28:54.000Z</time>
      </trkpt>
      <trkpt lat="45.28534" lon="5.90555">
        <ele>236.26</ele>
        <time>2021-11-20T11:28:59.000Z</time>
      </trkpt>
      <trkpt lat="45.2855" lon="5.90583">
        <ele>233.7</ele>
        <time>2021-11-20T11:29:04.000Z</time>
      </trkpt>
      <trkpt lat="45.28577" lon="5.90604">
        <ele>237.21</ele>
        <time>2021-11-20T11:29:09.000Z</time>
      </trkpt>
      <trkpt lat="45.28605" lon="5.90622">
        <ele>239.88</ele>
        <time>2021-11-20T11:29:14.000Z</time>
      </trkpt>
      <trkpt lat="45.28633" lon="5.90641">
        <ele>238.2</ele>
        <time>2021-11-20T11:29:19.000Z</time>
      </trkpt>
      <trkpt lat="45.28663" lon="5.9066">
        <ele>236.46</ele>
        <time>2021-11-20T11:29:24.000Z</time>
      </trkpt>
      <trkpt lat="45.2869" lon="5.90682">
        <ele>235.11</ele>
        <time>2021-11-20T11:29:29.000Z</time>
      </trkpt>
      <trkpt lat="45.28716" lon="5.90702">
        <ele>232.71</ele>
        <time>2021-11-20T11:29:34.000Z</time>
      </trkpt>
      <trkpt lat="45.28742" lon="5.90717">
        <ele>234.6</ele>
        <time>2021-11-20T11:29:39.000Z</time>
      </trkpt>
      <trkpt lat="45.28753" lon="5.90726">
        <ele>234.19</ele>
        <time>2021-11-20T11:29:44.000Z</time>
      </trkpt>
      <trkpt lat="45.28762" lon="5.90732">
        <ele>231.97</ele>
        <time>2021-11-20T11:30:11.000Z</time>
      </trkpt>
      <trkpt lat="45.28776" lon="5.90742">
        <ele>235.14</ele>
        <time>2021-11-20T11:30:16.000Z</time>
      </trkpt>
      <trkpt lat="45.28793" lon="5.90754">
        <ele>234.55</ele>
        <time>2021-11-20T11:30:21.000Z</time>
      </trkpt>
      <trkpt lat="45.28811" lon="5.90769">
        <ele>234.2</ele>
        <time>2021-11-20T11:30:26.000Z</time>
      </trkpt>
      <trkpt lat="45.28832" lon="5.90782">
        <ele>236.65</ele>
        <time>2021-11-20T11:30:31.000Z</time>
      </trkpt>
      <trkpt lat="45.28851" lon="5.90794">
        <ele>236.77</ele>
        <time>2021-11-20T11:30:36.000Z</time>
      </trkpt>
      <trkpt lat="45.2887" lon="5.90808">
        <ele>238.3</ele>
        <time>2021-11-20T11:30:41.000Z</time>
      </trkpt>
      <trkpt lat="45.28889" lon="5.90823">
        <ele>236.91</ele>
        <time>2021-11-20T11:30:46.000Z</time>
      </trkpt>
      <trkpt lat="45.2891" lon="5.90837">
        <ele>234.29</ele>
        <time>2021-11-20T11:30:51.000Z</time>
      </trkpt>
      <trkpt lat="45.28929" lon="5.90852">
        <ele>233.67</ele>
        <time>2021-11-20T11:30:56.000Z</time>
      </trkpt>
      <trkpt lat="45.28947" lon="5.90866">
        <ele>233.93</ele>
        <time>2021-11-20T11:31:01.000Z</time>
      </trkpt>
      <trkpt lat="45.28968" lon="5.9088">
        <ele>233.12</ele>
        <time>2021-11-20T11:31:06.000Z</time>
      </trkpt>
      <trkpt lat="45.28993" lon="5.90887">
        <ele>234.55</ele>
        <time>2021-11-20T11:31:11.000Z</time>
      </trkpt>
      <trkpt lat="45.29014" lon="5.90881">
        <ele>236.94</ele>
        <time>2021-11-20T11:31:16.000Z</time>
      </trkpt>
      <trkpt lat="45.29035" lon="5.90873">
        <ele>236.71</ele>
        <time>2021-11-20T11:31:21.000Z</time>
      </trkpt>
      <trkpt lat="45.29055" lon="5.90866">
        <ele>237.39</ele>
        <time>2021-11-20T11:31:26.000Z</time>
      </trkpt>
      <trkpt lat="45.29077" lon="5.90854">
        <ele>235.42</ele>
        <time>2021-11-20T11:31:31.000Z</time>
      </trkpt>
      <trkpt lat="45.29099" lon="5.90846">
        <ele>235.86</ele>
        <time>2021-11-20T11:31:36.000Z</time>
      </trkpt>
      <trkpt lat="45.29121" lon="5.90836">
        <ele>237.21</ele>
        <time>2021-11-20T11:31:41.000Z</time>
      </trkpt>
      <trkpt lat="45.29142" lon="5.90828">
        <ele>237.11</ele>
        <time>2021-11-20T11:31:46.000Z</time>
      </trkpt>
      <trkpt lat="45.29162" lon="5.90817">
        <ele>235.27</ele>
        <time>2021-11-20T11:31:51.000Z</time>
      </trkpt>
      <trkpt lat="45.29184" lon="5.90808">
        <ele>235.31</ele>
        <time>2021-11-20T11:31:56.000Z</time>
      </trkpt>
      <trkpt lat="45.29207" lon="5.90798">
        <ele>234.24</ele>
        <time>2021-11-20T11:32:01.000Z</time>
      </trkpt>
      <trkpt lat="45.29228" lon="5.90791">
        <ele>235.26</ele>
        <time>2021-11-20T11:32:06.000Z</time>
      </trkpt>
      <trkpt lat="45.29253" lon="5.9078">
        <ele>235.16</ele>
        <time>2021-11-20T11:32:11.000Z</time>
      </trkpt>
      <trkpt lat="45.29274" lon="5.90771">
        <ele>234.61</ele>
        <time>2021-11-20T11:32:16.000Z</time>
      </trkpt>
      <trkpt lat="45.29296" lon="5.90778">
        <ele>231.77</ele>
        <time>2021-11-20T11:32:21.000Z</time>
      </trkpt>
      <trkpt lat="45.29319" lon="5.90791">
        <ele>233</ele>
        <time>2021-11-20T11:32:26.000Z</time>
      </trkpt>
      <trkpt lat="45.29345" lon="5.90802">
        <ele>231.96</ele>
        <time>2021-11-20T11:32:31.000Z</time>
      </trkpt>
      <trkpt lat="45.29371" lon="5.90812">
        <ele>230.72</ele>
        <time>2021-11-20T11:32:36.000Z</time>
      </trkpt>
      <trkpt lat="45.29397" lon="5.90823">
        <ele>234.16</ele>
        <time>2021-11-20T11:32:41.000Z</time>
      </trkpt>
      <trkpt lat="45.29423" lon="5.90835">
        <ele>234.44</ele>
        <time>2021-11-20T11:32:46.000Z</time>
      </trkpt>
      <trkpt lat="45.29452" lon="5.9085">
        <ele>236.38</ele>
        <time>2021-11-20T11:32:51.000Z</time>
      </trkpt>
      <trkpt lat="45.29479" lon="5.90864">
        <ele>234.8</ele>
        <time>2021-11-20T11:32:56.000Z</time>
      </trkpt>
      <trkpt lat="45.29507" lon="5.90877">
        <ele>234.29</ele>
        <time>2021-11-20T11:33:01.000Z</time>
      </trkpt>
      <trkpt lat="45.29534" lon="5.90889">
        <ele>235.44</ele>
        <time>2021-11-20T11:33:06.000Z</time>
      </trkpt>
      <trkpt lat="45.29565" lon="5.90901">
        <ele>235.06</ele>
        <time>2021-11-20T11:33:11.000Z</time>
      </trkpt>
      <trkpt lat="45.29592" lon="5.90912">
        <ele>236.95</ele>
        <time>2021-11-20T11:33:16.000Z</time>
      </trkpt>
      <trkpt lat="45.29623" lon="5.90925">
        <ele>235.29</ele>
        <time>2021-11-20T11:33:21.000Z</time>
      </trkpt>
      <trkpt lat="45.29653" lon="5.90937">
        <ele>234.57</ele>
        <time>2021-11-20T11:33:26.000Z</time>
      </trkpt>
      <trkpt lat="45.29679" lon="5.9095">
        <ele>231.07</ele>
        <time>2021-11-20T11:33:31.000Z</time>
      </trkpt>
      <trkpt lat="45.29709" lon="5.9096">
        <ele>230.38</ele>
        <time>2021-11-20T11:33:36.000Z</time>
      </trkpt>
      <trkpt lat="45.29737" lon="5.90972">
        <ele>231.74</ele>
        <time>2021-11-20T11:33:41.000Z</time>
      </trkpt>
      <trkpt lat="45.29765" lon="5.90982">
        <ele>232.42</ele>
        <time>2021-11-20T11:33:46.000Z</time>
      </trkpt>
      <trkpt lat="45.29795" lon="5.90995">
        <ele>232.03</ele>
        <time>2021-11-20T11:33:51.000Z</time>
      </trkpt>
      <trkpt lat="45.29823" lon="5.91007">
        <ele>232.47</ele>
        <time>2021-11-20T11:33:56.000Z</time>
      </trkpt>
      <trkpt lat="45.2985" lon="5.91018">
        <ele>230.37</ele>
        <time>2021-11-20T11:34:01.000Z</time>
      </trkpt>
      <trkpt lat="45.29878" lon="5.91027">
        <ele>232.11</ele>
        <time>2021-11-20T11:34:06.000Z</time>
      </trkpt>
      <trkpt lat="45.29904" lon="5.91037">
        <ele>231.28</ele>
        <time>2021-11-20T11:34:11.000Z</time>
      </trkpt>
      <trkpt lat="45.29931" lon="5.91053">
        <ele>232</ele>
        <time>2021-11-20T11:34:16.000Z</time>
      </trkpt>
      <trkpt lat="45.29956" lon="5.91073">
        <ele>232.86</ele>
        <time>2021-11-20T11:34:21.000Z</time>
      </trkpt>
      <trkpt lat="45.29981" lon="5.91095">
        <ele>230.27</ele>
        <time>2021-11-20T11:34:26.000Z</time>
      </trkpt>
      <trkpt lat="45.30006" lon="5.91117">
        <ele>226.03</ele>
        <time>2021-11-20T11:34:31.000Z</time>
      </trkpt>
      <trkpt lat="45.30032" lon="5.91139">
        <ele>227.25</ele>
        <time>2021-11-20T11:34:36.000Z</time>
      </trkpt>
      <trkpt lat="45.30055" lon="5.91162">
        <ele>225.35</ele>
        <time>2021-11-20T11:34:41.000Z</time>
      </trkpt>
      <trkpt lat="45.30079" lon="5.91188">
        <ele>226.24</ele>
        <time>2021-11-20T11:34:46.000Z</time>
      </trkpt>
      <trkpt lat="45.30096" lon="5.91208">
        <ele>226.63</ele>
        <time>2021-11-20T11:34:51.000Z</time>
      </trkpt>
      <trkpt lat="45.30115" lon="5.91226">
        <ele>226.75</ele>
        <time>2021-11-20T11:34:56.000Z</time>
      </trkpt>
      <trkpt lat="45.30134" lon="5.91246">
        <ele>224.93</ele>
        <time>2021-11-20T11:35:01.000Z</time>
      </trkpt>
      <trkpt lat="45.30157" lon="5.91268">
        <ele>225.6</ele>
        <time>2021-11-20T11:35:06.000Z</time>
      </trkpt>
      <trkpt lat="45.3018" lon="5.91289">
        <ele>225.41</ele>
        <time>2021-11-20T11:35:11.000Z</time>
      </trkpt>
      <trkpt lat="45.30205" lon="5.91312">
        <ele>224.36</ele>
        <time>2021-11-20T11:35:16.000Z</time>
      </trkpt>
      <trkpt lat="45.3023" lon="5.91336">
        <ele>227.1</ele>
        <time>2021-11-20T11:35:21.000Z</time>
      </trkpt>
      <trkpt lat="45.30252" lon="5.91359">
        <ele>229.38</ele>
        <time>2021-11-20T11:35:26.000Z</time>
      </trkpt>
      <trkpt lat="45.30276" lon="5.91383">
        <ele>231.54</ele>
        <time>2021-11-20T11:35:31.000Z</time>
      </trkpt>
      <trkpt lat="45.303" lon="5.91405">
        <ele>230.13</ele>
        <time>2021-11-20T11:35:36.000Z</time>
      </trkpt>
      <trkpt lat="45.30323" lon="5.91428">
        <ele>229.57</ele>
        <time>2021-11-20T11:35:41.000Z</time>
      </trkpt>
      <trkpt lat="45.30346" lon="5.91452">
        <ele>228.14</ele>
        <time>2021-11-20T11:35:46.000Z</time>
      </trkpt>
      <trkpt lat="45.3037" lon="5.91477">
        <ele>226.16</ele>
        <time>2021-11-20T11:35:51.000Z</time>
      </trkpt>
      <trkpt lat="45.30394" lon="5.91499">
        <ele>226.45</ele>
        <time>2021-11-20T11:35:56.000Z</time>
      </trkpt>
      <trkpt lat="45.30419" lon="5.91521">
        <ele>226.66</ele>
        <time>2021-11-20T11:36:01.000Z</time>
      </trkpt>
      <trkpt lat="45.30441" lon="5.91544">
        <ele>227.86</ele>
        <time>2021-11-20T11:36:06.000Z</time>
      </trkpt>
      <trkpt lat="45.30464" lon="5.91566">
        <ele>226.57</ele>
        <time>2021-11-20T11:36:11.000Z</time>
      </trkpt>
      <trkpt lat="45.30486" lon="5.91587">
        <ele>229.49</ele>
        <time>2021-11-20T11:36:16.000Z</time>
      </trkpt>
      <trkpt lat="45.30511" lon="5.91609">
        <ele>230.55</ele>
        <time>2021-11-20T11:36:21.000Z</time>
      </trkpt>
      <trkpt lat="45.30531" lon="5.91633">
        <ele>228.99</ele>
        <time>2021-11-20T11:36:26.000Z</time>
      </trkpt>
      <trkpt lat="45.3054" lon="5.91664">
        <ele>231.3</ele>
        <time>2021-11-20T11:36:31.000Z</time>
      </trkpt>
      <trkpt lat="45.30531" lon="5.91691">
        <ele>228.38</ele>
        <time>2021-11-20T11:36:36.000Z</time>
      </trkpt>
      <trkpt lat="45.3052" lon="5.91722">
        <ele>228.04</ele>
        <time>2021-11-20T11:36:41.000Z</time>
      </trkpt>
      <trkpt lat="45.3051" lon="5.91754">
        <ele>230.32</ele>
        <time>2021-11-20T11:36:46.000Z</time>
      </trkpt>
      <trkpt lat="45.30502" lon="5.91789">
        <ele>231.74</ele>
        <time>2021-11-20T11:36:51.000Z</time>
      </trkpt>
      <trkpt lat="45.30498" lon="5.91827">
        <ele>233.51</ele>
        <time>2021-11-20T11:36:56.000Z</time>
      </trkpt>
      <trkpt lat="45.30505" lon="5.91862">
        <ele>232.7</ele>
        <time>2021-11-20T11:37:01.000Z</time>
      </trkpt>
      <trkpt lat="45.30502" lon="5.91897">
        <ele>232.4</ele>
        <time>2021-11-20T11:37:06.000Z</time>
      </trkpt>
      <trkpt lat="45.30487" lon="5.91924">
        <ele>230.82</ele>
        <time>2021-11-20T11:37:11.000Z</time>
      </trkpt>
      <trkpt lat="45.30471" lon="5.91951">
        <ele>231.34</ele>
        <time>2021-11-20T11:37:16.000Z</time>
      </trkpt>
      <trkpt lat="45.30459" lon="5.9198">
        <ele>235.41</ele>
        <time>2021-11-20T11:37:21.000Z</time>
      </trkpt>
      <trkpt lat="45.30465" lon="5.92015">
        <ele>237.54</ele>
        <time>2021-11-20T11:37:26.000Z</time>
      </trkpt>
      <trkpt lat="45.30479" lon="5.92043">
        <ele>236.4</ele>
        <time>2021-11-20T11:37:31.000Z</time>
      </trkpt>
      <trkpt lat="45.3049" lon="5.92073">
        <ele>235.12</ele>
        <time>2021-11-20T11:37:36.000Z</time>
      </trkpt>
      <trkpt lat="45.30504" lon="5.92102">
        <ele>234.35</ele>
        <time>2021-11-20T11:37:41.000Z</time>
      </trkpt>
      <trkpt lat="45.30518" lon="5.92131">
        <ele>232.03</ele>
        <time>2021-11-20T11:37:46.000Z</time>
      </trkpt>
      <trkpt lat="45.30531" lon="5.92161">
        <ele>231.53</ele>
        <time>2021-11-20T11:37:51.000Z</time>
      </trkpt>
      <trkpt lat="45.30533" lon="5.92195">
        <ele>229.43</ele>
        <time>2021-11-20T11:37:56.000Z</time>
      </trkpt>
      <trkpt lat="45.30513" lon="5.92224">
        <ele>227.41</ele>
        <time>2021-11-20T11:38:01.000Z</time>
      </trkpt>
      <trkpt lat="45.30511" lon="5.92255">
        <ele>227.3</ele>
        <time>2021-11-20T11:38:06.000Z</time>
      </trkpt>
      <trkpt lat="45.30526" lon="5.92294">
        <ele>229.56</ele>
        <time>2021-11-20T11:38:11.000Z</time>
      </trkpt>
      <trkpt lat="45.30537" lon="5.92337">
        <ele>230.54</ele>
        <time>2021-11-20T11:38:16.000Z</time>
      </trkpt>
      <trkpt lat="45.30551" lon="5.92371">
        <ele>229.27</ele>
        <time>2021-11-20T11:38:21.000Z</time>
      </trkpt>
      <trkpt lat="45.30565" lon="5.92411">
        <ele>232.65</ele>
        <time>2021-11-20T11:38:26.000Z</time>
      </trkpt>
      <trkpt lat="45.30568" lon="5.92453">
        <ele>230.99</ele>
        <time>2021-11-20T11:38:31.000Z</time>
      </trkpt>
      <trkpt lat="45.30571" lon="5.92495">
        <ele>229.14</ele>
        <time>2021-11-20T11:38:36.000Z</time>
      </trkpt>
      <trkpt lat="45.30581" lon="5.92535">
        <ele>226.33</ele>
        <time>2021-11-20T11:38:41.000Z</time>
      </trkpt>
      <trkpt lat="45.30578" lon="5.92579">
        <ele>228.01</ele>
        <time>2021-11-20T11:38:46.000Z</time>
      </trkpt>
      <trkpt lat="45.30567" lon="5.92618">
        <ele>228.14</ele>
        <time>2021-11-20T11:38:51.000Z</time>
      </trkpt>
      <trkpt lat="45.30561" lon="5.92663">
        <ele>229.87</ele>
        <time>2021-11-20T11:38:56.000Z</time>
      </trkpt>
      <trkpt lat="45.30575" lon="5.92696">
        <ele>229.74</ele>
        <time>2021-11-20T11:39:01.000Z</time>
      </trkpt>
      <trkpt lat="45.30592" lon="5.92732">
        <ele>231.84</ele>
        <time>2021-11-20T11:39:06.000Z</time>
      </trkpt>
      <trkpt lat="45.30609" lon="5.92767">
        <ele>234.59</ele>
        <time>2021-11-20T11:39:11.000Z</time>
      </trkpt>
      <trkpt lat="45.30631" lon="5.9279">
        <ele>235.06</ele>
        <time>2021-11-20T11:39:16.000Z</time>
      </trkpt>
      <trkpt lat="45.30658" lon="5.92817">
        <ele>238.8</ele>
        <time>2021-11-20T11:39:21.000Z</time>
      </trkpt>
      <trkpt lat="45.30684" lon="5.92841">
        <ele>236.93</ele>
        <time>2021-11-20T11:39:26.000Z</time>
      </trkpt>
      <trkpt lat="45.30712" lon="5.92861">
        <ele>236.71</ele>
        <time>2021-11-20T11:39:31.000Z</time>
      </trkpt>
      <trkpt lat="45.30736" lon="5.92882">
        <ele>235.4</ele>
        <time>2021-11-20T11:39:36.000Z</time>
      </trkpt>
      <trkpt lat="45.3076" lon="5.92898">
        <ele>238.89</ele>
        <time>2021-11-20T11:39:41.000Z</time>
      </trkpt>
      <trkpt lat="45.30782" lon="5.92925">
        <ele>235.48</ele>
        <time>2021-11-20T11:39:46.000Z</time>
      </trkpt>
      <trkpt lat="45.30803" lon="5.92936">
        <ele>235.5</ele>
        <time>2021-11-20T11:39:51.000Z</time>
      </trkpt>
      <trkpt lat="45.30824" lon="5.92939">
        <ele>237.63</ele>
        <time>2021-11-20T11:39:56.000Z</time>
      </trkpt>
      <trkpt lat="45.30835" lon="5.92945">
        <ele>236.11</ele>
        <time>2021-11-20T11:40:01.000Z</time>
      </trkpt>
      <trkpt lat="45.30847" lon="5.92946">
        <ele>235.38</ele>
        <time>2021-11-20T11:40:14.000Z</time>
      </trkpt>
      <trkpt lat="45.30867" lon="5.92947">
        <ele>234.96</ele>
        <time>2021-11-20T11:40:19.000Z</time>
      </trkpt>
      <trkpt lat="45.30885" lon="5.92928">
        <ele>234.45</ele>
        <time>2021-11-20T11:40:24.000Z</time>
      </trkpt>
      <trkpt lat="45.30903" lon="5.92898">
        <ele>231.51</ele>
        <time>2021-11-20T11:40:29.000Z</time>
      </trkpt>
      <trkpt lat="45.3092" lon="5.92873">
        <ele>228.79</ele>
        <time>2021-11-20T11:40:34.000Z</time>
      </trkpt>
      <trkpt lat="45.30943" lon="5.92849">
        <ele>233.96</ele>
        <time>2021-11-20T11:40:39.000Z</time>
      </trkpt>
      <trkpt lat="45.30967" lon="5.92833">
        <ele>235.54</ele>
        <time>2021-11-20T11:40:44.000Z</time>
      </trkpt>
      <trkpt lat="45.30988" lon="5.92855">
        <ele>235.39</ele>
        <time>2021-11-20T11:40:49.000Z</time>
      </trkpt>
      <trkpt lat="45.31007" lon="5.92884">
        <ele>236.16</ele>
        <time>2021-11-20T11:40:54.000Z</time>
      </trkpt>
      <trkpt lat="45.31026" lon="5.92912">
        <ele>235.86</ele>
        <time>2021-11-20T11:40:59.000Z</time>
      </trkpt>
      <trkpt lat="45.31037" lon="5.9294">
        <ele>235.86</ele>
        <time>2021-11-20T11:41:04.000Z</time>
      </trkpt>
      <trkpt lat="45.31022" lon="5.92974">
        <ele>235.61</ele>
        <time>2021-11-20T11:41:09.000Z</time>
      </trkpt>
      <trkpt lat="45.31031" lon="5.93006">
        <ele>238.94</ele>
        <time>2021-11-20T11:41:14.000Z</time>
      </trkpt>
      <trkpt lat="45.31057" lon="5.93026">
        <ele>236.94</ele>
        <time>2021-11-20T11:41:19.000Z</time>
      </trkpt>
      <trkpt lat="45.31081" lon="5.93044">
        <ele>238.14</ele>
        <time>2021-11-20T11:41:24.000Z</time>
      </trkpt>
      <trkpt lat="45.31107" lon="5.93067">
        <ele>240.14</ele>
        <time>2021-11-20T11:41:29.000Z</time>
      </trkpt>
      <trkpt lat="45.31132" lon="5.93089">
        <ele>239.28</ele>
        <time>2021-11-20T11:41:34.000Z</time>
      </trkpt>
      <trkpt lat="45.31151" lon="5.93101">
        <ele>239.49</ele>
        <time>2021-11-20T11:41:39.000Z</time>
      </trkpt>
      <trkpt lat="45.31172" lon="5.93117">
        <ele>237.97</ele>
        <time>2021-11-20T11:41:44.000Z</time>
      </trkpt>
      <trkpt lat="45.31196" lon="5.93137">
        <ele>237.66</ele>
        <time>2021-11-20T11:41:49.000Z</time>
      </trkpt>
      <trkpt lat="45.31227" lon="5.93152">
        <ele>237.37</ele>
        <time>2021-11-20T11:41:54.000Z</time>
      </trkpt>
      <trkpt lat="45.31251" lon="5.93159">
        <ele>232.67</ele>
        <time>2021-11-20T11:41:59.000Z</time>
      </trkpt>
      <trkpt lat="45.31274" lon="5.93165">
        <ele>232.46</ele>
        <time>2021-11-20T11:42:04.000Z</time>
      </trkpt>
      <trkpt lat="45.31298" lon="5.93149">
        <ele>231.51</ele>
        <time>2021-11-20T11:42:09.000Z</time>
      </trkpt>
      <trkpt lat="45.31313" lon="5.93128">
        <ele>231.38</ele>
        <time>2021-11-20T11:42:14.000Z</time>
      </trkpt>
      <trkpt lat="45.31324" lon="5.93101">
        <ele>229.35</ele>
        <time>2021-11-20T11:42:19.000Z</time>
      </trkpt>
      <trkpt lat="45.31336" lon="5.93075">
        <ele>230.89</ele>
        <time>2021-11-20T11:42:24.000Z</time>
      </trkpt>
      <trkpt lat="45.31347" lon="5.93048">
        <ele>232.36</ele>
        <time>2021-11-20T11:42:29.000Z</time>
      </trkpt>
      <trkpt lat="45.31352" lon="5.93015">
        <ele>236.78</ele>
        <time>2021-11-20T11:42:34.000Z</time>
      </trkpt>
      <trkpt lat="45.31364" lon="5.92985">
        <ele>236.71</ele>
        <time>2021-11-20T11:42:39.000Z</time>
      </trkpt>
      <trkpt lat="45.31379" lon="5.92964">
        <ele>239.94</ele>
        <time>2021-11-20T11:42:44.000Z</time>
      </trkpt>
      <trkpt lat="45.31399" lon="5.92946">
        <ele>240.84</ele>
        <time>2021-11-20T11:42:49.000Z</time>
      </trkpt>
      <trkpt lat="45.31418" lon="5.92927">
        <ele>246.15</ele>
        <time>2021-11-20T11:42:54.000Z</time>
      </trkpt>
      <trkpt lat="45.3144" lon="5.92909">
        <ele>245.39</ele>
        <time>2021-11-20T11:42:59.000Z</time>
      </trkpt>
      <trkpt lat="45.31462" lon="5.92882">
        <ele>250.51</ele>
        <time>2021-11-20T11:43:04.000Z</time>
      </trkpt>
      <trkpt lat="45.31476" lon="5.92858">
        <ele>249.53</ele>
        <time>2021-11-20T11:43:09.000Z</time>
      </trkpt>
      <trkpt lat="45.31486" lon="5.9283">
        <ele>249.1</ele>
        <time>2021-11-20T11:43:14.000Z</time>
      </trkpt>
      <trkpt lat="45.315" lon="5.92804">
        <ele>249.86</ele>
        <time>2021-11-20T11:43:19.000Z</time>
      </trkpt>
      <trkpt lat="45.31513" lon="5.92774">
        <ele>248.05</ele>
        <time>2021-11-20T11:43:24.000Z</time>
      </trkpt>
      <trkpt lat="45.31523" lon="5.92747">
        <ele>249.36</ele>
        <time>2021-11-20T11:43:29.000Z</time>
      </trkpt>
      <trkpt lat="45.31537" lon="5.92717">
        <ele>246.04</ele>
        <time>2021-11-20T11:43:34.000Z</time>
      </trkpt>
      <trkpt lat="45.31548" lon="5.92688">
        <ele>250.76</ele>
        <time>2021-11-20T11:43:39.000Z</time>
      </trkpt>
      <trkpt lat="45.31558" lon="5.92659">
        <ele>252.04</ele>
        <time>2021-11-20T11:43:44.000Z</time>
      </trkpt>
      <trkpt lat="45.31569" lon="5.92631">
        <ele>253.69</ele>
        <time>2021-11-20T11:43:49.000Z</time>
      </trkpt>
      <trkpt lat="45.31582" lon="5.92604">
        <ele>255.99</ele>
        <time>2021-11-20T11:43:54.000Z</time>
      </trkpt>
      <trkpt lat="45.31592" lon="5.92601">
        <ele>261.29</ele>
        <time>2021-11-20T11:43:59.000Z</time>
      </trkpt>
      <trkpt lat="45.31596" lon="5.92618">
        <ele>262.03</ele>
        <time>2021-11-20T11:44:04.000Z</time>
      </trkpt>
      <trkpt lat="45.31599" lon="5.92646">
        <ele>260.56</ele>
        <time>2021-11-20T11:44:09.000Z</time>
      </trkpt>
      <trkpt lat="45.3161" lon="5.92674">
        <ele>259.32</ele>
        <time>2021-11-20T11:44:14.000Z</time>
      </trkpt>
      <trkpt lat="45.31625" lon="5.92699">
        <ele>259.05</ele>
        <time>2021-11-20T11:44:19.000Z</time>
      </trkpt>
      <trkpt lat="45.31638" lon="5.92728">
        <ele>256.48</ele>
        <time>2021-11-20T11:44:24.000Z</time>
      </trkpt>
      <trkpt lat="45.31652" lon="5.92756">
        <ele>251.73</ele>
        <time>2021-11-20T11:44:29.000Z</time>
      </trkpt>
      <trkpt lat="45.31666" lon="5.92785">
        <ele>251.18</ele>
        <time>2021-11-20T11:44:34.000Z</time>
      </trkpt>
      <trkpt lat="45.31682" lon="5.92819">
        <ele>253.24</ele>
        <time>2021-11-20T11:44:39.000Z</time>
      </trkpt>
      <trkpt lat="45.31697" lon="5.92847">
        <ele>249.98</ele>
        <time>2021-11-20T11:44:44.000Z</time>
      </trkpt>
      <trkpt lat="45.31712" lon="5.92881">
        <ele>249.6</ele>
        <time>2021-11-20T11:44:49.000Z</time>
      </trkpt>
      <trkpt lat="45.3173" lon="5.92912">
        <ele>247.9</ele>
        <time>2021-11-20T11:44:54.000Z</time>
      </trkpt>
      <trkpt lat="45.3175" lon="5.92945">
        <ele>245.67</ele>
        <time>2021-11-20T11:44:59.000Z</time>
      </trkpt>
      <trkpt lat="45.31768" lon="5.92986">
        <ele>242.14</ele>
        <time>2021-11-20T11:45:04.000Z</time>
      </trkpt>
      <trkpt lat="45.31788" lon="5.93031">
        <ele>239.72</ele>
        <time>2021-11-20T11:45:09.000Z</time>
      </trkpt>
      <trkpt lat="45.31809" lon="5.93078">
        <ele>240.86</ele>
        <time>2021-11-20T11:45:14.000Z</time>
      </trkpt>
      <trkpt lat="45.3183" lon="5.93124">
        <ele>237.88</ele>
        <time>2021-11-20T11:45:19.000Z</time>
      </trkpt>
      <trkpt lat="45.31844" lon="5.93167">
        <ele>239.97</ele>
        <time>2021-11-20T11:45:24.000Z</time>
      </trkpt>
      <trkpt lat="45.31865" lon="5.93191">
        <ele>241.06</ele>
        <time>2021-11-20T11:45:29.000Z</time>
      </trkpt>
      <trkpt lat="45.31895" lon="5.93195">
        <ele>240.77</ele>
        <time>2021-11-20T11:45:34.000Z</time>
      </trkpt>
      <trkpt lat="45.31921" lon="5.93194">
        <ele>239.53</ele>
        <time>2021-11-20T11:45:39.000Z</time>
      </trkpt>
      <trkpt lat="45.31948" lon="5.93197">
        <ele>238.68</ele>
        <time>2021-11-20T11:45:44.000Z</time>
      </trkpt>
      <trkpt lat="45.31975" lon="5.93208">
        <ele>238.58</ele>
        <time>2021-11-20T11:45:49.000Z</time>
      </trkpt>
      <trkpt lat="45.31998" lon="5.93226">
        <ele>237.06</ele>
        <time>2021-11-20T11:45:54.000Z</time>
      </trkpt>
      <trkpt lat="45.32022" lon="5.93247">
        <ele>237.04</ele>
        <time>2021-11-20T11:45:59.000Z</time>
      </trkpt>
      <trkpt lat="45.32044" lon="5.93269">
        <ele>236.87</ele>
        <time>2021-11-20T11:46:04.000Z</time>
      </trkpt>
      <trkpt lat="45.32066" lon="5.93292">
        <ele>237</ele>
        <time>2021-11-20T11:46:09.000Z</time>
      </trkpt>
      <trkpt lat="45.32085" lon="5.93317">
        <ele>240.46</ele>
        <time>2021-11-20T11:46:14.000Z</time>
      </trkpt>
      <trkpt lat="45.32104" lon="5.93345">
        <ele>243.76</ele>
        <time>2021-11-20T11:46:19.000Z</time>
      </trkpt>
      <trkpt lat="45.32124" lon="5.93371">
        <ele>244.73</ele>
        <time>2021-11-20T11:46:24.000Z</time>
      </trkpt>
      <trkpt lat="45.32139" lon="5.93397">
        <ele>245.96</ele>
        <time>2021-11-20T11:46:29.000Z</time>
      </trkpt>
      <trkpt lat="45.3215" lon="5.93423">
        <ele>247.58</ele>
        <time>2021-11-20T11:46:34.000Z</time>
      </trkpt>
      <trkpt lat="45.32159" lon="5.93442">
        <ele>245.72</ele>
        <time>2021-11-20T11:46:39.000Z</time>
      </trkpt>
      <trkpt lat="45.32175" lon="5.93466">
        <ele>244.05</ele>
        <time>2021-11-20T11:46:44.000Z</time>
      </trkpt>
      <trkpt lat="45.32191" lon="5.93494">
        <ele>243.91</ele>
        <time>2021-11-20T11:46:49.000Z</time>
      </trkpt>
      <trkpt lat="45.32206" lon="5.93518">
        <ele>243.2</ele>
        <time>2021-11-20T11:46:54.000Z</time>
      </trkpt>
      <trkpt lat="45.32222" lon="5.93546">
        <ele>243.3</ele>
        <time>2021-11-20T11:46:59.000Z</time>
      </trkpt>
      <trkpt lat="45.32239" lon="5.93566">
        <ele>244.61</ele>
        <time>2021-11-20T11:47:04.000Z</time>
      </trkpt>
      <trkpt lat="45.32254" lon="5.9359">
        <ele>243.97</ele>
        <time>2021-11-20T11:47:09.000Z</time>
      </trkpt>
      <trkpt lat="45.3227" lon="5.93614">
        <ele>243.38</ele>
        <time>2021-11-20T11:47:14.000Z</time>
      </trkpt>
      <trkpt lat="45.32288" lon="5.9364">
        <ele>243.08</ele>
        <time>2021-11-20T11:47:19.000Z</time>
      </trkpt>
      <trkpt lat="45.32306" lon="5.9366">
        <ele>246.57</ele>
        <time>2021-11-20T11:47:24.000Z</time>
      </trkpt>
      <trkpt lat="45.32326" lon="5.93682">
        <ele>239.72</ele>
        <time>2021-11-20T11:47:29.000Z</time>
      </trkpt>
      <trkpt lat="45.32345" lon="5.93704">
        <ele>240.33</ele>
        <time>2021-11-20T11:47:34.000Z</time>
      </trkpt>
      <trkpt lat="45.32364" lon="5.93725">
        <ele>238.49</ele>
        <time>2021-11-20T11:47:39.000Z</time>
      </trkpt>
      <trkpt lat="45.32378" lon="5.93747">
        <ele>238.83</ele>
        <time>2021-11-20T11:47:44.000Z</time>
      </trkpt>
      <trkpt lat="45.32384" lon="5.93771">
        <ele>242.87</ele>
        <time>2021-11-20T11:47:49.000Z</time>
      </trkpt>
      <trkpt lat="45.32399" lon="5.9379">
        <ele>245.17</ele>
        <time>2021-11-20T11:47:54.000Z</time>
      </trkpt>
      <trkpt lat="45.32414" lon="5.93813">
        <ele>242.8</ele>
        <time>2021-11-20T11:47:59.000Z</time>
      </trkpt>
      <trkpt lat="45.3243" lon="5.93841">
        <ele>240.76</ele>
        <time>2021-11-20T11:48:04.000Z</time>
      </trkpt>
      <trkpt lat="45.32449" lon="5.93865">
        <ele>239.14</ele>
        <time>2021-11-20T11:48:09.000Z</time>
      </trkpt>
      <trkpt lat="45.32467" lon="5.93884">
        <ele>238.34</ele>
        <time>2021-11-20T11:48:14.000Z</time>
      </trkpt>
      <trkpt lat="45.3249" lon="5.939">
        <ele>236.76</ele>
        <time>2021-11-20T11:48:19.000Z</time>
      </trkpt>
      <trkpt lat="45.32511" lon="5.9391">
        <ele>235.7</ele>
        <time>2021-11-20T11:48:24.000Z</time>
      </trkpt>
      <trkpt lat="45.32536" lon="5.93894">
        <ele>238.33</ele>
        <time>2021-11-20T11:48:29.000Z</time>
      </trkpt>
      <trkpt lat="45.32553" lon="5.93877">
        <ele>239.96</ele>
        <time>2021-11-20T11:48:34.000Z</time>
      </trkpt>
      <trkpt lat="45.32568" lon="5.93849">
        <ele>246.48</ele>
        <time>2021-11-20T11:48:39.000Z</time>
      </trkpt>
      <trkpt lat="45.3259" lon="5.93834">
        <ele>246.55</ele>
        <time>2021-11-20T11:48:44.000Z</time>
      </trkpt>
      <trkpt lat="45.32607" lon="5.93818">
        <ele>245.28</ele>
        <time>2021-11-20T11:48:49.000Z</time>
      </trkpt>
      <trkpt lat="45.3262" lon="5.93802">
        <ele>244.31</ele>
        <time>2021-11-20T11:48:54.000Z</time>
      </trkpt>
      <trkpt lat="45.3263" lon="5.93787">
        <ele>245.49</ele>
        <time>2021-11-20T11:48:59.000Z</time>
      </trkpt>
      <trkpt lat="45.32645" lon="5.93771">
        <ele>245</ele>
        <time>2021-11-20T11:49:04.000Z</time>
      </trkpt>
      <trkpt lat="45.32656" lon="5.93752">
        <ele>243.7</ele>
        <time>2021-11-20T11:49:09.000Z</time>
      </trkpt>
      <trkpt lat="45.32664" lon="5.93727">
        <ele>245.93</ele>
        <time>2021-11-20T11:49:14.000Z</time>
      </trkpt>
      <trkpt lat="45.32673" lon="5.93702">
        <ele>245.26</ele>
        <time>2021-11-20T11:49:19.000Z</time>
      </trkpt>
      <trkpt lat="45.32688" lon="5.93697">
        <ele>244.34</ele>
        <time>2021-11-20T11:49:24.000Z</time>
      </trkpt>
      <trkpt lat="45.32706" lon="5.93697">
        <ele>242.98</ele>
        <time>2021-11-20T11:49:29.000Z</time>
      </trkpt>
      <trkpt lat="45.32728" lon="5.93706">
        <ele>240.74</ele>
        <time>2021-11-20T11:49:34.000Z</time>
      </trkpt>
      <trkpt lat="45.32749" lon="5.93713">
        <ele>240.43</ele>
        <time>2021-11-20T11:49:39.000Z</time>
      </trkpt>
      <trkpt lat="45.32776" lon="5.93723">
        <ele>245.91</ele>
        <time>2021-11-20T11:49:44.000Z</time>
      </trkpt>
      <trkpt lat="45.32802" lon="5.93728">
        <ele>247.41</ele>
        <time>2021-11-20T11:49:49.000Z</time>
      </trkpt>
      <trkpt lat="45.32833" lon="5.93733">
        <ele>245.64</ele>
        <time>2021-11-20T11:49:54.000Z</time>
      </trkpt>
      <trkpt lat="45.32864" lon="5.93739">
        <ele>246.19</ele>
        <time>2021-11-20T11:49:59.000Z</time>
      </trkpt>
      <trkpt lat="45.329" lon="5.93753">
        <ele>245.52</ele>
        <time>2021-11-20T11:50:04.000Z</time>
      </trkpt>
      <trkpt lat="45.32938" lon="5.93761">
        <ele>242.45</ele>
        <time>2021-11-20T11:50:09.000Z</time>
      </trkpt>
      <trkpt lat="45.32977" lon="5.93782">
        <ele>241.4</ele>
        <time>2021-11-20T11:50:14.000Z</time>
      </trkpt>
      <trkpt lat="45.33" lon="5.93822">
        <ele>242.07</ele>
        <time>2021-11-20T11:50:19.000Z</time>
      </trkpt>
      <trkpt lat="45.33012" lon="5.93875">
        <ele>239.04</ele>
        <time>2021-11-20T11:50:24.000Z</time>
      </trkpt>
      <trkpt lat="45.33023" lon="5.93923">
        <ele>239.78</ele>
        <time>2021-11-20T11:50:29.000Z</time>
      </trkpt>
      <trkpt lat="45.33034" lon="5.93963">
        <ele>245.7</ele>
        <time>2021-11-20T11:50:34.000Z</time>
      </trkpt>
      <trkpt lat="45.33041" lon="5.94003">
        <ele>244.62</ele>
        <time>2021-11-20T11:50:39.000Z</time>
      </trkpt>
      <trkpt lat="45.33049" lon="5.94039">
        <ele>247.47</ele>
        <time>2021-11-20T11:50:44.000Z</time>
      </trkpt>
      <trkpt lat="45.33058" lon="5.94068">
        <ele>246.05</ele>
        <time>2021-11-20T11:50:49.000Z</time>
      </trkpt>
      <trkpt lat="45.33066" lon="5.94099">
        <ele>246.7</ele>
        <time>2021-11-20T11:50:54.000Z</time>
      </trkpt>
      <trkpt lat="45.33073" lon="5.94132">
        <ele>249.33</ele>
        <time>2021-11-20T11:50:59.000Z</time>
      </trkpt>
      <trkpt lat="45.33082" lon="5.94168">
        <ele>251.33</ele>
        <time>2021-11-20T11:51:04.000Z</time>
      </trkpt>
      <trkpt lat="45.33093" lon="5.94203">
        <ele>248.47</ele>
        <time>2021-11-20T11:51:09.000Z</time>
      </trkpt>
      <trkpt lat="45.33095" lon="5.94239">
        <ele>248.08</ele>
        <time>2021-11-20T11:51:14.000Z</time>
      </trkpt>
      <trkpt lat="45.33078" lon="5.94272">
        <ele>245.11</ele>
        <time>2021-11-20T11:51:19.000Z</time>
      </trkpt>
      <trkpt lat="45.33061" lon="5.94303">
        <ele>244.57</ele>
        <time>2021-11-20T11:51:24.000Z</time>
      </trkpt>
      <trkpt lat="45.33072" lon="5.94342">
        <ele>245.84</ele>
        <time>2021-11-20T11:51:29.000Z</time>
      </trkpt>
      <trkpt lat="45.33089" lon="5.94375">
        <ele>244.57</ele>
        <time>2021-11-20T11:51:34.000Z</time>
      </trkpt>
      <trkpt lat="45.33103" lon="5.94406">
        <ele>245.46</ele>
        <time>2021-11-20T11:51:39.000Z</time>
      </trkpt>
      <trkpt lat="45.33116" lon="5.94442">
        <ele>246.82</ele>
        <time>2021-11-20T11:51:44.000Z</time>
      </trkpt>
      <trkpt lat="45.33123" lon="5.94484">
        <ele>246.9</ele>
        <time>2021-11-20T11:51:49.000Z</time>
      </trkpt>
      <trkpt lat="45.33132" lon="5.9451">
        <ele>245.56</ele>
        <time>2021-11-20T11:51:54.000Z</time>
      </trkpt>
      <trkpt lat="45.33141" lon="5.94547">
        <ele>248.06</ele>
        <time>2021-11-20T11:51:59.000Z</time>
      </trkpt>
      <trkpt lat="45.33155" lon="5.94582">
        <ele>249.57</ele>
        <time>2021-11-20T11:52:04.000Z</time>
      </trkpt>
      <trkpt lat="45.33166" lon="5.9462">
        <ele>246.26</ele>
        <time>2021-11-20T11:52:09.000Z</time>
      </trkpt>
      <trkpt lat="45.33176" lon="5.94656">
        <ele>243.32</ele>
        <time>2021-11-20T11:52:14.000Z</time>
      </trkpt>
      <trkpt lat="45.33189" lon="5.94687">
        <ele>241.47</ele>
        <time>2021-11-20T11:52:19.000Z</time>
      </trkpt>
      <trkpt lat="45.33201" lon="5.94726">
        <ele>243.4</ele>
        <time>2021-11-20T11:52:24.000Z</time>
      </trkpt>
      <trkpt lat="45.33217" lon="5.94758">
        <ele>242.6</ele>
        <time>2021-11-20T11:52:29.000Z</time>
      </trkpt>
      <trkpt lat="45.33241" lon="5.94783">
        <ele>240.79</ele>
        <time>2021-11-20T11:52:34.000Z</time>
      </trkpt>
      <trkpt lat="45.33266" lon="5.94808">
        <ele>239.04</ele>
        <time>2021-11-20T11:52:39.000Z</time>
      </trkpt>
      <trkpt lat="45.3329" lon="5.94833">
        <ele>240.58</ele>
        <time>2021-11-20T11:52:44.000Z</time>
      </trkpt>
      <trkpt lat="45.33311" lon="5.94857">
        <ele>240.49</ele>
        <time>2021-11-20T11:52:49.000Z</time>
      </trkpt>
      <trkpt lat="45.33331" lon="5.94883">
        <ele>236.82</ele>
        <time>2021-11-20T11:52:54.000Z</time>
      </trkpt>
      <trkpt lat="45.33358" lon="5.94907">
        <ele>235.51</ele>
        <time>2021-11-20T11:52:59.000Z</time>
      </trkpt>
      <trkpt lat="45.33382" lon="5.94928">
        <ele>237.54</ele>
        <time>2021-11-20T11:53:04.000Z</time>
      </trkpt>
      <trkpt lat="45.33403" lon="5.94951">
        <ele>237.36</ele>
        <time>2021-11-20T11:53:09.000Z</time>
      </trkpt>
      <trkpt lat="45.33421" lon="5.94979">
        <ele>236.32</ele>
        <time>2021-11-20T11:53:14.000Z</time>
      </trkpt>
      <trkpt lat="45.33433" lon="5.95007">
        <ele>239.28</ele>
        <time>2021-11-20T11:53:19.000Z</time>
      </trkpt>
      <trkpt lat="45.33441" lon="5.95028">
        <ele>236.24</ele>
        <time>2021-11-20T11:53:24.000Z</time>
      </trkpt>
      <trkpt lat="45.33447" lon="5.95045">
        <ele>236.9</ele>
        <time>2021-11-20T11:53:29.000Z</time>
      </trkpt>
      <trkpt lat="45.33461" lon="5.95076">
        <ele>241.86</ele>
        <time>2021-11-20T11:53:34.000Z</time>
      </trkpt>
      <trkpt lat="45.33476" lon="5.95106">
        <ele>240.46</ele>
        <time>2021-11-20T11:53:39.000Z</time>
      </trkpt>
      <trkpt lat="45.33494" lon="5.95131">
        <ele>241.43</ele>
        <time>2021-11-20T11:53:44.000Z</time>
      </trkpt>
      <trkpt lat="45.33511" lon="5.9516">
        <ele>239.24</ele>
        <time>2021-11-20T11:53:49.000Z</time>
      </trkpt>
      <trkpt lat="45.33526" lon="5.9519">
        <ele>240.4</ele>
        <time>2021-11-20T11:53:54.000Z</time>
      </trkpt>
      <trkpt lat="45.33544" lon="5.95217">
        <ele>240.16</ele>
        <time>2021-11-20T11:53:59.000Z</time>
      </trkpt>
      <trkpt lat="45.33566" lon="5.95243">
        <ele>239.84</ele>
        <time>2021-11-20T11:54:04.000Z</time>
      </trkpt>
      <trkpt lat="45.33586" lon="5.9527">
        <ele>238.8</ele>
        <time>2021-11-20T11:54:09.000Z</time>
      </trkpt>
      <trkpt lat="45.33605" lon="5.95304">
        <ele>234.55</ele>
        <time>2021-11-20T11:54:14.000Z</time>
      </trkpt>
      <trkpt lat="45.33618" lon="5.95332">
        <ele>236.98</ele>
        <time>2021-11-20T11:54:19.000Z</time>
      </trkpt>
      <trkpt lat="45.33635" lon="5.95362">
        <ele>236.41</ele>
        <time>2021-11-20T11:54:24.000Z</time>
      </trkpt>
      <trkpt lat="45.33654" lon="5.95389">
        <ele>237.49</ele>
        <time>2021-11-20T11:54:29.000Z</time>
      </trkpt>
      <trkpt lat="45.33673" lon="5.9542">
        <ele>241.98</ele>
        <time>2021-11-20T11:54:34.000Z</time>
      </trkpt>
      <trkpt lat="45.33691" lon="5.9545">
        <ele>242.14</ele>
        <time>2021-11-20T11:54:39.000Z</time>
      </trkpt>
      <trkpt lat="45.33707" lon="5.95476">
        <ele>241.93</ele>
        <time>2021-11-20T11:54:44.000Z</time>
      </trkpt>
      <trkpt lat="45.33725" lon="5.95505">
        <ele>240.63</ele>
        <time>2021-11-20T11:54:49.000Z</time>
      </trkpt>
      <trkpt lat="45.33749" lon="5.95536">
        <ele>238.53</ele>
        <time>2021-11-20T11:54:54.000Z</time>
      </trkpt>
      <trkpt lat="45.33762" lon="5.95576">
        <ele>239.45</ele>
        <time>2021-11-20T11:54:59.000Z</time>
      </trkpt>
      <trkpt lat="45.33777" lon="5.95611">
        <ele>234.82</ele>
        <time>2021-11-20T11:55:04.000Z</time>
      </trkpt>
      <trkpt lat="45.33796" lon="5.95634">
        <ele>237.93</ele>
        <time>2021-11-20T11:55:09.000Z</time>
      </trkpt>
      <trkpt lat="45.33818" lon="5.95657">
        <ele>238.06</ele>
        <time>2021-11-20T11:55:14.000Z</time>
      </trkpt>
      <trkpt lat="45.33839" lon="5.95679">
        <ele>238.94</ele>
        <time>2021-11-20T11:55:19.000Z</time>
      </trkpt>
      <trkpt lat="45.33857" lon="5.9571">
        <ele>238.89</ele>
        <time>2021-11-20T11:55:24.000Z</time>
      </trkpt>
      <trkpt lat="45.33879" lon="5.95741">
        <ele>237.94</ele>
        <time>2021-11-20T11:55:29.000Z</time>
      </trkpt>
      <trkpt lat="45.33903" lon="5.95766">
        <ele>238.4</ele>
        <time>2021-11-20T11:55:34.000Z</time>
      </trkpt>
      <trkpt lat="45.33928" lon="5.95783">
        <ele>236.23</ele>
        <time>2021-11-20T11:55:39.000Z</time>
      </trkpt>
      <trkpt lat="45.33958" lon="5.95799">
        <ele>236.89</ele>
        <time>2021-11-20T11:55:44.000Z</time>
      </trkpt>
      <trkpt lat="45.33988" lon="5.95815">
        <ele>237.08</ele>
        <time>2021-11-20T11:55:49.000Z</time>
      </trkpt>
      <trkpt lat="45.34016" lon="5.95829">
        <ele>237.05</ele>
        <time>2021-11-20T11:55:54.000Z</time>
      </trkpt>
      <trkpt lat="45.34046" lon="5.95841">
        <ele>231.91</ele>
        <time>2021-11-20T11:55:59.000Z</time>
      </trkpt>
      <trkpt lat="45.34078" lon="5.95854">
        <ele>232.7</ele>
        <time>2021-11-20T11:56:04.000Z</time>
      </trkpt>
      <trkpt lat="45.34109" lon="5.9587">
        <ele>227.57</ele>
        <time>2021-11-20T11:56:09.000Z</time>
      </trkpt>
      <trkpt lat="45.34138" lon="5.95887">
        <ele>228.56</ele>
        <time>2021-11-20T11:56:14.000Z</time>
      </trkpt>
      <trkpt lat="45.34167" lon="5.95905">
        <ele>227.78</ele>
        <time>2021-11-20T11:56:19.000Z</time>
      </trkpt>
      <trkpt lat="45.34193" lon="5.95929">
        <ele>233.95</ele>
        <time>2021-11-20T11:56:24.000Z</time>
      </trkpt>
      <trkpt lat="45.3422" lon="5.95952">
        <ele>232.26</ele>
        <time>2021-11-20T11:56:29.000Z</time>
      </trkpt>
      <trkpt lat="45.34248" lon="5.9596">
        <ele>232.61</ele>
        <time>2021-11-20T11:56:34.000Z</time>
      </trkpt>
      <trkpt lat="45.34275" lon="5.95972">
        <ele>231.98</ele>
        <time>2021-11-20T11:56:39.000Z</time>
      </trkpt>
      <trkpt lat="45.34302" lon="5.95985">
        <ele>228.48</ele>
        <time>2021-11-20T11:56:44.000Z</time>
      </trkpt>
      <trkpt lat="45.34324" lon="5.96003">
        <ele>231.38</ele>
        <time>2021-11-20T11:56:49.000Z</time>
      </trkpt>
      <trkpt lat="45.34349" lon="5.96027">
        <ele>230.36</ele>
        <time>2021-11-20T11:56:54.000Z</time>
      </trkpt>
      <trkpt lat="45.34375" lon="5.96048">
        <ele>230.27</ele>
        <time>2021-11-20T11:56:59.000Z</time>
      </trkpt>
      <trkpt lat="45.34398" lon="5.96067">
        <ele>230.91</ele>
        <time>2021-11-20T11:57:04.000Z</time>
      </trkpt>
      <trkpt lat="45.3442" lon="5.96077">
        <ele>234.89</ele>
        <time>2021-11-20T11:57:09.000Z</time>
      </trkpt>
      <trkpt lat="45.34436" lon="5.96083">
        <ele>233.86</ele>
        <time>2021-11-20T11:57:14.000Z</time>
      </trkpt>
      <trkpt lat="45.34445" lon="5.96089">
        <ele>232.49</ele>
        <time>2021-11-20T11:58:48.000Z</time>
      </trkpt>
      <trkpt lat="45.34457" lon="5.96099">
        <ele>233.99</ele>
        <time>2021-11-20T11:58:53.000Z</time>
      </trkpt>
      <trkpt lat="45.34474" lon="5.96113">
        <ele>233.11</ele>
        <time>2021-11-20T11:58:58.000Z</time>
      </trkpt>
      <trkpt lat="45.34494" lon="5.96129">
        <ele>230.65</ele>
        <time>2021-11-20T11:59:03.000Z</time>
      </trkpt>
      <trkpt lat="45.34515" lon="5.96141">
        <ele>229.79</ele>
        <time>2021-11-20T11:59:08.000Z</time>
      </trkpt>
      <trkpt lat="45.3454" lon="5.96155">
        <ele>230.8</ele>
        <time>2021-11-20T11:59:13.000Z</time>
      </trkpt>
      <trkpt lat="45.34562" lon="5.9617">
        <ele>233.48</ele>
        <time>2021-11-20T11:59:18.000Z</time>
      </trkpt>
      <trkpt lat="45.34587" lon="5.96186">
        <ele>234.73</ele>
        <time>2021-11-20T11:59:23.000Z</time>
      </trkpt>
      <trkpt lat="45.34611" lon="5.96201">
        <ele>233.16</ele>
        <time>2021-11-20T11:59:28.000Z</time>
      </trkpt>
      <trkpt lat="45.34637" lon="5.96217">
        <ele>237.7</ele>
        <time>2021-11-20T11:59:33.000Z</time>
      </trkpt>
      <trkpt lat="45.34662" lon="5.96231">
        <ele>236.22</ele>
        <time>2021-11-20T11:59:38.000Z</time>
      </trkpt>
      <trkpt lat="45.34686" lon="5.96245">
        <ele>236.99</ele>
        <time>2021-11-20T11:59:43.000Z</time>
      </trkpt>
      <trkpt lat="45.34713" lon="5.96264">
        <ele>237.79</ele>
        <time>2021-11-20T11:59:48.000Z</time>
      </trkpt>
      <trkpt lat="45.34742" lon="5.96284">
        <ele>233.99</ele>
        <time>2021-11-20T11:59:53.000Z</time>
      </trkpt>
      <trkpt lat="45.34768" lon="5.96303">
        <ele>234.63</ele>
        <time>2021-11-20T11:59:58.000Z</time>
      </trkpt>
      <trkpt lat="45.34797" lon="5.9632">
        <ele>236.74</ele>
        <time>2021-11-20T12:00:03.000Z</time>
      </trkpt>
      <trkpt lat="45.34826" lon="5.96337">
        <ele>236.85</ele>
        <time>2021-11-20T12:00:08.000Z</time>
      </trkpt>
      <trkpt lat="45.34853" lon="5.96333">
        <ele>239.5</ele>
        <time>2021-11-20T12:00:13.000Z</time>
      </trkpt>
      <trkpt lat="45.3488" lon="5.96318">
        <ele>235</ele>
        <time>2021-11-20T12:00:18.000Z</time>
      </trkpt>
      <trkpt lat="45.3491" lon="5.96308">
        <ele>235.73</ele>
        <time>2021-11-20T12:00:23.000Z</time>
      </trkpt>
      <trkpt lat="45.3494" lon="5.963">
        <ele>236.21</ele>
        <time>2021-11-20T12:00:28.000Z</time>
      </trkpt>
      <trkpt lat="45.3497" lon="5.9629">
        <ele>237.44</ele>
        <time>2021-11-20T12:00:33.000Z</time>
      </trkpt>
      <trkpt lat="45.35002" lon="5.9628">
        <ele>235.36</ele>
        <time>2021-11-20T12:00:38.000Z</time>
      </trkpt>
      <trkpt lat="45.35035" lon="5.96273">
        <ele>236.12</ele>
        <time>2021-11-20T12:00:43.000Z</time>
      </trkpt>
      <trkpt lat="45.35064" lon="5.96272">
        <ele>235.17</ele>
        <time>2021-11-20T12:00:48.000Z</time>
      </trkpt>
      <trkpt lat="45.35093" lon="5.96264">
        <ele>234.58</ele>
        <time>2021-11-20T12:00:53.000Z</time>
      </trkpt>
      <trkpt lat="45.35121" lon="5.96259">
        <ele>235.58</ele>
        <time>2021-11-20T12:00:58.000Z</time>
      </trkpt>
      <trkpt lat="45.35139" lon="5.96269">
        <ele>236.34</ele>
        <time>2021-11-20T12:01:03.000Z</time>
      </trkpt>
      <trkpt lat="45.35144" lon="5.96288">
        <ele>236.61</ele>
        <time>2021-11-20T12:01:08.000Z</time>
      </trkpt>
      <trkpt lat="45.35155" lon="5.96303">
        <ele>239.9</ele>
        <time>2021-11-20T12:01:13.000Z</time>
      </trkpt>
      <trkpt lat="45.3517" lon="5.96323">
        <ele>238.44</ele>
        <time>2021-11-20T12:01:18.000Z</time>
      </trkpt>
      <trkpt lat="45.3517" lon="5.96355">
        <ele>238.16</ele>
        <time>2021-11-20T12:01:23.000Z</time>
      </trkpt>
      <trkpt lat="45.35175" lon="5.9639">
        <ele>237.03</ele>
        <time>2021-11-20T12:01:28.000Z</time>
      </trkpt>
      <trkpt lat="45.35181" lon="5.96426">
        <ele>235.79</ele>
        <time>2021-11-20T12:01:33.000Z</time>
      </trkpt>
      <trkpt lat="45.35174" lon="5.96456">
        <ele>234.65</ele>
        <time>2021-11-20T12:01:38.000Z</time>
      </trkpt>
      <trkpt lat="45.35162" lon="5.96488">
        <ele>235.62</ele>
        <time>2021-11-20T12:01:43.000Z</time>
      </trkpt>
      <trkpt lat="45.35151" lon="5.96522">
        <ele>236.02</ele>
        <time>2021-11-20T12:01:48.000Z</time>
      </trkpt>
      <trkpt lat="45.35149" lon="5.96557">
        <ele>236.12</ele>
        <time>2021-11-20T12:01:53.000Z</time>
      </trkpt>
      <trkpt lat="45.35173" lon="5.96572">
        <ele>236.94</ele>
        <time>2021-11-20T12:01:58.000Z</time>
      </trkpt>
      <trkpt lat="45.35198" lon="5.96587">
        <ele>233.93</ele>
        <time>2021-11-20T12:02:03.000Z</time>
      </trkpt>
      <trkpt lat="45.35224" lon="5.96609">
        <ele>234.25</ele>
        <time>2021-11-20T12:02:08.000Z</time>
      </trkpt>
      <trkpt lat="45.35249" lon="5.96623">
        <ele>231.71</ele>
        <time>2021-11-20T12:02:13.000Z</time>
      </trkpt>
      <trkpt lat="45.35278" lon="5.9664">
        <ele>233.98</ele>
        <time>2021-11-20T12:02:18.000Z</time>
      </trkpt>
      <trkpt lat="45.35304" lon="5.96652">
        <ele>237.31</ele>
        <time>2021-11-20T12:02:23.000Z</time>
      </trkpt>
      <trkpt lat="45.35332" lon="5.9666">
        <ele>237.76</ele>
        <time>2021-11-20T12:02:28.000Z</time>
      </trkpt>
      <trkpt lat="45.35362" lon="5.96668">
        <ele>235.28</ele>
        <time>2021-11-20T12:02:33.000Z</time>
      </trkpt>
      <trkpt lat="45.35395" lon="5.96669">
        <ele>235.43</ele>
        <time>2021-11-20T12:02:38.000Z</time>
      </trkpt>
      <trkpt lat="45.35428" lon="5.96672">
        <ele>237.11</ele>
        <time>2021-11-20T12:02:43.000Z</time>
      </trkpt>
      <trkpt lat="45.35458" lon="5.96681">
        <ele>236.27</ele>
        <time>2021-11-20T12:02:48.000Z</time>
      </trkpt>
      <trkpt lat="45.35489" lon="5.96688">
        <ele>234.29</ele>
        <time>2021-11-20T12:02:53.000Z</time>
      </trkpt>
      <trkpt lat="45.35519" lon="5.96698">
        <ele>238.19</ele>
        <time>2021-11-20T12:02:58.000Z</time>
      </trkpt>
      <trkpt lat="45.35548" lon="5.96705">
        <ele>237.23</ele>
        <time>2021-11-20T12:03:03.000Z</time>
      </trkpt>
      <trkpt lat="45.3558" lon="5.96709">
        <ele>238.97</ele>
        <time>2021-11-20T12:03:08.000Z</time>
      </trkpt>
      <trkpt lat="45.3561" lon="5.96716">
        <ele>237.23</ele>
        <time>2021-11-20T12:03:13.000Z</time>
      </trkpt>
      <trkpt lat="45.35644" lon="5.96722">
        <ele>237.88</ele>
        <time>2021-11-20T12:03:18.000Z</time>
      </trkpt>
      <trkpt lat="45.35673" lon="5.96727">
        <ele>240.53</ele>
        <time>2021-11-20T12:03:23.000Z</time>
      </trkpt>
      <trkpt lat="45.35699" lon="5.96728">
        <ele>240.98</ele>
        <time>2021-11-20T12:03:28.000Z</time>
      </trkpt>
      <trkpt lat="45.3572" lon="5.9673">
        <ele>239.61</ele>
        <time>2021-11-20T12:03:33.000Z</time>
      </trkpt>
      <trkpt lat="45.35744" lon="5.96733">
        <ele>239.94</ele>
        <time>2021-11-20T12:03:38.000Z</time>
      </trkpt>
      <trkpt lat="45.35768" lon="5.9674">
        <ele>238.29</ele>
        <time>2021-11-20T12:03:43.000Z</time>
      </trkpt>
      <trkpt lat="45.35794" lon="5.96752">
        <ele>238.46</ele>
        <time>2021-11-20T12:03:48.000Z</time>
      </trkpt>
      <trkpt lat="45.35821" lon="5.96763">
        <ele>238.47</ele>
        <time>2021-11-20T12:03:53.000Z</time>
      </trkpt>
      <trkpt lat="45.3585" lon="5.96762">
        <ele>238.59</ele>
        <time>2021-11-20T12:03:58.000Z</time>
      </trkpt>
      <trkpt lat="45.35876" lon="5.9676">
        <ele>238.05</ele>
        <time>2021-11-20T12:04:03.000Z</time>
      </trkpt>
      <trkpt lat="45.35902" lon="5.96762">
        <ele>238.47</ele>
        <time>2021-11-20T12:04:08.000Z</time>
      </trkpt>
      <trkpt lat="45.3593" lon="5.96767">
        <ele>240.2</ele>
        <time>2021-11-20T12:04:13.000Z</time>
      </trkpt>
      <trkpt lat="45.35958" lon="5.9677">
        <ele>238.3</ele>
        <time>2021-11-20T12:04:18.000Z</time>
      </trkpt>
      <trkpt lat="45.35988" lon="5.96767">
        <ele>238.43</ele>
        <time>2021-11-20T12:04:23.000Z</time>
      </trkpt>
      <trkpt lat="45.36018" lon="5.96765">
        <ele>237.71</ele>
        <time>2021-11-20T12:04:28.000Z</time>
      </trkpt>
      <trkpt lat="45.36044" lon="5.96761">
        <ele>238.95</ele>
        <time>2021-11-20T12:04:33.000Z</time>
      </trkpt>
      <trkpt lat="45.36059" lon="5.96755">
        <ele>242.98</ele>
        <time>2021-11-20T12:04:38.000Z</time>
      </trkpt>
      <trkpt lat="45.36077" lon="5.96752">
        <ele>241.8</ele>
        <time>2021-11-20T12:04:43.000Z</time>
      </trkpt>
      <trkpt lat="45.36094" lon="5.96751">
        <ele>241.76</ele>
        <time>2021-11-20T12:04:48.000Z</time>
      </trkpt>
      <trkpt lat="45.36107" lon="5.96751">
        <ele>243.71</ele>
        <time>2021-11-20T12:04:53.000Z</time>
      </trkpt>
      <trkpt lat="45.36122" lon="5.96749">
        <ele>245.59</ele>
        <time>2021-11-20T12:04:58.000Z</time>
      </trkpt>
      <trkpt lat="45.36134" lon="5.96748">
        <ele>242.27</ele>
        <time>2021-11-20T12:05:03.000Z</time>
      </trkpt>
      <trkpt lat="45.36144" lon="5.96749">
        <ele>242.38</ele>
        <time>2021-11-20T12:05:08.000Z</time>
      </trkpt>
      <trkpt lat="45.36157" lon="5.96748">
        <ele>241.01</ele>
        <time>2021-11-20T12:05:13.000Z</time>
      </trkpt>
      <trkpt lat="45.36173" lon="5.96743">
        <ele>241.57</ele>
        <time>2021-11-20T12:05:18.000Z</time>
      </trkpt>
      <trkpt lat="45.3619" lon="5.9674">
        <ele>241.79</ele>
        <time>2021-11-20T12:05:23.000Z</time>
      </trkpt>
      <trkpt lat="45.36207" lon="5.96737">
        <ele>241.97</ele>
        <time>2021-11-20T12:05:28.000Z</time>
      </trkpt>
      <trkpt lat="45.36224" lon="5.96737">
        <ele>244.44</ele>
        <time>2021-11-20T12:05:33.000Z</time>
      </trkpt>
      <trkpt lat="45.3624" lon="5.9674">
        <ele>244.42</ele>
        <time>2021-11-20T12:05:38.000Z</time>
      </trkpt>
      <trkpt lat="45.36257" lon="5.96744">
        <ele>244.49</ele>
        <time>2021-11-20T12:05:43.000Z</time>
      </trkpt>
      <trkpt lat="45.36273" lon="5.96744">
        <ele>245.54</ele>
        <time>2021-11-20T12:05:48.000Z</time>
      </trkpt>
      <trkpt lat="45.36291" lon="5.96743">
        <ele>245.06</ele>
        <time>2021-11-20T12:05:53.000Z</time>
      </trkpt>
      <trkpt lat="45.36312" lon="5.96746">
        <ele>244</ele>
        <time>2021-11-20T12:05:58.000Z</time>
      </trkpt>
      <trkpt lat="45.36337" lon="5.9674">
        <ele>245.42</ele>
        <time>2021-11-20T12:06:03.000Z</time>
      </trkpt>
      <trkpt lat="45.3636" lon="5.9674">
        <ele>247.89</ele>
        <time>2021-11-20T12:06:08.000Z</time>
      </trkpt>
      <trkpt lat="45.36383" lon="5.96755">
        <ele>247.45</ele>
        <time>2021-11-20T12:06:13.000Z</time>
      </trkpt>
      <trkpt lat="45.36409" lon="5.96764">
        <ele>247.95</ele>
        <time>2021-11-20T12:06:18.000Z</time>
      </trkpt>
      <trkpt lat="45.36435" lon="5.96768">
        <ele>247.12</ele>
        <time>2021-11-20T12:06:23.000Z</time>
      </trkpt>
      <trkpt lat="45.36463" lon="5.96775">
        <ele>247.98</ele>
        <time>2021-11-20T12:06:28.000Z</time>
      </trkpt>
      <trkpt lat="45.36493" lon="5.96785">
        <ele>247.7</ele>
        <time>2021-11-20T12:06:33.000Z</time>
      </trkpt>
      <trkpt lat="45.36525" lon="5.96795">
        <ele>248.02</ele>
        <time>2021-11-20T12:06:38.000Z</time>
      </trkpt>
      <trkpt lat="45.36556" lon="5.96801">
        <ele>247.44</ele>
        <time>2021-11-20T12:06:43.000Z</time>
      </trkpt>
      <trkpt lat="45.3659" lon="5.96806">
        <ele>248.36</ele>
        <time>2021-11-20T12:06:48.000Z</time>
      </trkpt>
      <trkpt lat="45.36621" lon="5.96815">
        <ele>250.06</ele>
        <time>2021-11-20T12:06:53.000Z</time>
      </trkpt>
      <trkpt lat="45.36648" lon="5.96825">
        <ele>247.51</ele>
        <time>2021-11-20T12:06:58.000Z</time>
      </trkpt>
      <trkpt lat="45.36674" lon="5.9683">
        <ele>247.47</ele>
        <time>2021-11-20T12:07:03.000Z</time>
      </trkpt>
      <trkpt lat="45.36699" lon="5.96839">
        <ele>246.82</ele>
        <time>2021-11-20T12:07:08.000Z</time>
      </trkpt>
      <trkpt lat="45.36724" lon="5.96856">
        <ele>248.03</ele>
        <time>2021-11-20T12:07:13.000Z</time>
      </trkpt>
      <trkpt lat="45.36746" lon="5.96873">
        <ele>246.97</ele>
        <time>2021-11-20T12:07:18.000Z</time>
      </trkpt>
      <trkpt lat="45.36769" lon="5.96888">
        <ele>247.94</ele>
        <time>2021-11-20T12:07:23.000Z</time>
      </trkpt>
      <trkpt lat="45.36796" lon="5.96905">
        <ele>246.62</ele>
        <time>2021-11-20T12:07:28.000Z</time>
      </trkpt>
      <trkpt lat="45.36826" lon="5.96923">
        <ele>245.06</ele>
        <time>2021-11-20T12:07:33.000Z</time>
      </trkpt>
      <trkpt lat="45.36855" lon="5.96942">
        <ele>247.96</ele>
        <time>2021-11-20T12:07:38.000Z</time>
      </trkpt>
      <trkpt lat="45.36881" lon="5.9696">
        <ele>250.63</ele>
        <time>2021-11-20T12:07:43.000Z</time>
      </trkpt>
      <trkpt lat="45.36906" lon="5.96979">
        <ele>252.13</ele>
        <time>2021-11-20T12:07:48.000Z</time>
      </trkpt>
      <trkpt lat="45.36923" lon="5.96989">
        <ele>248.94</ele>
        <time>2021-11-20T12:07:53.000Z</time>
      </trkpt>
      <trkpt lat="45.36913" lon="5.96983">
        <ele>244.21</ele>
        <time>2021-11-20T12:08:28.000Z</time>
      </trkpt>
      <trkpt lat="45.36898" lon="5.96973">
        <ele>240.55</ele>
        <time>2021-11-20T12:08:33.000Z</time>
      </trkpt>
      <trkpt lat="45.36877" lon="5.96958">
        <ele>238.81</ele>
        <time>2021-11-20T12:08:38.000Z</time>
      </trkpt>
      <trkpt lat="45.36858" lon="5.96947">
        <ele>238.51</ele>
        <time>2021-11-20T12:08:43.000Z</time>
      </trkpt>
      <trkpt lat="45.36832" lon="5.9693">
        <ele>243.65</ele>
        <time>2021-11-20T12:08:48.000Z</time>
      </trkpt>
      <trkpt lat="45.36811" lon="5.96918">
        <ele>248.86</ele>
        <time>2021-11-20T12:08:53.000Z</time>
      </trkpt>
      <trkpt lat="45.3679" lon="5.96902">
        <ele>248.86</ele>
        <time>2021-11-20T12:08:58.000Z</time>
      </trkpt>
      <trkpt lat="45.3677" lon="5.96888">
        <ele>249.32</ele>
        <time>2021-11-20T12:09:03.000Z</time>
      </trkpt>
      <trkpt lat="45.36756" lon="5.96875">
        <ele>246.7</ele>
        <time>2021-11-20T12:09:08.000Z</time>
      </trkpt>
      <trkpt lat="45.36746" lon="5.96861">
        <ele>247.68</ele>
        <time>2021-11-20T12:09:13.000Z</time>
      </trkpt>
      <trkpt lat="45.36748" lon="5.96839">
        <ele>245.97</ele>
        <time>2021-11-20T12:09:18.000Z</time>
      </trkpt>
      <trkpt lat="45.36752" lon="5.96817">
        <ele>243.23</ele>
        <time>2021-11-20T12:09:23.000Z</time>
      </trkpt>
      <trkpt lat="45.36751" lon="5.9678">
        <ele>245.02</ele>
        <time>2021-11-20T12:09:28.000Z</time>
      </trkpt>
      <trkpt lat="45.36756" lon="5.96766">
        <ele>247.47</ele>
        <time>2021-11-20T12:09:33.000Z</time>
      </trkpt>
      <trkpt lat="45.36763" lon="5.96748">
        <ele>246.8</ele>
        <time>2021-11-20T12:09:38.000Z</time>
      </trkpt>
      <trkpt lat="45.36769" lon="5.96722">
        <ele>247.24</ele>
        <time>2021-11-20T12:09:43.000Z</time>
      </trkpt>
      <trkpt lat="45.36776" lon="5.96698">
        <ele>248.89</ele>
        <time>2021-11-20T12:09:48.000Z</time>
      </trkpt>
      <trkpt lat="45.36786" lon="5.96682">
        <ele>253.37</ele>
        <time>2021-11-20T12:09:53.000Z</time>
      </trkpt>
      <trkpt lat="45.36814" lon="5.96668">
        <ele>253.41</ele>
        <time>2021-11-20T12:09:58.000Z</time>
      </trkpt>
      <trkpt lat="45.36825" lon="5.96664">
        <ele>255.4</ele>
        <time>2021-11-20T12:10:05.000Z</time>
      </trkpt>
      <trkpt lat="45.36836" lon="5.96651">
        <ele>256.59</ele>
        <time>2021-11-20T12:10:10.000Z</time>
      </trkpt>
      <trkpt lat="45.36853" lon="5.9664">
        <ele>255.57</ele>
        <time>2021-11-20T12:10:15.000Z</time>
      </trkpt>
      <trkpt lat="45.36867" lon="5.9663">
        <ele>254.74</ele>
        <time>2021-11-20T12:10:20.000Z</time>
      </trkpt>
      <trkpt lat="45.36882" lon="5.9662">
        <ele>252.04</ele>
        <time>2021-11-20T12:10:25.000Z</time>
      </trkpt>
      <trkpt lat="45.369" lon="5.96602">
        <ele>253.46</ele>
        <time>2021-11-20T12:10:30.000Z</time>
      </trkpt>
      <trkpt lat="45.36917" lon="5.96586">
        <ele>253.46</ele>
        <time>2021-11-20T12:10:35.000Z</time>
      </trkpt>
      <trkpt lat="45.36935" lon="5.96571">
        <ele>251.71</ele>
        <time>2021-11-20T12:10:40.000Z</time>
      </trkpt>
      <trkpt lat="45.36953" lon="5.96554">
        <ele>254.65</ele>
        <time>2021-11-20T12:10:45.000Z</time>
      </trkpt>
      <trkpt lat="45.36972" lon="5.96538">
        <ele>259.44</ele>
        <time>2021-11-20T12:10:50.000Z</time>
      </trkpt>
      <trkpt lat="45.36988" lon="5.96525">
        <ele>262.66</ele>
        <time>2021-11-20T12:10:55.000Z</time>
      </trkpt>
      <trkpt lat="45.37004" lon="5.96513">
        <ele>265.56</ele>
        <time>2021-11-20T12:11:00.000Z</time>
      </trkpt>
      <trkpt lat="45.37023" lon="5.96502">
        <ele>265.94</ele>
        <time>2021-11-20T12:11:05.000Z</time>
      </trkpt>
      <trkpt lat="45.3704" lon="5.9649">
        <ele>267.15</ele>
        <time>2021-11-20T12:11:10.000Z</time>
      </trkpt>
      <trkpt lat="45.37056" lon="5.96478">
        <ele>269.33</ele>
        <time>2021-11-20T12:11:15.000Z</time>
      </trkpt>
      <trkpt lat="45.37075" lon="5.96469">
        <ele>269.33</ele>
        <time>2021-11-20T12:11:20.000Z</time>
      </trkpt>
      <trkpt lat="45.37095" lon="5.9646">
        <ele>268.07</ele>
        <time>2021-11-20T12:11:25.000Z</time>
      </trkpt>
      <trkpt lat="45.37113" lon="5.9645">
        <ele>268.98</ele>
        <time>2021-11-20T12:11:30.000Z</time>
      </trkpt>
      <trkpt lat="45.37132" lon="5.96437">
        <ele>270.12</ele>
        <time>2021-11-20T12:11:35.000Z</time>
      </trkpt>
      <trkpt lat="45.37152" lon="5.96425">
        <ele>269.41</ele>
        <time>2021-11-20T12:11:40.000Z</time>
      </trkpt>
      <trkpt lat="45.37171" lon="5.96415">
        <ele>270.95</ele>
        <time>2021-11-20T12:11:45.000Z</time>
      </trkpt>
      <trkpt lat="45.37191" lon="5.96408">
        <ele>271.36</ele>
        <time>2021-11-20T12:11:50.000Z</time>
      </trkpt>
      <trkpt lat="45.3721" lon="5.96399">
        <ele>273.82</ele>
        <time>2021-11-20T12:11:55.000Z</time>
      </trkpt>
      <trkpt lat="45.37228" lon="5.96388">
        <ele>274.23</ele>
        <time>2021-11-20T12:12:00.000Z</time>
      </trkpt>
      <trkpt lat="45.37242" lon="5.9637">
        <ele>272.97</ele>
        <time>2021-11-20T12:12:05.000Z</time>
      </trkpt>
      <trkpt lat="45.37253" lon="5.96352">
        <ele>272.11</ele>
        <time>2021-11-20T12:12:10.000Z</time>
      </trkpt>
      <trkpt lat="45.37259" lon="5.96331">
        <ele>274.14</ele>
        <time>2021-11-20T12:12:15.000Z</time>
      </trkpt>
      <trkpt lat="45.37265" lon="5.96312">
        <ele>274.15</ele>
        <time>2021-11-20T12:12:20.000Z</time>
      </trkpt>
      <trkpt lat="45.37266" lon="5.96289">
        <ele>278.82</ele>
        <time>2021-11-20T12:12:25.000Z</time>
      </trkpt>
      <trkpt lat="45.3727" lon="5.96268">
        <ele>278.06</ele>
        <time>2021-11-20T12:12:30.000Z</time>
      </trkpt>
      <trkpt lat="45.37269" lon="5.96246">
        <ele>276.49</ele>
        <time>2021-11-20T12:12:35.000Z</time>
      </trkpt>
      <trkpt lat="45.37263" lon="5.96223">
        <ele>277.48</ele>
        <time>2021-11-20T12:12:40.000Z</time>
      </trkpt>
      <trkpt lat="45.37259" lon="5.96201">
        <ele>278.19</ele>
        <time>2021-11-20T12:12:45.000Z</time>
      </trkpt>
      <trkpt lat="45.3726" lon="5.96177">
        <ele>279.95</ele>
        <time>2021-11-20T12:12:50.000Z</time>
      </trkpt>
      <trkpt lat="45.37263" lon="5.9615">
        <ele>281.31</ele>
        <time>2021-11-20T12:12:55.000Z</time>
      </trkpt>
      <trkpt lat="45.37266" lon="5.96126">
        <ele>281.49</ele>
        <time>2021-11-20T12:13:00.000Z</time>
      </trkpt>
      <trkpt lat="45.37269" lon="5.96107">
        <ele>280.74</ele>
        <time>2021-11-20T12:13:05.000Z</time>
      </trkpt>
      <trkpt lat="45.37259" lon="5.96098">
        <ele>281.01</ele>
        <time>2021-11-20T12:13:10.000Z</time>
      </trkpt>
      <trkpt lat="45.37267" lon="5.96107">
        <ele>279.92</ele>
        <time>2021-11-20T12:13:44.000Z</time>
      </trkpt>
      <trkpt lat="45.3727" lon="5.9609">
        <ele>288.54</ele>
        <time>2021-11-20T12:14:14.000Z</time>
      </trkpt>
      <trkpt lat="45.37278" lon="5.96071">
        <ele>286.66</ele>
        <time>2021-11-20T12:14:19.000Z</time>
      </trkpt>
      <trkpt lat="45.37282" lon="5.96049">
        <ele>286.55</ele>
        <time>2021-11-20T12:14:24.000Z</time>
      </trkpt>
      <trkpt lat="45.37285" lon="5.96021">
        <ele>284.21</ele>
        <time>2021-11-20T12:14:29.000Z</time>
      </trkpt>
      <trkpt lat="45.37285" lon="5.95992">
        <ele>283.39</ele>
        <time>2021-11-20T12:14:34.000Z</time>
      </trkpt>
      <trkpt lat="45.37286" lon="5.95963">
        <ele>286.82</ele>
        <time>2021-11-20T12:14:39.000Z</time>
      </trkpt>
      <trkpt lat="45.37295" lon="5.95937">
        <ele>286.48</ele>
        <time>2021-11-20T12:14:44.000Z</time>
      </trkpt>
      <trkpt lat="45.37302" lon="5.95911">
        <ele>285.84</ele>
        <time>2021-11-20T12:14:49.000Z</time>
      </trkpt>
      <trkpt lat="45.37305" lon="5.95895">
        <ele>287.79</ele>
        <time>2021-11-20T12:14:54.000Z</time>
      </trkpt>
      <trkpt lat="45.37302" lon="5.95908">
        <ele>284.49</ele>
        <time>2021-11-20T12:15:05.000Z</time>
      </trkpt>
      <trkpt lat="45.37294" lon="5.95937">
        <ele>284.87</ele>
        <time>2021-11-20T12:15:10.000Z</time>
      </trkpt>
      <trkpt lat="45.37304" lon="5.95956">
        <ele>283</ele>
        <time>2021-11-20T12:15:15.000Z</time>
      </trkpt>
      <trkpt lat="45.37324" lon="5.95968">
        <ele>283.54</ele>
        <time>2021-11-20T12:15:20.000Z</time>
      </trkpt>
      <trkpt lat="45.37341" lon="5.9598">
        <ele>282.56</ele>
        <time>2021-11-20T12:15:25.000Z</time>
      </trkpt>
      <trkpt lat="45.37359" lon="5.95993">
        <ele>286.56</ele>
        <time>2021-11-20T12:15:30.000Z</time>
      </trkpt>
      <trkpt lat="45.37377" lon="5.96005">
        <ele>289.75</ele>
        <time>2021-11-20T12:15:35.000Z</time>
      </trkpt>
      <trkpt lat="45.37396" lon="5.96014">
        <ele>288.45</ele>
        <time>2021-11-20T12:15:40.000Z</time>
      </trkpt>
      <trkpt lat="45.37418" lon="5.96028">
        <ele>285.68</ele>
        <time>2021-11-20T12:15:45.000Z</time>
      </trkpt>
      <trkpt lat="45.3744" lon="5.96046">
        <ele>290.59</ele>
        <time>2021-11-20T12:15:50.000Z</time>
      </trkpt>
      <trkpt lat="45.3747" lon="5.96066">
        <ele>290.36</ele>
        <time>2021-11-20T12:15:55.000Z</time>
      </trkpt>
      <trkpt lat="45.37497" lon="5.96078">
        <ele>286.29</ele>
        <time>2021-11-20T12:16:00.000Z</time>
      </trkpt>
      <trkpt lat="45.37525" lon="5.96083">
        <ele>283.52</ele>
        <time>2021-11-20T12:16:05.000Z</time>
      </trkpt>
      <trkpt lat="45.3755" lon="5.96086">
        <ele>282.9</ele>
        <time>2021-11-20T12:16:10.000Z</time>
      </trkpt>
      <trkpt lat="45.3757" lon="5.96072">
        <ele>282.65</ele>
        <time>2021-11-20T12:16:15.000Z</time>
      </trkpt>
      <trkpt lat="45.3759" lon="5.96049">
        <ele>281.49</ele>
        <time>2021-11-20T12:16:20.000Z</time>
      </trkpt>
      <trkpt lat="45.37605" lon="5.96024">
        <ele>280.71</ele>
        <time>2021-11-20T12:16:25.000Z</time>
      </trkpt>
      <trkpt lat="45.37614" lon="5.95996">
        <ele>282.34</ele>
        <time>2021-11-20T12:16:30.000Z</time>
      </trkpt>
      <trkpt lat="45.37625" lon="5.95964">
        <ele>284.88</ele>
        <time>2021-11-20T12:16:35.000Z</time>
      </trkpt>
      <trkpt lat="45.37637" lon="5.95937">
        <ele>283.65</ele>
        <time>2021-11-20T12:16:40.000Z</time>
      </trkpt>
      <trkpt lat="45.37645" lon="5.95904">
        <ele>284.64</ele>
        <time>2021-11-20T12:16:45.000Z</time>
      </trkpt>
      <trkpt lat="45.37657" lon="5.95868">
        <ele>283.53</ele>
        <time>2021-11-20T12:16:50.000Z</time>
      </trkpt>
      <trkpt lat="45.37675" lon="5.95829">
        <ele>280.95</ele>
        <time>2021-11-20T12:16:55.000Z</time>
      </trkpt>
      <trkpt lat="45.37709" lon="5.9581">
        <ele>279.53</ele>
        <time>2021-11-20T12:17:00.000Z</time>
      </trkpt>
      <trkpt lat="45.37742" lon="5.95797">
        <ele>282.23</ele>
        <time>2021-11-20T12:17:05.000Z</time>
      </trkpt>
      <trkpt lat="45.37761" lon="5.95775">
        <ele>283.61</ele>
        <time>2021-11-20T12:17:10.000Z</time>
      </trkpt>
      <trkpt lat="45.37772" lon="5.95741">
        <ele>284.84</ele>
        <time>2021-11-20T12:17:15.000Z</time>
      </trkpt>
      <trkpt lat="45.37783" lon="5.95713">
        <ele>284.57</ele>
        <time>2021-11-20T12:17:20.000Z</time>
      </trkpt>
      <trkpt lat="45.37797" lon="5.95681">
        <ele>284.9</ele>
        <time>2021-11-20T12:17:25.000Z</time>
      </trkpt>
      <trkpt lat="45.37808" lon="5.9565">
        <ele>283.06</ele>
        <time>2021-11-20T12:17:30.000Z</time>
      </trkpt>
      <trkpt lat="45.37827" lon="5.95629">
        <ele>280.73</ele>
        <time>2021-11-20T12:17:35.000Z</time>
      </trkpt>
      <trkpt lat="45.37847" lon="5.95626">
        <ele>283.13</ele>
        <time>2021-11-20T12:17:40.000Z</time>
      </trkpt>
      <trkpt lat="45.37865" lon="5.95626">
        <ele>283.55</ele>
        <time>2021-11-20T12:17:45.000Z</time>
      </trkpt>
      <trkpt lat="45.37885" lon="5.95629">
        <ele>285.82</ele>
        <time>2021-11-20T12:17:50.000Z</time>
      </trkpt>
      <trkpt lat="45.37903" lon="5.95629">
        <ele>286.24</ele>
        <time>2021-11-20T12:17:55.000Z</time>
      </trkpt>
      <trkpt lat="45.37924" lon="5.95622">
        <ele>286.9</ele>
        <time>2021-11-20T12:18:00.000Z</time>
      </trkpt>
      <trkpt lat="45.37945" lon="5.95622">
        <ele>285.82</ele>
        <time>2021-11-20T12:18:05.000Z</time>
      </trkpt>
      <trkpt lat="45.37964" lon="5.95626">
        <ele>286.53</ele>
        <time>2021-11-20T12:18:10.000Z</time>
      </trkpt>
      <trkpt lat="45.37985" lon="5.95636">
        <ele>290.22</ele>
        <time>2021-11-20T12:18:15.000Z</time>
      </trkpt>
      <trkpt lat="45.38006" lon="5.95636">
        <ele>294.08</ele>
        <time>2021-11-20T12:18:20.000Z</time>
      </trkpt>
      <trkpt lat="45.38033" lon="5.95636">
        <ele>300.36</ele>
        <time>2021-11-20T12:18:25.000Z</time>
      </trkpt>
      <trkpt lat="45.38054" lon="5.95631">
        <ele>299.74</ele>
        <time>2021-11-20T12:18:30.000Z</time>
      </trkpt>
      <trkpt lat="45.38072" lon="5.95632">
        <ele>296.75</ele>
        <time>2021-11-20T12:18:35.000Z</time>
      </trkpt>
      <trkpt lat="45.38091" lon="5.9563">
        <ele>298.73</ele>
        <time>2021-11-20T12:18:40.000Z</time>
      </trkpt>
      <trkpt lat="45.38107" lon="5.95629">
        <ele>298.29</ele>
        <time>2021-11-20T12:18:45.000Z</time>
      </trkpt>
      <trkpt lat="45.38125" lon="5.95626">
        <ele>293.04</ele>
        <time>2021-11-20T12:18:50.000Z</time>
      </trkpt>
      <trkpt lat="45.38145" lon="5.95617">
        <ele>295.46</ele>
        <time>2021-11-20T12:18:55.000Z</time>
      </trkpt>
      <trkpt lat="45.38166" lon="5.95612">
        <ele>302.54</ele>
        <time>2021-11-20T12:19:00.000Z</time>
      </trkpt>
      <trkpt lat="45.38185" lon="5.95612">
        <ele>305.39</ele>
        <time>2021-11-20T12:19:05.000Z</time>
      </trkpt>
      <trkpt lat="45.38203" lon="5.9561">
        <ele>308.61</ele>
        <time>2021-11-20T12:19:10.000Z</time>
      </trkpt>
      <trkpt lat="45.38222" lon="5.95606">
        <ele>305.09</ele>
        <time>2021-11-20T12:19:15.000Z</time>
      </trkpt>
      <trkpt lat="45.38239" lon="5.95602">
        <ele>309.2</ele>
        <time>2021-11-20T12:19:20.000Z</time>
      </trkpt>
      <trkpt lat="45.38255" lon="5.95592">
        <ele>313.41</ele>
        <time>2021-11-20T12:19:25.000Z</time>
      </trkpt>
      <trkpt lat="45.3827" lon="5.9558">
        <ele>314.76</ele>
        <time>2021-11-20T12:19:30.000Z</time>
      </trkpt>
      <trkpt lat="45.38287" lon="5.95569">
        <ele>319.25</ele>
        <time>2021-11-20T12:19:35.000Z</time>
      </trkpt>
      <trkpt lat="45.38304" lon="5.95558">
        <ele>318.92</ele>
        <time>2021-11-20T12:19:40.000Z</time>
      </trkpt>
      <trkpt lat="45.38323" lon="5.95546">
        <ele>321.11</ele>
        <time>2021-11-20T12:19:45.000Z</time>
      </trkpt>
      <trkpt lat="45.38336" lon="5.95533">
        <ele>321.68</ele>
        <time>2021-11-20T12:19:50.000Z</time>
      </trkpt>
      <trkpt lat="45.38346" lon="5.95536">
        <ele>322.54</ele>
        <time>2021-11-20T12:19:57.000Z</time>
      </trkpt>
      <trkpt lat="45.38354" lon="5.95555">
        <ele>320.27</ele>
        <time>2021-11-20T12:20:02.000Z</time>
      </trkpt>
      <trkpt lat="45.38361" lon="5.95575">
        <ele>322.32</ele>
        <time>2021-11-20T12:20:07.000Z</time>
      </trkpt>
      <trkpt lat="45.38363" lon="5.95597">
        <ele>323.83</ele>
        <time>2021-11-20T12:20:12.000Z</time>
      </trkpt>
      <trkpt lat="45.38364" lon="5.95621">
        <ele>329.54</ele>
        <time>2021-11-20T12:20:17.000Z</time>
      </trkpt>
      <trkpt lat="45.38368" lon="5.95645">
        <ele>332.5</ele>
        <time>2021-11-20T12:20:22.000Z</time>
      </trkpt>
      <trkpt lat="45.38386" lon="5.95657">
        <ele>335.6</ele>
        <time>2021-11-20T12:20:27.000Z</time>
      </trkpt>
      <trkpt lat="45.38401" lon="5.95662">
        <ele>337.61</ele>
        <time>2021-11-20T12:20:32.000Z</time>
      </trkpt>
      <trkpt lat="45.38415" lon="5.95665">
        <ele>338</ele>
        <time>2021-11-20T12:20:37.000Z</time>
      </trkpt>
      <trkpt lat="45.38432" lon="5.9567">
        <ele>333.4</ele>
        <time>2021-11-20T12:20:42.000Z</time>
      </trkpt>
      <trkpt lat="45.38449" lon="5.95676">
        <ele>335.67</ele>
        <time>2021-11-20T12:20:47.000Z</time>
      </trkpt>
      <trkpt lat="45.38466" lon="5.95683">
        <ele>336.2</ele>
        <time>2021-11-20T12:20:52.000Z</time>
      </trkpt>
      <trkpt lat="45.38484" lon="5.95688">
        <ele>337.65</ele>
        <time>2021-11-20T12:20:57.000Z</time>
      </trkpt>
      <trkpt lat="45.38503" lon="5.95694">
        <ele>343.5</ele>
        <time>2021-11-20T12:21:02.000Z</time>
      </trkpt>
      <trkpt lat="45.38526" lon="5.957">
        <ele>342.27</ele>
        <time>2021-11-20T12:21:07.000Z</time>
      </trkpt>
      <trkpt lat="45.38544" lon="5.9571">
        <ele>339.44</ele>
        <time>2021-11-20T12:21:12.000Z</time>
      </trkpt>
      <trkpt lat="45.38559" lon="5.95714">
        <ele>340.51</ele>
        <time>2021-11-20T12:21:17.000Z</time>
      </trkpt>
      <trkpt lat="45.38572" lon="5.95715">
        <ele>346.02</ele>
        <time>2021-11-20T12:21:22.000Z</time>
      </trkpt>
      <trkpt lat="45.38587" lon="5.95716">
        <ele>347.33</ele>
        <time>2021-11-20T12:21:27.000Z</time>
      </trkpt>
      <trkpt lat="45.38601" lon="5.95704">
        <ele>349.3</ele>
        <time>2021-11-20T12:21:32.000Z</time>
      </trkpt>
      <trkpt lat="45.38598" lon="5.95681">
        <ele>351.9</ele>
        <time>2021-11-20T12:21:37.000Z</time>
      </trkpt>
      <trkpt lat="45.38593" lon="5.95657">
        <ele>355.99</ele>
        <time>2021-11-20T12:21:42.000Z</time>
      </trkpt>
      <trkpt lat="45.38584" lon="5.95635">
        <ele>355.61</ele>
        <time>2021-11-20T12:21:47.000Z</time>
      </trkpt>
      <trkpt lat="45.38574" lon="5.95616">
        <ele>360.15</ele>
        <time>2021-11-20T12:21:52.000Z</time>
      </trkpt>
      <trkpt lat="45.38561" lon="5.95595">
        <ele>363.82</ele>
        <time>2021-11-20T12:21:57.000Z</time>
      </trkpt>
      <trkpt lat="45.38557" lon="5.95584">
        <ele>367.85</ele>
        <time>2021-11-20T12:22:08.000Z</time>
      </trkpt>
      <trkpt lat="45.38558" lon="5.95567">
        <ele>374.56</ele>
        <time>2021-11-20T12:23:20.000Z</time>
      </trkpt>
      <trkpt lat="45.38563" lon="5.95547">
        <ele>373.08</ele>
        <time>2021-11-20T12:23:25.000Z</time>
      </trkpt>
      <trkpt lat="45.38571" lon="5.95535">
        <ele>369.74</ele>
        <time>2021-11-20T12:23:30.000Z</time>
      </trkpt>
      <trkpt lat="45.38577" lon="5.95515">
        <ele>373.64</ele>
        <time>2021-11-20T12:23:35.000Z</time>
      </trkpt>
      <trkpt lat="45.38577" lon="5.95488">
        <ele>374.89</ele>
        <time>2021-11-20T12:23:40.000Z</time>
      </trkpt>
      <trkpt lat="45.38588" lon="5.95464">
        <ele>374.73</ele>
        <time>2021-11-20T12:23:45.000Z</time>
      </trkpt>
      <trkpt lat="45.38596" lon="5.95451">
        <ele>376.7</ele>
        <time>2021-11-20T12:23:50.000Z</time>
      </trkpt>
      <trkpt lat="45.38608" lon="5.95437">
        <ele>373.81</ele>
        <time>2021-11-20T12:23:55.000Z</time>
      </trkpt>
      <trkpt lat="45.38621" lon="5.95411">
        <ele>374.56</ele>
        <time>2021-11-20T12:24:00.000Z</time>
      </trkpt>
      <trkpt lat="45.38636" lon="5.95382">
        <ele>375.23</ele>
        <time>2021-11-20T12:24:05.000Z</time>
      </trkpt>
      <trkpt lat="45.38654" lon="5.95367">
        <ele>376.67</ele>
        <time>2021-11-20T12:24:10.000Z</time>
      </trkpt>
      <trkpt lat="45.38668" lon="5.95366">
        <ele>376.87</ele>
        <time>2021-11-20T12:24:15.000Z</time>
      </trkpt>
      <trkpt lat="45.38671" lon="5.95389">
        <ele>378.65</ele>
        <time>2021-11-20T12:24:20.000Z</time>
      </trkpt>
      <trkpt lat="45.38661" lon="5.95409">
        <ele>383.85</ele>
        <time>2021-11-20T12:24:25.000Z</time>
      </trkpt>
      <trkpt lat="45.3867" lon="5.95418">
        <ele>384.95</ele>
        <time>2021-11-20T12:24:30.000Z</time>
      </trkpt>
      <trkpt lat="45.38683" lon="5.95422">
        <ele>385.17</ele>
        <time>2021-11-20T12:24:35.000Z</time>
      </trkpt>
      <trkpt lat="45.38701" lon="5.95447">
        <ele>383.09</ele>
        <time>2021-11-20T12:24:40.000Z</time>
      </trkpt>
      <trkpt lat="45.38712" lon="5.95467">
        <ele>382.09</ele>
        <time>2021-11-20T12:24:45.000Z</time>
      </trkpt>
      <trkpt lat="45.38727" lon="5.9548">
        <ele>385.27</ele>
        <time>2021-11-20T12:24:50.000Z</time>
      </trkpt>
      <trkpt lat="45.38739" lon="5.95482">
        <ele>390.05</ele>
        <time>2021-11-20T12:25:02.000Z</time>
      </trkpt>
      <trkpt lat="45.38765" lon="5.95479">
        <ele>388.39</ele>
        <time>2021-11-20T12:25:07.000Z</time>
      </trkpt>
      <trkpt lat="45.38753" lon="5.95469">
        <ele>389.06</ele>
        <time>2021-11-20T12:25:13.000Z</time>
      </trkpt>
      <trkpt lat="45.38736" lon="5.95469">
        <ele>392.3</ele>
        <time>2021-11-20T12:25:18.000Z</time>
      </trkpt>
      <trkpt lat="45.38744" lon="5.95457">
        <ele>398.98</ele>
        <time>2021-11-20T12:25:25.000Z</time>
      </trkpt>
      <trkpt lat="45.38759" lon="5.9545">
        <ele>399.57</ele>
        <time>2021-11-20T12:25:30.000Z</time>
      </trkpt>
      <trkpt lat="45.38773" lon="5.95443">
        <ele>398.73</ele>
        <time>2021-11-20T12:25:35.000Z</time>
      </trkpt>
      <trkpt lat="45.38787" lon="5.95431">
        <ele>401.81</ele>
        <time>2021-11-20T12:25:40.000Z</time>
      </trkpt>
      <trkpt lat="45.38796" lon="5.9541">
        <ele>403.13</ele>
        <time>2021-11-20T12:25:45.000Z</time>
      </trkpt>
      <trkpt lat="45.38801" lon="5.95386">
        <ele>404.31</ele>
        <time>2021-11-20T12:25:50.000Z</time>
      </trkpt>
      <trkpt lat="45.38804" lon="5.95359">
        <ele>408.6</ele>
        <time>2021-11-20T12:25:55.000Z</time>
      </trkpt>
      <trkpt lat="45.38813" lon="5.95336">
        <ele>403.31</ele>
        <time>2021-11-20T12:26:00.000Z</time>
      </trkpt>
      <trkpt lat="45.38817" lon="5.95315">
        <ele>407.95</ele>
        <time>2021-11-20T12:26:05.000Z</time>
      </trkpt>
      <trkpt lat="45.38815" lon="5.95292">
        <ele>408.63</ele>
        <time>2021-11-20T12:26:10.000Z</time>
      </trkpt>
      <trkpt lat="45.38804" lon="5.95272">
        <ele>412.33</ele>
        <time>2021-11-20T12:26:15.000Z</time>
      </trkpt>
      <trkpt lat="45.38795" lon="5.9525">
        <ele>415.78</ele>
        <time>2021-11-20T12:26:20.000Z</time>
      </trkpt>
      <trkpt lat="45.38783" lon="5.95228">
        <ele>418.58</ele>
        <time>2021-11-20T12:26:25.000Z</time>
      </trkpt>
      <trkpt lat="45.38777" lon="5.95204">
        <ele>424.19</ele>
        <time>2021-11-20T12:26:30.000Z</time>
      </trkpt>
      <trkpt lat="45.38774" lon="5.95179">
        <ele>426.12</ele>
        <time>2021-11-20T12:26:35.000Z</time>
      </trkpt>
      <trkpt lat="45.3877" lon="5.95152">
        <ele>426.49</ele>
        <time>2021-11-20T12:26:40.000Z</time>
      </trkpt>
      <trkpt lat="45.38769" lon="5.95128">
        <ele>428.82</ele>
        <time>2021-11-20T12:26:45.000Z</time>
      </trkpt>
      <trkpt lat="45.38774" lon="5.95105">
        <ele>427.37</ele>
        <time>2021-11-20T12:26:50.000Z</time>
      </trkpt>
      <trkpt lat="45.38775" lon="5.95083">
        <ele>427.88</ele>
        <time>2021-11-20T12:26:55.000Z</time>
      </trkpt>
      <trkpt lat="45.38775" lon="5.95064">
        <ele>429.78</ele>
        <time>2021-11-20T12:27:00.000Z</time>
      </trkpt>
      <trkpt lat="45.38776" lon="5.95041">
        <ele>431.25</ele>
        <time>2021-11-20T12:27:05.000Z</time>
      </trkpt>
      <trkpt lat="45.38777" lon="5.95016">
        <ele>437.83</ele>
        <time>2021-11-20T12:27:10.000Z</time>
      </trkpt>
      <trkpt lat="45.38778" lon="5.94994">
        <ele>443.94</ele>
        <time>2021-11-20T12:27:15.000Z</time>
      </trkpt>
      <trkpt lat="45.38781" lon="5.94972">
        <ele>444.75</ele>
        <time>2021-11-20T12:27:20.000Z</time>
      </trkpt>
      <trkpt lat="45.38782" lon="5.94947">
        <ele>440.81</ele>
        <time>2021-11-20T12:27:25.000Z</time>
      </trkpt>
      <trkpt lat="45.38781" lon="5.94925">
        <ele>445.89</ele>
        <time>2021-11-20T12:27:30.000Z</time>
      </trkpt>
      <trkpt lat="45.38776" lon="5.94899">
        <ele>444.55</ele>
        <time>2021-11-20T12:27:35.000Z</time>
      </trkpt>
      <trkpt lat="45.38767" lon="5.94878">
        <ele>443.77</ele>
        <time>2021-11-20T12:27:40.000Z</time>
      </trkpt>
      <trkpt lat="45.38763" lon="5.94862">
        <ele>444.34</ele>
        <time>2021-11-20T12:27:45.000Z</time>
      </trkpt>
      <trkpt lat="45.3877" lon="5.94876">
        <ele>458.18</ele>
        <time>2021-11-20T12:28:47.000Z</time>
      </trkpt>
      <trkpt lat="45.38782" lon="5.94889">
        <ele>459.96</ele>
        <time>2021-11-20T12:28:52.000Z</time>
      </trkpt>
      <trkpt lat="45.38796" lon="5.94901">
        <ele>463.55</ele>
        <time>2021-11-20T12:28:57.000Z</time>
      </trkpt>
      <trkpt lat="45.38806" lon="5.94917">
        <ele>463.91</ele>
        <time>2021-11-20T12:29:02.000Z</time>
      </trkpt>
      <trkpt lat="45.38817" lon="5.94936">
        <ele>463.72</ele>
        <time>2021-11-20T12:29:07.000Z</time>
      </trkpt>
      <trkpt lat="45.38822" lon="5.94952">
        <ele>464.02</ele>
        <time>2021-11-20T12:29:12.000Z</time>
      </trkpt>
      <trkpt lat="45.38827" lon="5.94972">
        <ele>463.66</ele>
        <time>2021-11-20T12:29:17.000Z</time>
      </trkpt>
      <trkpt lat="45.38837" lon="5.94994">
        <ele>467.39</ele>
        <time>2021-11-20T12:29:22.000Z</time>
      </trkpt>
      <trkpt lat="45.38847" lon="5.95016">
        <ele>468.76</ele>
        <time>2021-11-20T12:29:27.000Z</time>
      </trkpt>
      <trkpt lat="45.38861" lon="5.95033">
        <ele>472.2</ele>
        <time>2021-11-20T12:29:32.000Z</time>
      </trkpt>
      <trkpt lat="45.38874" lon="5.95049">
        <ele>473.63</ele>
        <time>2021-11-20T12:29:37.000Z</time>
      </trkpt>
      <trkpt lat="45.38888" lon="5.95065">
        <ele>474.5</ele>
        <time>2021-11-20T12:29:42.000Z</time>
      </trkpt>
      <trkpt lat="45.38898" lon="5.95082">
        <ele>475.26</ele>
        <time>2021-11-20T12:29:47.000Z</time>
      </trkpt>
      <trkpt lat="45.38913" lon="5.951">
        <ele>478.43</ele>
        <time>2021-11-20T12:29:52.000Z</time>
      </trkpt>
      <trkpt lat="45.38927" lon="5.95115">
        <ele>480.9</ele>
        <time>2021-11-20T12:29:57.000Z</time>
      </trkpt>
      <trkpt lat="45.38942" lon="5.95128">
        <ele>481.27</ele>
        <time>2021-11-20T12:30:02.000Z</time>
      </trkpt>
      <trkpt lat="45.38958" lon="5.95146">
        <ele>483.55</ele>
        <time>2021-11-20T12:30:07.000Z</time>
      </trkpt>
      <trkpt lat="45.38969" lon="5.95167">
        <ele>484.52</ele>
        <time>2021-11-20T12:30:12.000Z</time>
      </trkpt>
      <trkpt lat="45.38973" lon="5.95187">
        <ele>485.35</ele>
        <time>2021-11-20T12:30:17.000Z</time>
      </trkpt>
      <trkpt lat="45.38977" lon="5.95207">
        <ele>488.12</ele>
        <time>2021-11-20T12:30:22.000Z</time>
      </trkpt>
      <trkpt lat="45.38983" lon="5.95231">
        <ele>491.32</ele>
        <time>2021-11-20T12:30:27.000Z</time>
      </trkpt>
      <trkpt lat="45.38993" lon="5.95254">
        <ele>491.05</ele>
        <time>2021-11-20T12:30:32.000Z</time>
      </trkpt>
      <trkpt lat="45.39007" lon="5.95274">
        <ele>495.71</ele>
        <time>2021-11-20T12:30:37.000Z</time>
      </trkpt>
      <trkpt lat="45.39017" lon="5.95293">
        <ele>498.33</ele>
        <time>2021-11-20T12:30:42.000Z</time>
      </trkpt>
      <trkpt lat="45.3903" lon="5.95312">
        <ele>503.14</ele>
        <time>2021-11-20T12:30:47.000Z</time>
      </trkpt>
      <trkpt lat="45.39042" lon="5.95331">
        <ele>505.88</ele>
        <time>2021-11-20T12:30:52.000Z</time>
      </trkpt>
      <trkpt lat="45.39052" lon="5.95352">
        <ele>510.91</ele>
        <time>2021-11-20T12:30:57.000Z</time>
      </trkpt>
      <trkpt lat="45.39067" lon="5.95369">
        <ele>510.84</ele>
        <time>2021-11-20T12:31:02.000Z</time>
      </trkpt>
      <trkpt lat="45.39082" lon="5.95384">
        <ele>516.41</ele>
        <time>2021-11-20T12:31:07.000Z</time>
      </trkpt>
      <trkpt lat="45.39097" lon="5.95397">
        <ele>515.46</ele>
        <time>2021-11-20T12:31:12.000Z</time>
      </trkpt>
      <trkpt lat="45.39115" lon="5.95408">
        <ele>516.16</ele>
        <time>2021-11-20T12:31:17.000Z</time>
      </trkpt>
      <trkpt lat="45.39127" lon="5.9542">
        <ele>514.85</ele>
        <time>2021-11-20T12:31:22.000Z</time>
      </trkpt>
      <trkpt lat="45.39143" lon="5.95434">
        <ele>517.72</ele>
        <time>2021-11-20T12:31:27.000Z</time>
      </trkpt>
      <trkpt lat="45.3916" lon="5.95449">
        <ele>520.83</ele>
        <time>2021-11-20T12:31:32.000Z</time>
      </trkpt>
      <trkpt lat="45.39174" lon="5.95461">
        <ele>523.8</ele>
        <time>2021-11-20T12:31:37.000Z</time>
      </trkpt>
      <trkpt lat="45.39186" lon="5.95473">
        <ele>524.65</ele>
        <time>2021-11-20T12:31:42.000Z</time>
      </trkpt>
      <trkpt lat="45.39198" lon="5.95484">
        <ele>525.69</ele>
        <time>2021-11-20T12:31:47.000Z</time>
      </trkpt>
      <trkpt lat="45.39214" lon="5.95496">
        <ele>528.46</ele>
        <time>2021-11-20T12:31:52.000Z</time>
      </trkpt>
      <trkpt lat="45.39232" lon="5.95506">
        <ele>530.28</ele>
        <time>2021-11-20T12:31:57.000Z</time>
      </trkpt>
      <trkpt lat="45.39249" lon="5.95514">
        <ele>531.28</ele>
        <time>2021-11-20T12:32:02.000Z</time>
      </trkpt>
      <trkpt lat="45.39265" lon="5.9552">
        <ele>529.59</ele>
        <time>2021-11-20T12:32:07.000Z</time>
      </trkpt>
      <trkpt lat="45.39279" lon="5.95526">
        <ele>534.15</ele>
        <time>2021-11-20T12:32:12.000Z</time>
      </trkpt>
      <trkpt lat="45.39292" lon="5.95535">
        <ele>533.72</ele>
        <time>2021-11-20T12:32:17.000Z</time>
      </trkpt>
      <trkpt lat="45.393" lon="5.95531">
        <ele>538.38</ele>
        <time>2021-11-20T12:35:34.000Z</time>
      </trkpt>
      <trkpt lat="45.39309" lon="5.95526">
        <ele>542.76</ele>
        <time>2021-11-20T12:35:52.000Z</time>
      </trkpt>
      <trkpt lat="45.39324" lon="5.95535">
        <ele>543.26</ele>
        <time>2021-11-20T12:35:57.000Z</time>
      </trkpt>
      <trkpt lat="45.39339" lon="5.95539">
        <ele>542.99</ele>
        <time>2021-11-20T12:36:02.000Z</time>
      </trkpt>
      <trkpt lat="45.39354" lon="5.95543">
        <ele>543.88</ele>
        <time>2021-11-20T12:36:07.000Z</time>
      </trkpt>
      <trkpt lat="45.39371" lon="5.95548">
        <ele>536.35</ele>
        <time>2021-11-20T12:36:12.000Z</time>
      </trkpt>
      <trkpt lat="45.39389" lon="5.95546">
        <ele>533.64</ele>
        <time>2021-11-20T12:36:17.000Z</time>
      </trkpt>
      <trkpt lat="45.39405" lon="5.95548">
        <ele>535.13</ele>
        <time>2021-11-20T12:36:22.000Z</time>
      </trkpt>
      <trkpt lat="45.39422" lon="5.95545">
        <ele>539.55</ele>
        <time>2021-11-20T12:36:27.000Z</time>
      </trkpt>
      <trkpt lat="45.39438" lon="5.9554">
        <ele>544.53</ele>
        <time>2021-11-20T12:36:32.000Z</time>
      </trkpt>
      <trkpt lat="45.39453" lon="5.9554">
        <ele>549.7</ele>
        <time>2021-11-20T12:36:37.000Z</time>
      </trkpt>
      <trkpt lat="45.39467" lon="5.95545">
        <ele>555.35</ele>
        <time>2021-11-20T12:36:42.000Z</time>
      </trkpt>
      <trkpt lat="45.39482" lon="5.95548">
        <ele>556.09</ele>
        <time>2021-11-20T12:36:47.000Z</time>
      </trkpt>
      <trkpt lat="45.39497" lon="5.9555">
        <ele>560</ele>
        <time>2021-11-20T12:36:52.000Z</time>
      </trkpt>
      <trkpt lat="45.39512" lon="5.95553">
        <ele>559.05</ele>
        <time>2021-11-20T12:36:57.000Z</time>
      </trkpt>
      <trkpt lat="45.39529" lon="5.95556">
        <ele>560.41</ele>
        <time>2021-11-20T12:37:02.000Z</time>
      </trkpt>
      <trkpt lat="45.39546" lon="5.95561">
        <ele>564.04</ele>
        <time>2021-11-20T12:37:07.000Z</time>
      </trkpt>
      <trkpt lat="45.39562" lon="5.95567">
        <ele>563.93</ele>
        <time>2021-11-20T12:37:12.000Z</time>
      </trkpt>
      <trkpt lat="45.3958" lon="5.95566">
        <ele>563.56</ele>
        <time>2021-11-20T12:37:17.000Z</time>
      </trkpt>
      <trkpt lat="45.39596" lon="5.95574">
        <ele>560.8</ele>
        <time>2021-11-20T12:37:22.000Z</time>
      </trkpt>
      <trkpt lat="45.3961" lon="5.9558">
        <ele>566.9</ele>
        <time>2021-11-20T12:37:27.000Z</time>
      </trkpt>
      <trkpt lat="45.39625" lon="5.95588">
        <ele>573.61</ele>
        <time>2021-11-20T12:37:32.000Z</time>
      </trkpt>
      <trkpt lat="45.39639" lon="5.95599">
        <ele>577.11</ele>
        <time>2021-11-20T12:37:37.000Z</time>
      </trkpt>
      <trkpt lat="45.39653" lon="5.95609">
        <ele>582.72</ele>
        <time>2021-11-20T12:37:42.000Z</time>
      </trkpt>
      <trkpt lat="45.39662" lon="5.95593">
        <ele>584.6</ele>
        <time>2021-11-20T12:37:47.000Z</time>
      </trkpt>
      <trkpt lat="45.39649" lon="5.95574">
        <ele>585.5</ele>
        <time>2021-11-20T12:37:52.000Z</time>
      </trkpt>
      <trkpt lat="45.3963" lon="5.95568">
        <ele>588.31</ele>
        <time>2021-11-20T12:37:57.000Z</time>
      </trkpt>
      <trkpt lat="45.39617" lon="5.95554">
        <ele>593.65</ele>
        <time>2021-11-20T12:38:02.000Z</time>
      </trkpt>
      <trkpt lat="45.39608" lon="5.95537">
        <ele>593.08</ele>
        <time>2021-11-20T12:38:07.000Z</time>
      </trkpt>
      <trkpt lat="45.39599" lon="5.9552">
        <ele>597.38</ele>
        <time>2021-11-20T12:38:12.000Z</time>
      </trkpt>
      <trkpt lat="45.39588" lon="5.95505">
        <ele>600.55</ele>
        <time>2021-11-20T12:38:17.000Z</time>
      </trkpt>
      <trkpt lat="45.39577" lon="5.95494">
        <ele>604.06</ele>
        <time>2021-11-20T12:38:22.000Z</time>
      </trkpt>
      <trkpt lat="45.39564" lon="5.95482">
        <ele>601.74</ele>
        <time>2021-11-20T12:38:27.000Z</time>
      </trkpt>
      <trkpt lat="45.3955" lon="5.95469">
        <ele>606.05</ele>
        <time>2021-11-20T12:38:32.000Z</time>
      </trkpt>
      <trkpt lat="45.39536" lon="5.95459">
        <ele>611.66</ele>
        <time>2021-11-20T12:38:37.000Z</time>
      </trkpt>
      <trkpt lat="45.39522" lon="5.95448">
        <ele>613.43</ele>
        <time>2021-11-20T12:38:42.000Z</time>
      </trkpt>
      <trkpt lat="45.39509" lon="5.95437">
        <ele>612.72</ele>
        <time>2021-11-20T12:38:47.000Z</time>
      </trkpt>
      <trkpt lat="45.39497" lon="5.95425">
        <ele>609.65</ele>
        <time>2021-11-20T12:38:52.000Z</time>
      </trkpt>
      <trkpt lat="45.39486" lon="5.95411">
        <ele>611.1</ele>
        <time>2021-11-20T12:38:57.000Z</time>
      </trkpt>
      <trkpt lat="45.39474" lon="5.95396">
        <ele>612.23</ele>
        <time>2021-11-20T12:39:02.000Z</time>
      </trkpt>
      <trkpt lat="45.39462" lon="5.95383">
        <ele>613.2</ele>
        <time>2021-11-20T12:39:07.000Z</time>
      </trkpt>
      <trkpt lat="45.39451" lon="5.95374">
        <ele>617.85</ele>
        <time>2021-11-20T12:39:12.000Z</time>
      </trkpt>
      <trkpt lat="45.39437" lon="5.95366">
        <ele>617.69</ele>
        <time>2021-11-20T12:39:17.000Z</time>
      </trkpt>
      <trkpt lat="45.39424" lon="5.95367">
        <ele>617.94</ele>
        <time>2021-11-20T12:39:22.000Z</time>
      </trkpt>
      <trkpt lat="45.3941" lon="5.95361">
        <ele>618.39</ele>
        <time>2021-11-20T12:39:27.000Z</time>
      </trkpt>
      <trkpt lat="45.394" lon="5.95343">
        <ele>618.12</ele>
        <time>2021-11-20T12:39:32.000Z</time>
      </trkpt>
      <trkpt lat="45.39388" lon="5.95329">
        <ele>622.98</ele>
        <time>2021-11-20T12:39:37.000Z</time>
      </trkpt>
      <trkpt lat="45.39376" lon="5.95315">
        <ele>624.48</ele>
        <time>2021-11-20T12:39:42.000Z</time>
      </trkpt>
      <trkpt lat="45.39362" lon="5.9531">
        <ele>629.81</ele>
        <time>2021-11-20T12:39:47.000Z</time>
      </trkpt>
      <trkpt lat="45.3935" lon="5.953">
        <ele>629.82</ele>
        <time>2021-11-20T12:39:52.000Z</time>
      </trkpt>
      <trkpt lat="45.39341" lon="5.95284">
        <ele>632.32</ele>
        <time>2021-11-20T12:39:57.000Z</time>
      </trkpt>
      <trkpt lat="45.39331" lon="5.95269">
        <ele>637.09</ele>
        <time>2021-11-20T12:40:02.000Z</time>
      </trkpt>
      <trkpt lat="45.39319" lon="5.95254">
        <ele>641.59</ele>
        <time>2021-11-20T12:40:07.000Z</time>
      </trkpt>
      <trkpt lat="45.39307" lon="5.95241">
        <ele>643.94</ele>
        <time>2021-11-20T12:40:12.000Z</time>
      </trkpt>
      <trkpt lat="45.39295" lon="5.95228">
        <ele>642.51</ele>
        <time>2021-11-20T12:40:17.000Z</time>
      </trkpt>
      <trkpt lat="45.39285" lon="5.9521">
        <ele>642.65</ele>
        <time>2021-11-20T12:40:22.000Z</time>
      </trkpt>
      <trkpt lat="45.39281" lon="5.95192">
        <ele>644.32</ele>
        <time>2021-11-20T12:40:27.000Z</time>
      </trkpt>
      <trkpt lat="45.39276" lon="5.95171">
        <ele>650.08</ele>
        <time>2021-11-20T12:40:32.000Z</time>
      </trkpt>
      <trkpt lat="45.39267" lon="5.95156">
        <ele>655.51</ele>
        <time>2021-11-20T12:40:37.000Z</time>
      </trkpt>
      <trkpt lat="45.39253" lon="5.95143">
        <ele>655.22</ele>
        <time>2021-11-20T12:40:42.000Z</time>
      </trkpt>
      <trkpt lat="45.39239" lon="5.95119">
        <ele>659.94</ele>
        <time>2021-11-20T12:40:50.000Z</time>
      </trkpt>
      <trkpt lat="45.3923" lon="5.95101">
        <ele>667.8</ele>
        <time>2021-11-20T12:40:55.000Z</time>
      </trkpt>
      <trkpt lat="45.39223" lon="5.95081">
        <ele>666.13</ele>
        <time>2021-11-20T12:41:00.000Z</time>
      </trkpt>
      <trkpt lat="45.39224" lon="5.95059">
        <ele>670.5</ele>
        <time>2021-11-20T12:41:05.000Z</time>
      </trkpt>
      <trkpt lat="45.39224" lon="5.95035">
        <ele>672.32</ele>
        <time>2021-11-20T12:41:10.000Z</time>
      </trkpt>
      <trkpt lat="45.39227" lon="5.95007">
        <ele>674.7</ele>
        <time>2021-11-20T12:41:16.000Z</time>
      </trkpt>
      <trkpt lat="45.39232" lon="5.94984">
        <ele>673.62</ele>
        <time>2021-11-20T12:41:21.000Z</time>
      </trkpt>
      <trkpt lat="45.39232" lon="5.94958">
        <ele>674.19</ele>
        <time>2021-11-20T12:41:26.000Z</time>
      </trkpt>
      <trkpt lat="45.39227" lon="5.94933">
        <ele>674.94</ele>
        <time>2021-11-20T12:41:31.000Z</time>
      </trkpt>
      <trkpt lat="45.39229" lon="5.9491">
        <ele>676.05</ele>
        <time>2021-11-20T12:41:36.000Z</time>
      </trkpt>
      <trkpt lat="45.39227" lon="5.94885">
        <ele>678.72</ele>
        <time>2021-11-20T12:41:41.000Z</time>
      </trkpt>
      <trkpt lat="45.39213" lon="5.94866">
        <ele>683.75</ele>
        <time>2021-11-20T12:41:46.000Z</time>
      </trkpt>
      <trkpt lat="45.39196" lon="5.94851">
        <ele>685.09</ele>
        <time>2021-11-20T12:41:51.000Z</time>
      </trkpt>
      <trkpt lat="45.39183" lon="5.94831">
        <ele>687.5</ele>
        <time>2021-11-20T12:41:56.000Z</time>
      </trkpt>
      <trkpt lat="45.39174" lon="5.94813">
        <ele>688.67</ele>
        <time>2021-11-20T12:42:01.000Z</time>
      </trkpt>
      <trkpt lat="45.39171" lon="5.94793">
        <ele>689.68</ele>
        <time>2021-11-20T12:42:06.000Z</time>
      </trkpt>
      <trkpt lat="45.39166" lon="5.94771">
        <ele>691.14</ele>
        <time>2021-11-20T12:42:11.000Z</time>
      </trkpt>
      <trkpt lat="45.39163" lon="5.94745">
        <ele>696.15</ele>
        <time>2021-11-20T12:42:16.000Z</time>
      </trkpt>
      <trkpt lat="45.39161" lon="5.9472">
        <ele>701.42</ele>
        <time>2021-11-20T12:42:21.000Z</time>
      </trkpt>
      <trkpt lat="45.39157" lon="5.9469">
        <ele>702.6</ele>
        <time>2021-11-20T12:42:28.000Z</time>
      </trkpt>
      <trkpt lat="45.39157" lon="5.94661">
        <ele>706.45</ele>
        <time>2021-11-20T12:42:33.000Z</time>
      </trkpt>
      <trkpt lat="45.39159" lon="5.94632">
        <ele>707.62</ele>
        <time>2021-11-20T12:42:38.000Z</time>
      </trkpt>
      <trkpt lat="45.39163" lon="5.94608">
        <ele>709.01</ele>
        <time>2021-11-20T12:42:43.000Z</time>
      </trkpt>
      <trkpt lat="45.39165" lon="5.94586">
        <ele>711.86</ele>
        <time>2021-11-20T12:42:48.000Z</time>
      </trkpt>
      <trkpt lat="45.39163" lon="5.94573">
        <ele>714.95</ele>
        <time>2021-11-20T12:43:01.000Z</time>
      </trkpt>
      <trkpt lat="45.39162" lon="5.94543">
        <ele>546.34</ele>
        <time>2021-11-20T12:46:22.000Z</time>
      </trkpt>
      <trkpt lat="45.39162" lon="5.94562">
        <ele>672.2</ele>
        <time>2021-11-20T12:46:29.000Z</time>
      </trkpt>
      <trkpt lat="45.3919" lon="5.94501">
        <ele>707.07</ele>
        <time>2021-11-20T12:46:34.000Z</time>
      </trkpt>
      <trkpt lat="45.39207" lon="5.94472">
        <ele>706.13</ele>
        <time>2021-11-20T12:46:39.000Z</time>
      </trkpt>
      <trkpt lat="45.39215" lon="5.94455">
        <ele>706.59</ele>
        <time>2021-11-20T12:46:44.000Z</time>
      </trkpt>
      <trkpt lat="45.39228" lon="5.94445">
        <ele>706.33</ele>
        <time>2021-11-20T12:46:49.000Z</time>
      </trkpt>
      <trkpt lat="45.39241" lon="5.94436">
        <ele>703.61</ele>
        <time>2021-11-20T12:46:54.000Z</time>
      </trkpt>
      <trkpt lat="45.39254" lon="5.94435">
        <ele>703.91</ele>
        <time>2021-11-20T12:46:59.000Z</time>
      </trkpt>
      <trkpt lat="45.39265" lon="5.94445">
        <ele>708.86</ele>
        <time>2021-11-20T12:47:04.000Z</time>
      </trkpt>
      <trkpt lat="45.39277" lon="5.94455">
        <ele>706.18</ele>
        <time>2021-11-20T12:47:09.000Z</time>
      </trkpt>
      <trkpt lat="45.39286" lon="5.94466">
        <ele>706.07</ele>
        <time>2021-11-20T12:47:14.000Z</time>
      </trkpt>
      <trkpt lat="45.393" lon="5.94469">
        <ele>704.64</ele>
        <time>2021-11-20T12:47:19.000Z</time>
      </trkpt>
      <trkpt lat="45.39311" lon="5.94449">
        <ele>701.46</ele>
        <time>2021-11-20T12:47:24.000Z</time>
      </trkpt>
      <trkpt lat="45.3932" lon="5.94425">
        <ele>708.54</ele>
        <time>2021-11-20T12:47:29.000Z</time>
      </trkpt>
      <trkpt lat="45.39319" lon="5.94395">
        <ele>718</ele>
        <time>2021-11-20T12:47:34.000Z</time>
      </trkpt>
      <trkpt lat="45.39315" lon="5.94356">
        <ele>721.06</ele>
        <time>2021-11-20T12:47:42.000Z</time>
      </trkpt>
      <trkpt lat="45.39321" lon="5.94327">
        <ele>723.07</ele>
        <time>2021-11-20T12:47:47.000Z</time>
      </trkpt>
      <trkpt lat="45.39319" lon="5.94305">
        <ele>725.49</ele>
        <time>2021-11-20T12:47:52.000Z</time>
      </trkpt>
      <trkpt lat="45.39321" lon="5.9428">
        <ele>728.7</ele>
        <time>2021-11-20T12:47:57.000Z</time>
      </trkpt>
      <trkpt lat="45.39305" lon="5.94268">
        <ele>732.53</ele>
        <time>2021-11-20T12:48:02.000Z</time>
      </trkpt>
      <trkpt lat="45.39283" lon="5.94267">
        <ele>737.3</ele>
        <time>2021-11-20T12:48:07.000Z</time>
      </trkpt>
      <trkpt lat="45.39267" lon="5.94272">
        <ele>744.65</ele>
        <time>2021-11-20T12:48:12.000Z</time>
      </trkpt>
      <trkpt lat="45.39247" lon="5.9427">
        <ele>749.16</ele>
        <time>2021-11-20T12:48:17.000Z</time>
      </trkpt>
      <trkpt lat="45.39239" lon="5.94245">
        <ele>750.33</ele>
        <time>2021-11-20T12:48:22.000Z</time>
      </trkpt>
      <trkpt lat="45.39249" lon="5.94218">
        <ele>750.01</ele>
        <time>2021-11-20T12:48:27.000Z</time>
      </trkpt>
      <trkpt lat="45.39262" lon="5.94202">
        <ele>751.69</ele>
        <time>2021-11-20T12:48:32.000Z</time>
      </trkpt>
      <trkpt lat="45.39277" lon="5.9419">
        <ele>754.41</ele>
        <time>2021-11-20T12:48:37.000Z</time>
      </trkpt>
      <trkpt lat="45.39291" lon="5.94178">
        <ele>753.95</ele>
        <time>2021-11-20T12:48:42.000Z</time>
      </trkpt>
      <trkpt lat="45.39307" lon="5.94167">
        <ele>752.54</ele>
        <time>2021-11-20T12:48:47.000Z</time>
      </trkpt>
      <trkpt lat="45.39322" lon="5.94156">
        <ele>757.66</ele>
        <time>2021-11-20T12:48:52.000Z</time>
      </trkpt>
      <trkpt lat="45.39352" lon="5.94151">
        <ele>759.34</ele>
        <time>2021-11-20T12:49:03.000Z</time>
      </trkpt>
      <trkpt lat="45.39369" lon="5.94152">
        <ele>760.85</ele>
        <time>2021-11-20T12:49:08.000Z</time>
      </trkpt>
      <trkpt lat="45.39384" lon="5.94145">
        <ele>762.76</ele>
        <time>2021-11-20T12:49:13.000Z</time>
      </trkpt>
      <trkpt lat="45.39393" lon="5.94131">
        <ele>762.15</ele>
        <time>2021-11-20T12:49:18.000Z</time>
      </trkpt>
      <trkpt lat="45.394" lon="5.94114">
        <ele>764.23</ele>
        <time>2021-11-20T12:49:23.000Z</time>
      </trkpt>
      <trkpt lat="45.39413" lon="5.94101">
        <ele>769.83</ele>
        <time>2021-11-20T12:49:28.000Z</time>
      </trkpt>
      <trkpt lat="45.3943" lon="5.94103">
        <ele>771.67</ele>
        <time>2021-11-20T12:49:33.000Z</time>
      </trkpt>
      <trkpt lat="45.39455" lon="5.94103">
        <ele>771.37</ele>
        <time>2021-11-20T12:49:38.000Z</time>
      </trkpt>
      <trkpt lat="45.39456" lon="5.94073">
        <ele>768.28</ele>
        <time>2021-11-20T12:49:43.000Z</time>
      </trkpt>
      <trkpt lat="45.39461" lon="5.94048">
        <ele>771.76</ele>
        <time>2021-11-20T12:49:48.000Z</time>
      </trkpt>
      <trkpt lat="45.39472" lon="5.94029">
        <ele>769.91</ele>
        <time>2021-11-20T12:49:53.000Z</time>
      </trkpt>
      <trkpt lat="45.39498" lon="5.94018">
        <ele>766.67</ele>
        <time>2021-11-20T12:49:58.000Z</time>
      </trkpt>
      <trkpt lat="45.39515" lon="5.93999">
        <ele>764.6</ele>
        <time>2021-11-20T12:50:03.000Z</time>
      </trkpt>
      <trkpt lat="45.39535" lon="5.93978">
        <ele>766.96</ele>
        <time>2021-11-20T12:50:08.000Z</time>
      </trkpt>
      <trkpt lat="45.39555" lon="5.93968">
        <ele>766.29</ele>
        <time>2021-11-20T12:50:13.000Z</time>
      </trkpt>
      <trkpt lat="45.39569" lon="5.93947">
        <ele>768.75</ele>
        <time>2021-11-20T12:50:18.000Z</time>
      </trkpt>
      <trkpt lat="45.39561" lon="5.93922">
        <ele>770.09</ele>
        <time>2021-11-20T12:50:23.000Z</time>
      </trkpt>
      <trkpt lat="45.39556" lon="5.93881">
        <ele>772.64</ele>
        <time>2021-11-20T12:50:28.000Z</time>
      </trkpt>
      <trkpt lat="45.3957" lon="5.93851">
        <ele>773.3</ele>
        <time>2021-11-20T12:50:33.000Z</time>
      </trkpt>
      <trkpt lat="45.39591" lon="5.93835">
        <ele>773.71</ele>
        <time>2021-11-20T12:50:38.000Z</time>
      </trkpt>
      <trkpt lat="45.39612" lon="5.93813">
        <ele>771.16</ele>
        <time>2021-11-20T12:50:43.000Z</time>
      </trkpt>
      <trkpt lat="45.39628" lon="5.93785">
        <ele>769.01</ele>
        <time>2021-11-20T12:50:48.000Z</time>
      </trkpt>
      <trkpt lat="45.39621" lon="5.93766">
        <ele>771.32</ele>
        <time>2021-11-20T12:50:53.000Z</time>
      </trkpt>
      <trkpt lat="45.39605" lon="5.93748">
        <ele>771.97</ele>
        <time>2021-11-20T12:50:58.000Z</time>
      </trkpt>
      <trkpt lat="45.39575" lon="5.93713">
        <ele>770.4</ele>
        <time>2021-11-20T12:51:03.000Z</time>
      </trkpt>
      <trkpt lat="45.39551" lon="5.93703">
        <ele>772.15</ele>
        <time>2021-11-20T12:51:08.000Z</time>
      </trkpt>
      <trkpt lat="45.39532" lon="5.93684">
        <ele>765.08</ele>
        <time>2021-11-20T12:51:13.000Z</time>
      </trkpt>
      <trkpt lat="45.39521" lon="5.93643">
        <ele>766.55</ele>
        <time>2021-11-20T12:51:18.000Z</time>
      </trkpt>
      <trkpt lat="45.39507" lon="5.93603">
        <ele>773.13</ele>
        <time>2021-11-20T12:51:23.000Z</time>
      </trkpt>
      <trkpt lat="45.39479" lon="5.93594">
        <ele>773.63</ele>
        <time>2021-11-20T12:51:28.000Z</time>
      </trkpt>
      <trkpt lat="45.39448" lon="5.936">
        <ele>773.43</ele>
        <time>2021-11-20T12:51:33.000Z</time>
      </trkpt>
      <trkpt lat="45.39427" lon="5.93626">
        <ele>771.86</ele>
        <time>2021-11-20T12:51:38.000Z</time>
      </trkpt>
      <trkpt lat="45.39425" lon="5.9367">
        <ele>769.33</ele>
        <time>2021-11-20T12:51:43.000Z</time>
      </trkpt>
      <trkpt lat="45.39402" lon="5.93703">
        <ele>767.55</ele>
        <time>2021-11-20T12:51:48.000Z</time>
      </trkpt>
      <trkpt lat="45.39368" lon="5.93714">
        <ele>767.86</ele>
        <time>2021-11-20T12:51:53.000Z</time>
      </trkpt>
      <trkpt lat="45.39338" lon="5.93721">
        <ele>770.74</ele>
        <time>2021-11-20T12:51:58.000Z</time>
      </trkpt>
      <trkpt lat="45.39315" lon="5.93723">
        <ele>768.55</ele>
        <time>2021-11-20T12:52:03.000Z</time>
      </trkpt>
      <trkpt lat="45.39304" lon="5.93721">
        <ele>768.86</ele>
        <time>2021-11-20T12:52:08.000Z</time>
      </trkpt>
      <trkpt lat="45.39296" lon="5.93727">
        <ele>779.52</ele>
        <time>2021-11-20T12:53:54.000Z</time>
      </trkpt>
      <trkpt lat="45.39272" lon="5.93717">
        <ele>778.9</ele>
        <time>2021-11-20T12:53:59.000Z</time>
      </trkpt>
      <trkpt lat="45.39255" lon="5.93709">
        <ele>777.24</ele>
        <time>2021-11-20T12:54:04.000Z</time>
      </trkpt>
      <trkpt lat="45.39235" lon="5.93698">
        <ele>775.88</ele>
        <time>2021-11-20T12:54:09.000Z</time>
      </trkpt>
      <trkpt lat="45.39216" lon="5.9368">
        <ele>772.38</ele>
        <time>2021-11-20T12:54:14.000Z</time>
      </trkpt>
      <trkpt lat="45.39203" lon="5.93662">
        <ele>770.65</ele>
        <time>2021-11-20T12:54:19.000Z</time>
      </trkpt>
      <trkpt lat="45.39188" lon="5.93639">
        <ele>770.7</ele>
        <time>2021-11-20T12:54:24.000Z</time>
      </trkpt>
      <trkpt lat="45.39169" lon="5.93618">
        <ele>771.86</ele>
        <time>2021-11-20T12:54:29.000Z</time>
      </trkpt>
      <trkpt lat="45.3915" lon="5.93598">
        <ele>774.6</ele>
        <time>2021-11-20T12:54:34.000Z</time>
      </trkpt>
      <trkpt lat="45.39132" lon="5.93581">
        <ele>778.23</ele>
        <time>2021-11-20T12:54:39.000Z</time>
      </trkpt>
      <trkpt lat="45.39109" lon="5.93561">
        <ele>776.7</ele>
        <time>2021-11-20T12:54:44.000Z</time>
      </trkpt>
      <trkpt lat="45.39088" lon="5.93541">
        <ele>777.28</ele>
        <time>2021-11-20T12:54:49.000Z</time>
      </trkpt>
      <trkpt lat="45.39069" lon="5.93518">
        <ele>777.29</ele>
        <time>2021-11-20T12:54:54.000Z</time>
      </trkpt>
      <trkpt lat="45.39061" lon="5.93484">
        <ele>775.28</ele>
        <time>2021-11-20T12:54:59.000Z</time>
      </trkpt>
      <trkpt lat="45.39058" lon="5.9345">
        <ele>776.66</ele>
        <time>2021-11-20T12:55:04.000Z</time>
      </trkpt>
      <trkpt lat="45.3905" lon="5.93414">
        <ele>775.36</ele>
        <time>2021-11-20T12:55:09.000Z</time>
      </trkpt>
      <trkpt lat="45.39037" lon="5.93385">
        <ele>778.09</ele>
        <time>2021-11-20T12:55:14.000Z</time>
      </trkpt>
      <trkpt lat="45.39023" lon="5.93353">
        <ele>777.1</ele>
        <time>2021-11-20T12:55:19.000Z</time>
      </trkpt>
      <trkpt lat="45.39004" lon="5.93325">
        <ele>780.47</ele>
        <time>2021-11-20T12:55:24.000Z</time>
      </trkpt>
      <trkpt lat="45.38976" lon="5.93322">
        <ele>781.65</ele>
        <time>2021-11-20T12:55:29.000Z</time>
      </trkpt>
      <trkpt lat="45.38972" lon="5.93353">
        <ele>778.63</ele>
        <time>2021-11-20T12:55:34.000Z</time>
      </trkpt>
      <trkpt lat="45.38978" lon="5.93382">
        <ele>781.1</ele>
        <time>2021-11-20T12:55:39.000Z</time>
      </trkpt>
      <trkpt lat="45.38971" lon="5.93404">
        <ele>785.68</ele>
        <time>2021-11-20T12:55:44.000Z</time>
      </trkpt>
      <trkpt lat="45.38948" lon="5.93407">
        <ele>787.97</ele>
        <time>2021-11-20T12:55:49.000Z</time>
      </trkpt>
      <trkpt lat="45.38923" lon="5.93394">
        <ele>795.17</ele>
        <time>2021-11-20T12:55:54.000Z</time>
      </trkpt>
      <trkpt lat="45.38902" lon="5.93379">
        <ele>796.6</ele>
        <time>2021-11-20T12:55:59.000Z</time>
      </trkpt>
      <trkpt lat="45.38884" lon="5.93366">
        <ele>795.9</ele>
        <time>2021-11-20T12:56:04.000Z</time>
      </trkpt>
      <trkpt lat="45.38863" lon="5.9336">
        <ele>797.67</ele>
        <time>2021-11-20T12:56:09.000Z</time>
      </trkpt>
      <trkpt lat="45.38844" lon="5.93351">
        <ele>796.56</ele>
        <time>2021-11-20T12:56:14.000Z</time>
      </trkpt>
      <trkpt lat="45.38831" lon="5.93335">
        <ele>796.44</ele>
        <time>2021-11-20T12:56:19.000Z</time>
      </trkpt>
      <trkpt lat="45.38814" lon="5.93322">
        <ele>798.43</ele>
        <time>2021-11-20T12:56:24.000Z</time>
      </trkpt>
      <trkpt lat="45.388" lon="5.93311">
        <ele>798.55</ele>
        <time>2021-11-20T12:56:29.000Z</time>
      </trkpt>
      <trkpt lat="45.38791" lon="5.9329">
        <ele>800.4</ele>
        <time>2021-11-20T12:56:34.000Z</time>
      </trkpt>
      <trkpt lat="45.38785" lon="5.93266">
        <ele>802.88</ele>
        <time>2021-11-20T12:56:39.000Z</time>
      </trkpt>
      <trkpt lat="45.38769" lon="5.93251">
        <ele>801.58</ele>
        <time>2021-11-20T12:56:44.000Z</time>
      </trkpt>
      <trkpt lat="45.38751" lon="5.93259">
        <ele>797.77</ele>
        <time>2021-11-20T12:56:49.000Z</time>
      </trkpt>
      <trkpt lat="45.38743" lon="5.93279">
        <ele>797.63</ele>
        <time>2021-11-20T12:56:54.000Z</time>
      </trkpt>
      <trkpt lat="45.38725" lon="5.93277">
        <ele>799.05</ele>
        <time>2021-11-20T12:56:59.000Z</time>
      </trkpt>
      <trkpt lat="45.3871" lon="5.93262">
        <ele>800.54</ele>
        <time>2021-11-20T12:57:04.000Z</time>
      </trkpt>
      <trkpt lat="45.38698" lon="5.93245">
        <ele>799.98</ele>
        <time>2021-11-20T12:57:09.000Z</time>
      </trkpt>
      <trkpt lat="45.38681" lon="5.93227">
        <ele>802.01</ele>
        <time>2021-11-20T12:57:14.000Z</time>
      </trkpt>
      <trkpt lat="45.38659" lon="5.93209">
        <ele>807.55</ele>
        <time>2021-11-20T12:57:19.000Z</time>
      </trkpt>
      <trkpt lat="45.38645" lon="5.93197">
        <ele>811.18</ele>
        <time>2021-11-20T12:57:24.000Z</time>
      </trkpt>
      <trkpt lat="45.3863" lon="5.93191">
        <ele>815.41</ele>
        <time>2021-11-20T12:57:29.000Z</time>
      </trkpt>
      <trkpt lat="45.38608" lon="5.93173">
        <ele>815.25</ele>
        <time>2021-11-20T12:57:34.000Z</time>
      </trkpt>
      <trkpt lat="45.38597" lon="5.93186">
        <ele>817.2</ele>
        <time>2021-11-20T12:57:39.000Z</time>
      </trkpt>
      <trkpt lat="45.38574" lon="5.93288">
        <ele>820.02</ele>
        <time>2021-11-20T12:58:01.000Z</time>
      </trkpt>
      <trkpt lat="45.3856" lon="5.93296">
        <ele>825.93</ele>
        <time>2021-11-20T12:58:06.000Z</time>
      </trkpt>
      <trkpt lat="45.3855" lon="5.93315">
        <ele>827.49</ele>
        <time>2021-11-20T12:58:11.000Z</time>
      </trkpt>
      <trkpt lat="45.38549" lon="5.93342">
        <ele>828.31</ele>
        <time>2021-11-20T12:58:16.000Z</time>
      </trkpt>
      <trkpt lat="45.38552" lon="5.93367">
        <ele>828.27</ele>
        <time>2021-11-20T12:58:21.000Z</time>
      </trkpt>
      <trkpt lat="45.38549" lon="5.93386">
        <ele>825.97</ele>
        <time>2021-11-20T12:58:26.000Z</time>
      </trkpt>
      <trkpt lat="45.38537" lon="5.93406">
        <ele>830.39</ele>
        <time>2021-11-20T12:58:31.000Z</time>
      </trkpt>
      <trkpt lat="45.38531" lon="5.93427">
        <ele>826.26</ele>
        <time>2021-11-20T12:58:36.000Z</time>
      </trkpt>
      <trkpt lat="45.38518" lon="5.9344">
        <ele>827.27</ele>
        <time>2021-11-20T12:58:41.000Z</time>
      </trkpt>
      <trkpt lat="45.38508" lon="5.93415">
        <ele>825.52</ele>
        <time>2021-11-20T12:58:46.000Z</time>
      </trkpt>
      <trkpt lat="45.38513" lon="5.93391">
        <ele>827.82</ele>
        <time>2021-11-20T12:58:51.000Z</time>
      </trkpt>
      <trkpt lat="45.38514" lon="5.93369">
        <ele>826.96</ele>
        <time>2021-11-20T12:58:56.000Z</time>
      </trkpt>
      <trkpt lat="45.38501" lon="5.93352">
        <ele>834.01</ele>
        <time>2021-11-20T12:59:01.000Z</time>
      </trkpt>
      <trkpt lat="45.38486" lon="5.93333">
        <ele>834.95</ele>
        <time>2021-11-20T12:59:06.000Z</time>
      </trkpt>
      <trkpt lat="45.38472" lon="5.93312">
        <ele>840.18</ele>
        <time>2021-11-20T12:59:11.000Z</time>
      </trkpt>
      <trkpt lat="45.3846" lon="5.93291">
        <ele>845.61</ele>
        <time>2021-11-20T12:59:16.000Z</time>
      </trkpt>
      <trkpt lat="45.3845" lon="5.93278">
        <ele>846.41</ele>
        <time>2021-11-20T12:59:21.000Z</time>
      </trkpt>
      <trkpt lat="45.38438" lon="5.93258">
        <ele>850.35</ele>
        <time>2021-11-20T12:59:26.000Z</time>
      </trkpt>
      <trkpt lat="45.38425" lon="5.93239">
        <ele>851.66</ele>
        <time>2021-11-20T12:59:31.000Z</time>
      </trkpt>
      <trkpt lat="45.38414" lon="5.93222">
        <ele>852.58</ele>
        <time>2021-11-20T12:59:36.000Z</time>
      </trkpt>
      <trkpt lat="45.38403" lon="5.93204">
        <ele>857.03</ele>
        <time>2021-11-20T12:59:41.000Z</time>
      </trkpt>
      <trkpt lat="45.3839" lon="5.93183">
        <ele>855.33</ele>
        <time>2021-11-20T12:59:46.000Z</time>
      </trkpt>
      <trkpt lat="45.38377" lon="5.93162">
        <ele>855.25</ele>
        <time>2021-11-20T12:59:51.000Z</time>
      </trkpt>
      <trkpt lat="45.38365" lon="5.93147">
        <ele>855.66</ele>
        <time>2021-11-20T12:59:56.000Z</time>
      </trkpt>
      <trkpt lat="45.38348" lon="5.93137">
        <ele>854.76</ele>
        <time>2021-11-20T13:00:01.000Z</time>
      </trkpt>
      <trkpt lat="45.38333" lon="5.93131">
        <ele>857.52</ele>
        <time>2021-11-20T13:00:06.000Z</time>
      </trkpt>
      <trkpt lat="45.38318" lon="5.93123">
        <ele>856.4</ele>
        <time>2021-11-20T13:00:11.000Z</time>
      </trkpt>
      <trkpt lat="45.38303" lon="5.93113">
        <ele>853.07</ele>
        <time>2021-11-20T13:00:16.000Z</time>
      </trkpt>
      <trkpt lat="45.38286" lon="5.93095">
        <ele>853.29</ele>
        <time>2021-11-20T13:00:21.000Z</time>
      </trkpt>
      <trkpt lat="45.3827" lon="5.93079">
        <ele>858.06</ele>
        <time>2021-11-20T13:00:26.000Z</time>
      </trkpt>
      <trkpt lat="45.38255" lon="5.93061">
        <ele>861.78</ele>
        <time>2021-11-20T13:00:31.000Z</time>
      </trkpt>
      <trkpt lat="45.3824" lon="5.93047">
        <ele>864.84</ele>
        <time>2021-11-20T13:00:36.000Z</time>
      </trkpt>
      <trkpt lat="45.38221" lon="5.93033">
        <ele>864.14</ele>
        <time>2021-11-20T13:00:41.000Z</time>
      </trkpt>
      <trkpt lat="45.382" lon="5.93025">
        <ele>866.93</ele>
        <time>2021-11-20T13:00:46.000Z</time>
      </trkpt>
      <trkpt lat="45.38185" lon="5.93009">
        <ele>866.21</ele>
        <time>2021-11-20T13:00:51.000Z</time>
      </trkpt>
      <trkpt lat="45.38175" lon="5.92993">
        <ele>871.87</ele>
        <time>2021-11-20T13:00:56.000Z</time>
      </trkpt>
      <trkpt lat="45.38177" lon="5.9298">
        <ele>864.75</ele>
        <time>2021-11-20T13:01:14.000Z</time>
      </trkpt>
      <trkpt lat="45.3817" lon="5.92972">
        <ele>881.57</ele>
        <time>2021-11-20T13:34:29.000Z</time>
      </trkpt>
      <trkpt lat="45.38163" lon="5.92948">
        <ele>878.09</ele>
        <time>2021-11-20T13:34:34.000Z</time>
      </trkpt>
      <trkpt lat="45.38156" lon="5.92923">
        <ele>873.83</ele>
        <time>2021-11-20T13:34:39.000Z</time>
      </trkpt>
      <trkpt lat="45.38146" lon="5.92896">
        <ele>870.46</ele>
        <time>2021-11-20T13:34:44.000Z</time>
      </trkpt>
      <trkpt lat="45.38129" lon="5.92876">
        <ele>868.15</ele>
        <time>2021-11-20T13:34:49.000Z</time>
      </trkpt>
      <trkpt lat="45.38104" lon="5.92867">
        <ele>867.27</ele>
        <time>2021-11-20T13:34:54.000Z</time>
      </trkpt>
      <trkpt lat="45.38085" lon="5.92848">
        <ele>868.26</ele>
        <time>2021-11-20T13:34:59.000Z</time>
      </trkpt>
      <trkpt lat="45.38069" lon="5.92821">
        <ele>869.56</ele>
        <time>2021-11-20T13:35:04.000Z</time>
      </trkpt>
      <trkpt lat="45.38057" lon="5.92791">
        <ele>870.28</ele>
        <time>2021-11-20T13:35:09.000Z</time>
      </trkpt>
      <trkpt lat="45.38038" lon="5.92765">
        <ele>867.99</ele>
        <time>2021-11-20T13:35:14.000Z</time>
      </trkpt>
      <trkpt lat="45.38015" lon="5.92761">
        <ele>868.93</ele>
        <time>2021-11-20T13:35:19.000Z</time>
      </trkpt>
      <trkpt lat="45.37986" lon="5.92769">
        <ele>869.15</ele>
        <time>2021-11-20T13:35:24.000Z</time>
      </trkpt>
      <trkpt lat="45.37966" lon="5.92756">
        <ele>871.13</ele>
        <time>2021-11-20T13:35:29.000Z</time>
      </trkpt>
      <trkpt lat="45.37946" lon="5.92738">
        <ele>869.43</ele>
        <time>2021-11-20T13:35:34.000Z</time>
      </trkpt>
      <trkpt lat="45.37935" lon="5.92727">
        <ele>868.14</ele>
        <time>2021-11-20T13:35:39.000Z</time>
      </trkpt>
      <trkpt lat="45.37928" lon="5.92734">
        <ele>872.67</ele>
        <time>2021-11-20T13:35:51.000Z</time>
      </trkpt>
      <trkpt lat="45.37921" lon="5.92721">
        <ele>871.11</ele>
        <time>2021-11-20T13:36:41.000Z</time>
      </trkpt>
      <trkpt lat="45.37909" lon="5.92692">
        <ele>873.93</ele>
        <time>2021-11-20T13:36:46.000Z</time>
      </trkpt>
      <trkpt lat="45.37899" lon="5.92656">
        <ele>871.36</ele>
        <time>2021-11-20T13:36:51.000Z</time>
      </trkpt>
      <trkpt lat="45.37897" lon="5.92626">
        <ele>869.81</ele>
        <time>2021-11-20T13:36:56.000Z</time>
      </trkpt>
      <trkpt lat="45.37903" lon="5.92595">
        <ele>867.08</ele>
        <time>2021-11-20T13:37:01.000Z</time>
      </trkpt>
      <trkpt lat="45.37914" lon="5.92569">
        <ele>866</ele>
        <time>2021-11-20T13:37:06.000Z</time>
      </trkpt>
      <trkpt lat="45.37931" lon="5.92542">
        <ele>868.24</ele>
        <time>2021-11-20T13:37:11.000Z</time>
      </trkpt>
      <trkpt lat="45.37949" lon="5.92514">
        <ele>866.85</ele>
        <time>2021-11-20T13:37:16.000Z</time>
      </trkpt>
      <trkpt lat="45.37966" lon="5.92482">
        <ele>867.86</ele>
        <time>2021-11-20T13:37:21.000Z</time>
      </trkpt>
      <trkpt lat="45.37978" lon="5.92448">
        <ele>868.78</ele>
        <time>2021-11-20T13:37:26.000Z</time>
      </trkpt>
      <trkpt lat="45.37989" lon="5.9242">
        <ele>868.03</ele>
        <time>2021-11-20T13:37:31.000Z</time>
      </trkpt>
      <trkpt lat="45.38003" lon="5.92399">
        <ele>867.48</ele>
        <time>2021-11-20T13:37:36.000Z</time>
      </trkpt>
      <trkpt lat="45.38016" lon="5.9238">
        <ele>871.07</ele>
        <time>2021-11-20T13:37:41.000Z</time>
      </trkpt>
      <trkpt lat="45.38024" lon="5.92352">
        <ele>870.16</ele>
        <time>2021-11-20T13:37:46.000Z</time>
      </trkpt>
      <trkpt lat="45.38034" lon="5.92324">
        <ele>870.81</ele>
        <time>2021-11-20T13:37:51.000Z</time>
      </trkpt>
      <trkpt lat="45.38041" lon="5.92298">
        <ele>872.58</ele>
        <time>2021-11-20T13:37:56.000Z</time>
      </trkpt>
      <trkpt lat="45.38048" lon="5.92269">
        <ele>871.91</ele>
        <time>2021-11-20T13:38:01.000Z</time>
      </trkpt>
      <trkpt lat="45.38048" lon="5.92242">
        <ele>873.46</ele>
        <time>2021-11-20T13:38:06.000Z</time>
      </trkpt>
      <trkpt lat="45.38052" lon="5.92215">
        <ele>873.95</ele>
        <time>2021-11-20T13:38:11.000Z</time>
      </trkpt>
      <trkpt lat="45.38047" lon="5.92189">
        <ele>873.22</ele>
        <time>2021-11-20T13:38:16.000Z</time>
      </trkpt>
      <trkpt lat="45.38033" lon="5.92172">
        <ele>875.65</ele>
        <time>2021-11-20T13:38:21.000Z</time>
      </trkpt>
      <trkpt lat="45.38017" lon="5.92174">
        <ele>875.95</ele>
        <time>2021-11-20T13:38:26.000Z</time>
      </trkpt>
      <trkpt lat="45.37997" lon="5.92182">
        <ele>877.79</ele>
        <time>2021-11-20T13:38:31.000Z</time>
      </trkpt>
      <trkpt lat="45.3797" lon="5.92175">
        <ele>882.35</ele>
        <time>2021-11-20T13:38:36.000Z</time>
      </trkpt>
      <trkpt lat="45.37942" lon="5.92158">
        <ele>883.21</ele>
        <time>2021-11-20T13:38:41.000Z</time>
      </trkpt>
      <trkpt lat="45.37908" lon="5.92145">
        <ele>885.34</ele>
        <time>2021-11-20T13:38:46.000Z</time>
      </trkpt>
      <trkpt lat="45.37879" lon="5.92129">
        <ele>885.08</ele>
        <time>2021-11-20T13:38:51.000Z</time>
      </trkpt>
      <trkpt lat="45.37856" lon="5.92105">
        <ele>882.43</ele>
        <time>2021-11-20T13:38:56.000Z</time>
      </trkpt>
      <trkpt lat="45.37834" lon="5.92084">
        <ele>883.36</ele>
        <time>2021-11-20T13:39:01.000Z</time>
      </trkpt>
      <trkpt lat="45.37809" lon="5.92066">
        <ele>882.07</ele>
        <time>2021-11-20T13:39:06.000Z</time>
      </trkpt>
      <trkpt lat="45.37778" lon="5.92057">
        <ele>882.53</ele>
        <time>2021-11-20T13:39:11.000Z</time>
      </trkpt>
      <trkpt lat="45.37738" lon="5.92046">
        <ele>883.7</ele>
        <time>2021-11-20T13:39:16.000Z</time>
      </trkpt>
      <trkpt lat="45.37693" lon="5.92015">
        <ele>875.22</ele>
        <time>2021-11-20T13:39:21.000Z</time>
      </trkpt>
      <trkpt lat="45.37639" lon="5.92023">
        <ele>873.39</ele>
        <time>2021-11-20T13:39:26.000Z</time>
      </trkpt>
      <trkpt lat="45.37584" lon="5.92011">
        <ele>870.39</ele>
        <time>2021-11-20T13:39:31.000Z</time>
      </trkpt>
      <trkpt lat="45.3753" lon="5.92027">
        <ele>870.6</ele>
        <time>2021-11-20T13:39:36.000Z</time>
      </trkpt>
      <trkpt lat="45.37473" lon="5.92052">
        <ele>869.23</ele>
        <time>2021-11-20T13:39:41.000Z</time>
      </trkpt>
      <trkpt lat="45.37435" lon="5.92088">
        <ele>867.41</ele>
        <time>2021-11-20T13:39:46.000Z</time>
      </trkpt>
      <trkpt lat="45.37422" lon="5.92128">
        <ele>872.22</ele>
        <time>2021-11-20T13:39:51.000Z</time>
      </trkpt>
      <trkpt lat="45.37413" lon="5.92152">
        <ele>871.82</ele>
        <time>2021-11-20T13:39:56.000Z</time>
      </trkpt>
      <trkpt lat="45.37408" lon="5.92181">
        <ele>868.99</ele>
        <time>2021-11-20T13:40:01.000Z</time>
      </trkpt>
      <trkpt lat="45.37396" lon="5.92201">
        <ele>869.18</ele>
        <time>2021-11-20T13:40:06.000Z</time>
      </trkpt>
      <trkpt lat="45.37382" lon="5.9222">
        <ele>875.07</ele>
        <time>2021-11-20T13:40:11.000Z</time>
      </trkpt>
      <trkpt lat="45.37368" lon="5.92234">
        <ele>877.55</ele>
        <time>2021-11-20T13:40:16.000Z</time>
      </trkpt>
      <trkpt lat="45.37359" lon="5.92256">
        <ele>876.72</ele>
        <time>2021-11-20T13:40:21.000Z</time>
      </trkpt>
      <trkpt lat="45.37355" lon="5.92284">
        <ele>875.59</ele>
        <time>2021-11-20T13:40:26.000Z</time>
      </trkpt>
      <trkpt lat="45.37348" lon="5.92302">
        <ele>877.56</ele>
        <time>2021-11-20T13:40:31.000Z</time>
      </trkpt>
      <trkpt lat="45.37337" lon="5.92319">
        <ele>878.39</ele>
        <time>2021-11-20T13:40:36.000Z</time>
      </trkpt>
      <trkpt lat="45.3732" lon="5.92325">
        <ele>879.33</ele>
        <time>2021-11-20T13:40:41.000Z</time>
      </trkpt>
      <trkpt lat="45.37301" lon="5.92319">
        <ele>880</ele>
        <time>2021-11-20T13:40:46.000Z</time>
      </trkpt>
      <trkpt lat="45.37279" lon="5.92321">
        <ele>881.45</ele>
        <time>2021-11-20T13:40:51.000Z</time>
      </trkpt>
      <trkpt lat="45.37262" lon="5.92317">
        <ele>883.14</ele>
        <time>2021-11-20T13:40:56.000Z</time>
      </trkpt>
      <trkpt lat="45.3725" lon="5.92298">
        <ele>884.31</ele>
        <time>2021-11-20T13:41:01.000Z</time>
      </trkpt>
      <trkpt lat="45.37238" lon="5.92281">
        <ele>885.94</ele>
        <time>2021-11-20T13:41:06.000Z</time>
      </trkpt>
      <trkpt lat="45.37228" lon="5.92261">
        <ele>888.28</ele>
        <time>2021-11-20T13:41:11.000Z</time>
      </trkpt>
      <trkpt lat="45.37219" lon="5.92239">
        <ele>887.72</ele>
        <time>2021-11-20T13:41:16.000Z</time>
      </trkpt>
      <trkpt lat="45.37202" lon="5.92226">
        <ele>890.51</ele>
        <time>2021-11-20T13:41:21.000Z</time>
      </trkpt>
      <trkpt lat="45.37184" lon="5.92229">
        <ele>888.51</ele>
        <time>2021-11-20T13:41:26.000Z</time>
      </trkpt>
      <trkpt lat="45.37164" lon="5.92234">
        <ele>890.24</ele>
        <time>2021-11-20T13:41:31.000Z</time>
      </trkpt>
      <trkpt lat="45.37149" lon="5.92234">
        <ele>892.34</ele>
        <time>2021-11-20T13:41:36.000Z</time>
      </trkpt>
      <trkpt lat="45.37133" lon="5.92235">
        <ele>890.59</ele>
        <time>2021-11-20T13:41:41.000Z</time>
      </trkpt>
      <trkpt lat="45.37117" lon="5.92239">
        <ele>892.96</ele>
        <time>2021-11-20T13:41:46.000Z</time>
      </trkpt>
      <trkpt lat="45.37101" lon="5.92245">
        <ele>896.31</ele>
        <time>2021-11-20T13:41:51.000Z</time>
      </trkpt>
      <trkpt lat="45.37084" lon="5.92253">
        <ele>900.65</ele>
        <time>2021-11-20T13:41:56.000Z</time>
      </trkpt>
      <trkpt lat="45.37067" lon="5.92257">
        <ele>903.01</ele>
        <time>2021-11-20T13:42:01.000Z</time>
      </trkpt>
      <trkpt lat="45.3705" lon="5.92256">
        <ele>907.14</ele>
        <time>2021-11-20T13:42:06.000Z</time>
      </trkpt>
      <trkpt lat="45.37033" lon="5.92254">
        <ele>907.53</ele>
        <time>2021-11-20T13:42:11.000Z</time>
      </trkpt>
      <trkpt lat="45.37016" lon="5.92245">
        <ele>907.18</ele>
        <time>2021-11-20T13:42:16.000Z</time>
      </trkpt>
      <trkpt lat="45.37001" lon="5.9224">
        <ele>905.35</ele>
        <time>2021-11-20T13:42:21.000Z</time>
      </trkpt>
      <trkpt lat="45.36985" lon="5.92235">
        <ele>907.4</ele>
        <time>2021-11-20T13:42:26.000Z</time>
      </trkpt>
      <trkpt lat="45.3697" lon="5.92227">
        <ele>908.85</ele>
        <time>2021-11-20T13:42:31.000Z</time>
      </trkpt>
      <trkpt lat="45.36955" lon="5.92218">
        <ele>910.66</ele>
        <time>2021-11-20T13:42:36.000Z</time>
      </trkpt>
      <trkpt lat="45.36938" lon="5.92213">
        <ele>911.41</ele>
        <time>2021-11-20T13:42:41.000Z</time>
      </trkpt>
      <trkpt lat="45.36919" lon="5.92207">
        <ele>911.24</ele>
        <time>2021-11-20T13:42:46.000Z</time>
      </trkpt>
      <trkpt lat="45.36903" lon="5.92196">
        <ele>913.39</ele>
        <time>2021-11-20T13:42:51.000Z</time>
      </trkpt>
      <trkpt lat="45.36888" lon="5.92184">
        <ele>913.35</ele>
        <time>2021-11-20T13:42:56.000Z</time>
      </trkpt>
      <trkpt lat="45.36873" lon="5.92174">
        <ele>917.85</ele>
        <time>2021-11-20T13:43:01.000Z</time>
      </trkpt>
      <trkpt lat="45.36863" lon="5.92154">
        <ele>922.42</ele>
        <time>2021-11-20T13:43:06.000Z</time>
      </trkpt>
      <trkpt lat="45.36861" lon="5.92129">
        <ele>922.81</ele>
        <time>2021-11-20T13:43:11.000Z</time>
      </trkpt>
      <trkpt lat="45.36859" lon="5.92105">
        <ele>925.62</ele>
        <time>2021-11-20T13:43:16.000Z</time>
      </trkpt>
      <trkpt lat="45.36862" lon="5.92071">
        <ele>926.58</ele>
        <time>2021-11-20T13:43:25.000Z</time>
      </trkpt>
      <trkpt lat="45.36847" lon="5.92058">
        <ele>928.44</ele>
        <time>2021-11-20T13:43:30.000Z</time>
      </trkpt>
      <trkpt lat="45.36829" lon="5.92062">
        <ele>933.54</ele>
        <time>2021-11-20T13:43:35.000Z</time>
      </trkpt>
      <trkpt lat="45.36811" lon="5.92076">
        <ele>932.49</ele>
        <time>2021-11-20T13:43:40.000Z</time>
      </trkpt>
      <trkpt lat="45.36795" lon="5.9209">
        <ele>933.74</ele>
        <time>2021-11-20T13:43:45.000Z</time>
      </trkpt>
      <trkpt lat="45.36778" lon="5.92098">
        <ele>940.07</ele>
        <time>2021-11-20T13:43:50.000Z</time>
      </trkpt>
      <trkpt lat="45.36759" lon="5.921">
        <ele>945.32</ele>
        <time>2021-11-20T13:43:55.000Z</time>
      </trkpt>
      <trkpt lat="45.36742" lon="5.921">
        <ele>946.1</ele>
        <time>2021-11-20T13:44:00.000Z</time>
      </trkpt>
      <trkpt lat="45.36725" lon="5.92097">
        <ele>946.6</ele>
        <time>2021-11-20T13:44:05.000Z</time>
      </trkpt>
      <trkpt lat="45.36708" lon="5.92094">
        <ele>944.18</ele>
        <time>2021-11-20T13:44:10.000Z</time>
      </trkpt>
      <trkpt lat="45.36692" lon="5.92088">
        <ele>946.61</ele>
        <time>2021-11-20T13:44:15.000Z</time>
      </trkpt>
      <trkpt lat="45.36672" lon="5.92086">
        <ele>953.86</ele>
        <time>2021-11-20T13:44:20.000Z</time>
      </trkpt>
      <trkpt lat="45.36654" lon="5.92082">
        <ele>955.53</ele>
        <time>2021-11-20T13:44:25.000Z</time>
      </trkpt>
      <trkpt lat="45.36638" lon="5.92073">
        <ele>957.01</ele>
        <time>2021-11-20T13:44:30.000Z</time>
      </trkpt>
      <trkpt lat="45.36624" lon="5.92064">
        <ele>956.53</ele>
        <time>2021-11-20T13:44:35.000Z</time>
      </trkpt>
      <trkpt lat="45.36607" lon="5.92055">
        <ele>957.42</ele>
        <time>2021-11-20T13:44:41.000Z</time>
      </trkpt>
      <trkpt lat="45.36587" lon="5.92047">
        <ele>961.99</ele>
        <time>2021-11-20T13:44:46.000Z</time>
      </trkpt>
      <trkpt lat="45.36568" lon="5.92043">
        <ele>962.51</ele>
        <time>2021-11-20T13:44:51.000Z</time>
      </trkpt>
      <trkpt lat="45.36547" lon="5.92039">
        <ele>963.18</ele>
        <time>2021-11-20T13:44:56.000Z</time>
      </trkpt>
      <trkpt lat="45.36528" lon="5.92038">
        <ele>965.15</ele>
        <time>2021-11-20T13:45:01.000Z</time>
      </trkpt>
      <trkpt lat="45.3651" lon="5.9204">
        <ele>969.65</ele>
        <time>2021-11-20T13:45:06.000Z</time>
      </trkpt>
      <trkpt lat="45.36496" lon="5.92036">
        <ele>972.62</ele>
        <time>2021-11-20T13:45:11.000Z</time>
      </trkpt>
      <trkpt lat="45.36476" lon="5.92035">
        <ele>975.09</ele>
        <time>2021-11-20T13:45:16.000Z</time>
      </trkpt>
      <trkpt lat="45.36456" lon="5.92035">
        <ele>976.41</ele>
        <time>2021-11-20T13:45:21.000Z</time>
      </trkpt>
      <trkpt lat="45.36436" lon="5.92039">
        <ele>977.41</ele>
        <time>2021-11-20T13:45:26.000Z</time>
      </trkpt>
      <trkpt lat="45.36419" lon="5.92044">
        <ele>973.17</ele>
        <time>2021-11-20T13:45:31.000Z</time>
      </trkpt>
      <trkpt lat="45.36403" lon="5.92045">
        <ele>974.33</ele>
        <time>2021-11-20T13:45:36.000Z</time>
      </trkpt>
      <trkpt lat="45.36386" lon="5.92044">
        <ele>977.9</ele>
        <time>2021-11-20T13:45:41.000Z</time>
      </trkpt>
      <trkpt lat="45.36368" lon="5.9204">
        <ele>979.77</ele>
        <time>2021-11-20T13:45:46.000Z</time>
      </trkpt>
      <trkpt lat="45.36346" lon="5.92036">
        <ele>979.95</ele>
        <time>2021-11-20T13:45:51.000Z</time>
      </trkpt>
      <trkpt lat="45.36334" lon="5.92016">
        <ele>980.07</ele>
        <time>2021-11-20T13:45:56.000Z</time>
      </trkpt>
      <trkpt lat="45.36321" lon="5.91998">
        <ele>984.41</ele>
        <time>2021-11-20T13:46:01.000Z</time>
      </trkpt>
      <trkpt lat="45.36305" lon="5.91989">
        <ele>988.44</ele>
        <time>2021-11-20T13:46:06.000Z</time>
      </trkpt>
      <trkpt lat="45.36289" lon="5.91988">
        <ele>990.61</ele>
        <time>2021-11-20T13:46:11.000Z</time>
      </trkpt>
      <trkpt lat="45.3627" lon="5.91982">
        <ele>990.17</ele>
        <time>2021-11-20T13:46:16.000Z</time>
      </trkpt>
      <trkpt lat="45.36251" lon="5.91969">
        <ele>992.14</ele>
        <time>2021-11-20T13:46:21.000Z</time>
      </trkpt>
      <trkpt lat="45.36235" lon="5.91958">
        <ele>994.9</ele>
        <time>2021-11-20T13:46:26.000Z</time>
      </trkpt>
      <trkpt lat="45.36218" lon="5.91955">
        <ele>996.6</ele>
        <time>2021-11-20T13:46:31.000Z</time>
      </trkpt>
      <trkpt lat="45.36198" lon="5.91959">
        <ele>996.34</ele>
        <time>2021-11-20T13:46:36.000Z</time>
      </trkpt>
      <trkpt lat="45.36176" lon="5.91959">
        <ele>996.89</ele>
        <time>2021-11-20T13:46:41.000Z</time>
      </trkpt>
      <trkpt lat="45.36158" lon="5.91948">
        <ele>998.46</ele>
        <time>2021-11-20T13:46:46.000Z</time>
      </trkpt>
      <trkpt lat="45.36138" lon="5.91939">
        <ele>1000.38</ele>
        <time>2021-11-20T13:46:51.000Z</time>
      </trkpt>
      <trkpt lat="45.36122" lon="5.91928">
        <ele>999.65</ele>
        <time>2021-11-20T13:46:56.000Z</time>
      </trkpt>
      <trkpt lat="45.36106" lon="5.91913">
        <ele>997.48</ele>
        <time>2021-11-20T13:47:01.000Z</time>
      </trkpt>
      <trkpt lat="45.36091" lon="5.91893">
        <ele>995.32</ele>
        <time>2021-11-20T13:47:06.000Z</time>
      </trkpt>
      <trkpt lat="45.36077" lon="5.91874">
        <ele>995.94</ele>
        <time>2021-11-20T13:47:11.000Z</time>
      </trkpt>
      <trkpt lat="45.3606" lon="5.91856">
        <ele>994.19</ele>
        <time>2021-11-20T13:47:16.000Z</time>
      </trkpt>
      <trkpt lat="45.36045" lon="5.91836">
        <ele>995.5</ele>
        <time>2021-11-20T13:47:21.000Z</time>
      </trkpt>
      <trkpt lat="45.36028" lon="5.91816">
        <ele>997.12</ele>
        <time>2021-11-20T13:47:26.000Z</time>
      </trkpt>
      <trkpt lat="45.36012" lon="5.91797">
        <ele>996.91</ele>
        <time>2021-11-20T13:47:31.000Z</time>
      </trkpt>
      <trkpt lat="45.35995" lon="5.91787">
        <ele>994.69</ele>
        <time>2021-11-20T13:47:36.000Z</time>
      </trkpt>
      <trkpt lat="45.35978" lon="5.91787">
        <ele>997.7</ele>
        <time>2021-11-20T13:47:41.000Z</time>
      </trkpt>
      <trkpt lat="45.3596" lon="5.91783">
        <ele>1000.82</ele>
        <time>2021-11-20T13:47:46.000Z</time>
      </trkpt>
      <trkpt lat="45.35944" lon="5.91779">
        <ele>1001.91</ele>
        <time>2021-11-20T13:47:51.000Z</time>
      </trkpt>
      <trkpt lat="45.35928" lon="5.91774">
        <ele>1000.3</ele>
        <time>2021-11-20T13:47:56.000Z</time>
      </trkpt>
      <trkpt lat="45.35908" lon="5.91769">
        <ele>1003.19</ele>
        <time>2021-11-20T13:48:01.000Z</time>
      </trkpt>
      <trkpt lat="45.35889" lon="5.91769">
        <ele>1005.82</ele>
        <time>2021-11-20T13:48:06.000Z</time>
      </trkpt>
      <trkpt lat="45.35872" lon="5.91773">
        <ele>1005.52</ele>
        <time>2021-11-20T13:48:11.000Z</time>
      </trkpt>
      <trkpt lat="45.35853" lon="5.91775">
        <ele>1005.17</ele>
        <time>2021-11-20T13:48:16.000Z</time>
      </trkpt>
      <trkpt lat="45.35835" lon="5.91772">
        <ele>1008.23</ele>
        <time>2021-11-20T13:48:21.000Z</time>
      </trkpt>
      <trkpt lat="45.35818" lon="5.91773">
        <ele>1009.94</ele>
        <time>2021-11-20T13:48:26.000Z</time>
      </trkpt>
      <trkpt lat="45.358" lon="5.91775">
        <ele>1013.52</ele>
        <time>2021-11-20T13:48:31.000Z</time>
      </trkpt>
      <trkpt lat="45.35782" lon="5.91774">
        <ele>1019.89</ele>
        <time>2021-11-20T13:48:36.000Z</time>
      </trkpt>
      <trkpt lat="45.35764" lon="5.91783">
        <ele>1027.79</ele>
        <time>2021-11-20T13:48:41.000Z</time>
      </trkpt>
      <trkpt lat="45.35745" lon="5.91791">
        <ele>1030.31</ele>
        <time>2021-11-20T13:48:46.000Z</time>
      </trkpt>
      <trkpt lat="45.35725" lon="5.91795">
        <ele>1032.58</ele>
        <time>2021-11-20T13:48:51.000Z</time>
      </trkpt>
      <trkpt lat="45.35708" lon="5.91801">
        <ele>1032.25</ele>
        <time>2021-11-20T13:48:56.000Z</time>
      </trkpt>
      <trkpt lat="45.35692" lon="5.91811">
        <ele>1036.64</ele>
        <time>2021-11-20T13:49:01.000Z</time>
      </trkpt>
      <trkpt lat="45.35673" lon="5.91825">
        <ele>1040.68</ele>
        <time>2021-11-20T13:49:06.000Z</time>
      </trkpt>
      <trkpt lat="45.35654" lon="5.91835">
        <ele>1042.15</ele>
        <time>2021-11-20T13:49:11.000Z</time>
      </trkpt>
      <trkpt lat="45.35637" lon="5.91848">
        <ele>1045.99</ele>
        <time>2021-11-20T13:49:16.000Z</time>
      </trkpt>
      <trkpt lat="45.3562" lon="5.9186">
        <ele>1048.54</ele>
        <time>2021-11-20T13:49:21.000Z</time>
      </trkpt>
      <trkpt lat="45.35605" lon="5.91871">
        <ele>1051.49</ele>
        <time>2021-11-20T13:49:26.000Z</time>
      </trkpt>
      <trkpt lat="45.3559" lon="5.91885">
        <ele>1049.52</ele>
        <time>2021-11-20T13:49:31.000Z</time>
      </trkpt>
      <trkpt lat="45.35587" lon="5.91904">
        <ele>1052.18</ele>
        <time>2021-11-20T13:49:36.000Z</time>
      </trkpt>
      <trkpt lat="45.35603" lon="5.91899">
        <ele>1051.99</ele>
        <time>2021-11-20T13:49:41.000Z</time>
      </trkpt>
      <trkpt lat="45.35614" lon="5.91896">
        <ele>1052.53</ele>
        <time>2021-11-20T13:49:46.000Z</time>
      </trkpt>
      <trkpt lat="45.35623" lon="5.91902">
        <ele>1053.25</ele>
        <time>2021-11-20T13:49:52.000Z</time>
      </trkpt>
      <trkpt lat="45.35629" lon="5.91913">
        <ele>1055.17</ele>
        <time>2021-11-20T13:49:58.000Z</time>
      </trkpt>
      <trkpt lat="45.35627" lon="5.91899">
        <ele>1055.86</ele>
        <time>2021-11-20T13:50:06.000Z</time>
      </trkpt>
      <trkpt lat="45.35616" lon="5.919">
        <ele>1056.08</ele>
        <time>2021-11-20T13:55:57.000Z</time>
      </trkpt>
      <trkpt lat="45.35604" lon="5.91899">
        <ele>1057.36</ele>
        <time>2021-11-20T13:56:02.000Z</time>
      </trkpt>
      <trkpt lat="45.35591" lon="5.91892">
        <ele>1058.16</ele>
        <time>2021-11-20T13:56:07.000Z</time>
      </trkpt>
      <trkpt lat="45.3558" lon="5.91879">
        <ele>1057.53</ele>
        <time>2021-11-20T13:56:12.000Z</time>
      </trkpt>
      <trkpt lat="45.35561" lon="5.91871">
        <ele>1057.88</ele>
        <time>2021-11-20T13:56:17.000Z</time>
      </trkpt>
      <trkpt lat="45.35534" lon="5.91865">
        <ele>1057.54</ele>
        <time>2021-11-20T13:56:22.000Z</time>
      </trkpt>
      <trkpt lat="45.35498" lon="5.91844">
        <ele>1055.65</ele>
        <time>2021-11-20T13:56:27.000Z</time>
      </trkpt>
      <trkpt lat="45.35461" lon="5.91826">
        <ele>1050.95</ele>
        <time>2021-11-20T13:56:32.000Z</time>
      </trkpt>
      <trkpt lat="45.35417" lon="5.91826">
        <ele>1050.89</ele>
        <time>2021-11-20T13:56:37.000Z</time>
      </trkpt>
      <trkpt lat="45.35378" lon="5.91811">
        <ele>1051.97</ele>
        <time>2021-11-20T13:56:42.000Z</time>
      </trkpt>
      <trkpt lat="45.35338" lon="5.9177">
        <ele>1051.17</ele>
        <time>2021-11-20T13:56:47.000Z</time>
      </trkpt>
      <trkpt lat="45.35315" lon="5.91697">
        <ele>1049.49</ele>
        <time>2021-11-20T13:56:52.000Z</time>
      </trkpt>
      <trkpt lat="45.35271" lon="5.9164">
        <ele>1046.62</ele>
        <time>2021-11-20T13:56:57.000Z</time>
      </trkpt>
      <trkpt lat="45.35228" lon="5.91605">
        <ele>1044.45</ele>
        <time>2021-11-20T13:57:02.000Z</time>
      </trkpt>
      <trkpt lat="45.35193" lon="5.91566">
        <ele>1044.03</ele>
        <time>2021-11-20T13:57:07.000Z</time>
      </trkpt>
      <trkpt lat="45.35161" lon="5.91535">
        <ele>1043.78</ele>
        <time>2021-11-20T13:57:12.000Z</time>
      </trkpt>
      <trkpt lat="45.35132" lon="5.91509">
        <ele>1041.12</ele>
        <time>2021-11-20T13:57:17.000Z</time>
      </trkpt>
      <trkpt lat="45.35109" lon="5.91485">
        <ele>1032.97</ele>
        <time>2021-11-20T13:57:22.000Z</time>
      </trkpt>
      <trkpt lat="45.35083" lon="5.91463">
        <ele>1030.34</ele>
        <time>2021-11-20T13:57:27.000Z</time>
      </trkpt>
      <trkpt lat="45.35059" lon="5.91438">
        <ele>1031.75</ele>
        <time>2021-11-20T13:57:32.000Z</time>
      </trkpt>
      <trkpt lat="45.35036" lon="5.91416">
        <ele>1031.17</ele>
        <time>2021-11-20T13:57:37.000Z</time>
      </trkpt>
      <trkpt lat="45.3501" lon="5.91396">
        <ele>1029.73</ele>
        <time>2021-11-20T13:57:42.000Z</time>
      </trkpt>
      <trkpt lat="45.3498" lon="5.91372">
        <ele>1027.68</ele>
        <time>2021-11-20T13:57:47.000Z</time>
      </trkpt>
      <trkpt lat="45.34942" lon="5.91344">
        <ele>1026.91</ele>
        <time>2021-11-20T13:57:52.000Z</time>
      </trkpt>
      <trkpt lat="45.34902" lon="5.91309">
        <ele>1025.76</ele>
        <time>2021-11-20T13:57:57.000Z</time>
      </trkpt>
      <trkpt lat="45.34855" lon="5.91278">
        <ele>1025.08</ele>
        <time>2021-11-20T13:58:02.000Z</time>
      </trkpt>
      <trkpt lat="45.34815" lon="5.91221">
        <ele>1024.57</ele>
        <time>2021-11-20T13:58:07.000Z</time>
      </trkpt>
      <trkpt lat="45.34779" lon="5.91162">
        <ele>1020.87</ele>
        <time>2021-11-20T13:58:12.000Z</time>
      </trkpt>
      <trkpt lat="45.34752" lon="5.91097">
        <ele>1016.95</ele>
        <time>2021-11-20T13:58:17.000Z</time>
      </trkpt>
      <trkpt lat="45.34737" lon="5.91043">
        <ele>1015.99</ele>
        <time>2021-11-20T13:58:22.000Z</time>
      </trkpt>
      <trkpt lat="45.34727" lon="5.90993">
        <ele>1013.67</ele>
        <time>2021-11-20T13:58:27.000Z</time>
      </trkpt>
      <trkpt lat="45.34718" lon="5.90949">
        <ele>1013.85</ele>
        <time>2021-11-20T13:58:32.000Z</time>
      </trkpt>
      <trkpt lat="45.34708" lon="5.90913">
        <ele>1014.87</ele>
        <time>2021-11-20T13:58:37.000Z</time>
      </trkpt>
      <trkpt lat="45.34691" lon="5.90878">
        <ele>1016.87</ele>
        <time>2021-11-20T13:58:42.000Z</time>
      </trkpt>
      <trkpt lat="45.34664" lon="5.9085">
        <ele>1017.62</ele>
        <time>2021-11-20T13:58:47.000Z</time>
      </trkpt>
      <trkpt lat="45.34639" lon="5.90836">
        <ele>1018.38</ele>
        <time>2021-11-20T13:58:52.000Z</time>
      </trkpt>
      <trkpt lat="45.3461" lon="5.90813">
        <ele>1017.88</ele>
        <time>2021-11-20T13:58:57.000Z</time>
      </trkpt>
      <trkpt lat="45.34582" lon="5.908">
        <ele>1017.86</ele>
        <time>2021-11-20T13:59:02.000Z</time>
      </trkpt>
      <trkpt lat="45.34568" lon="5.90769">
        <ele>1016.43</ele>
        <time>2021-11-20T13:59:07.000Z</time>
      </trkpt>
      <trkpt lat="45.34574" lon="5.90735">
        <ele>1014.09</ele>
        <time>2021-11-20T13:59:12.000Z</time>
      </trkpt>
      <trkpt lat="45.34574" lon="5.90686">
        <ele>1011.27</ele>
        <time>2021-11-20T13:59:17.000Z</time>
      </trkpt>
      <trkpt lat="45.34563" lon="5.90643">
        <ele>1010.86</ele>
        <time>2021-11-20T13:59:22.000Z</time>
      </trkpt>
      <trkpt lat="45.3453" lon="5.90639">
        <ele>1012.42</ele>
        <time>2021-11-20T13:59:27.000Z</time>
      </trkpt>
      <trkpt lat="45.34502" lon="5.9062">
        <ele>1014.88</ele>
        <time>2021-11-20T13:59:32.000Z</time>
      </trkpt>
      <trkpt lat="45.34477" lon="5.90588">
        <ele>1015.48</ele>
        <time>2021-11-20T13:59:37.000Z</time>
      </trkpt>
      <trkpt lat="45.3445" lon="5.9056">
        <ele>1014.16</ele>
        <time>2021-11-20T13:59:42.000Z</time>
      </trkpt>
      <trkpt lat="45.34421" lon="5.90548">
        <ele>1018.09</ele>
        <time>2021-11-20T13:59:47.000Z</time>
      </trkpt>
      <trkpt lat="45.34398" lon="5.90556">
        <ele>1017.42</ele>
        <time>2021-11-20T13:59:52.000Z</time>
      </trkpt>
      <trkpt lat="45.34385" lon="5.90556">
        <ele>1017.73</ele>
        <time>2021-11-20T14:00:24.000Z</time>
      </trkpt>
      <trkpt lat="45.34368" lon="5.90545">
        <ele>1019.78</ele>
        <time>2021-11-20T14:00:29.000Z</time>
      </trkpt>
      <trkpt lat="45.34341" lon="5.90507">
        <ele>1013.42</ele>
        <time>2021-11-20T14:00:34.000Z</time>
      </trkpt>
      <trkpt lat="45.34296" lon="5.90484">
        <ele>1012</ele>
        <time>2021-11-20T14:00:39.000Z</time>
      </trkpt>
      <trkpt lat="45.3425" lon="5.90516">
        <ele>1007.95</ele>
        <time>2021-11-20T14:00:44.000Z</time>
      </trkpt>
      <trkpt lat="45.34197" lon="5.90509">
        <ele>1005.29</ele>
        <time>2021-11-20T14:00:49.000Z</time>
      </trkpt>
      <trkpt lat="45.34153" lon="5.90483">
        <ele>1006.61</ele>
        <time>2021-11-20T14:00:54.000Z</time>
      </trkpt>
      <trkpt lat="45.34113" lon="5.90444">
        <ele>1004.04</ele>
        <time>2021-11-20T14:00:59.000Z</time>
      </trkpt>
      <trkpt lat="45.34097" lon="5.90384">
        <ele>1002.85</ele>
        <time>2021-11-20T14:01:04.000Z</time>
      </trkpt>
      <trkpt lat="45.34074" lon="5.9034">
        <ele>1003.48</ele>
        <time>2021-11-20T14:01:09.000Z</time>
      </trkpt>
      <trkpt lat="45.3404" lon="5.90357">
        <ele>1001.13</ele>
        <time>2021-11-20T14:01:14.000Z</time>
      </trkpt>
      <trkpt lat="45.3401" lon="5.90365">
        <ele>999.17</ele>
        <time>2021-11-20T14:01:19.000Z</time>
      </trkpt>
      <trkpt lat="45.33981" lon="5.9036">
        <ele>1004.35</ele>
        <time>2021-11-20T14:01:24.000Z</time>
      </trkpt>
      <trkpt lat="45.3395" lon="5.90356">
        <ele>999.52</ele>
        <time>2021-11-20T14:01:29.000Z</time>
      </trkpt>
      <trkpt lat="45.33918" lon="5.9034">
        <ele>1004.28</ele>
        <time>2021-11-20T14:01:34.000Z</time>
      </trkpt>
      <trkpt lat="45.33892" lon="5.90321">
        <ele>1003.27</ele>
        <time>2021-11-20T14:01:39.000Z</time>
      </trkpt>
      <trkpt lat="45.33865" lon="5.90303">
        <ele>1003.97</ele>
        <time>2021-11-20T14:01:44.000Z</time>
      </trkpt>
      <trkpt lat="45.33839" lon="5.90277">
        <ele>1005.67</ele>
        <time>2021-11-20T14:01:49.000Z</time>
      </trkpt>
      <trkpt lat="45.3382" lon="5.90234">
        <ele>1002.18</ele>
        <time>2021-11-20T14:01:54.000Z</time>
      </trkpt>
      <trkpt lat="45.33803" lon="5.90193">
        <ele>999</ele>
        <time>2021-11-20T14:01:59.000Z</time>
      </trkpt>
      <trkpt lat="45.33794" lon="5.90197">
        <ele>992.71</ele>
        <time>2021-11-20T14:02:04.000Z</time>
      </trkpt>
      <trkpt lat="45.33782" lon="5.90199">
        <ele>989.35</ele>
        <time>2021-11-20T14:02:10.000Z</time>
      </trkpt>
      <trkpt lat="45.33758" lon="5.90214">
        <ele>985.94</ele>
        <time>2021-11-20T14:02:15.000Z</time>
      </trkpt>
      <trkpt lat="45.33725" lon="5.90228">
        <ele>984.66</ele>
        <time>2021-11-20T14:02:20.000Z</time>
      </trkpt>
      <trkpt lat="45.3368" lon="5.90237">
        <ele>980.11</ele>
        <time>2021-11-20T14:02:25.000Z</time>
      </trkpt>
      <trkpt lat="45.33624" lon="5.90228">
        <ele>976.16</ele>
        <time>2021-11-20T14:02:30.000Z</time>
      </trkpt>
      <trkpt lat="45.33564" lon="5.90229">
        <ele>974.94</ele>
        <time>2021-11-20T14:02:35.000Z</time>
      </trkpt>
      <trkpt lat="45.33501" lon="5.90252">
        <ele>970.51</ele>
        <time>2021-11-20T14:02:40.000Z</time>
      </trkpt>
      <trkpt lat="45.33438" lon="5.90284">
        <ele>965.49</ele>
        <time>2021-11-20T14:02:45.000Z</time>
      </trkpt>
      <trkpt lat="45.33371" lon="5.90259">
        <ele>956.71</ele>
        <time>2021-11-20T14:02:50.000Z</time>
      </trkpt>
      <trkpt lat="45.33304" lon="5.90224">
        <ele>952.85</ele>
        <time>2021-11-20T14:02:55.000Z</time>
      </trkpt>
      <trkpt lat="45.3323" lon="5.90219">
        <ele>950.35</ele>
        <time>2021-11-20T14:03:00.000Z</time>
      </trkpt>
      <trkpt lat="45.33156" lon="5.90262">
        <ele>944.53</ele>
        <time>2021-11-20T14:03:05.000Z</time>
      </trkpt>
      <trkpt lat="45.33093" lon="5.90284">
        <ele>934.58</ele>
        <time>2021-11-20T14:03:10.000Z</time>
      </trkpt>
      <trkpt lat="45.33034" lon="5.9031">
        <ele>927.97</ele>
        <time>2021-11-20T14:03:15.000Z</time>
      </trkpt>
      <trkpt lat="45.32981" lon="5.90329">
        <ele>923.76</ele>
        <time>2021-11-20T14:03:20.000Z</time>
      </trkpt>
      <trkpt lat="45.32938" lon="5.90349">
        <ele>924.02</ele>
        <time>2021-11-20T14:03:25.000Z</time>
      </trkpt>
      <trkpt lat="45.32911" lon="5.90346">
        <ele>921.52</ele>
        <time>2021-11-20T14:03:30.000Z</time>
      </trkpt>
      <trkpt lat="45.32901" lon="5.90324">
        <ele>923.39</ele>
        <time>2021-11-20T14:03:35.000Z</time>
      </trkpt>
      <trkpt lat="45.32889" lon="5.90296">
        <ele>923.45</ele>
        <time>2021-11-20T14:03:40.000Z</time>
      </trkpt>
      <trkpt lat="45.32878" lon="5.90272">
        <ele>925.15</ele>
        <time>2021-11-20T14:03:45.000Z</time>
      </trkpt>
      <trkpt lat="45.32863" lon="5.90254">
        <ele>925.95</ele>
        <time>2021-11-20T14:03:50.000Z</time>
      </trkpt>
      <trkpt lat="45.3285" lon="5.90234">
        <ele>926.78</ele>
        <time>2021-11-20T14:03:55.000Z</time>
      </trkpt>
      <trkpt lat="45.32838" lon="5.90215">
        <ele>928</ele>
        <time>2021-11-20T14:04:00.000Z</time>
      </trkpt>
      <trkpt lat="45.32844" lon="5.9023">
        <ele>926.58</ele>
        <time>2021-11-20T14:04:49.000Z</time>
      </trkpt>
      <trkpt lat="45.32854" lon="5.90247">
        <ele>927.89</ele>
        <time>2021-11-20T14:04:54.000Z</time>
      </trkpt>
      <trkpt lat="45.32847" lon="5.90236">
        <ele>929.67</ele>
        <time>2021-11-20T14:05:01.000Z</time>
      </trkpt>
      <trkpt lat="45.32838" lon="5.90221">
        <ele>931.33</ele>
        <time>2021-11-20T14:05:06.000Z</time>
      </trkpt>
      <trkpt lat="45.32825" lon="5.902">
        <ele>928.6</ele>
        <time>2021-11-20T14:05:11.000Z</time>
      </trkpt>
      <trkpt lat="45.32811" lon="5.90171">
        <ele>927.48</ele>
        <time>2021-11-20T14:05:16.000Z</time>
      </trkpt>
      <trkpt lat="45.32794" lon="5.90147">
        <ele>926.39</ele>
        <time>2021-11-20T14:05:21.000Z</time>
      </trkpt>
      <trkpt lat="45.32774" lon="5.90129">
        <ele>924.29</ele>
        <time>2021-11-20T14:05:26.000Z</time>
      </trkpt>
      <trkpt lat="45.32748" lon="5.90117">
        <ele>929.7</ele>
        <time>2021-11-20T14:05:31.000Z</time>
      </trkpt>
      <trkpt lat="45.32723" lon="5.90095">
        <ele>932.1</ele>
        <time>2021-11-20T14:05:36.000Z</time>
      </trkpt>
      <trkpt lat="45.32702" lon="5.90066">
        <ele>931.76</ele>
        <time>2021-11-20T14:05:41.000Z</time>
      </trkpt>
      <trkpt lat="45.32682" lon="5.90029">
        <ele>930.8</ele>
        <time>2021-11-20T14:05:46.000Z</time>
      </trkpt>
      <trkpt lat="45.32662" lon="5.89992">
        <ele>931.97</ele>
        <time>2021-11-20T14:05:51.000Z</time>
      </trkpt>
      <trkpt lat="45.32643" lon="5.89958">
        <ele>930.64</ele>
        <time>2021-11-20T14:05:56.000Z</time>
      </trkpt>
      <trkpt lat="45.32619" lon="5.89925">
        <ele>929.09</ele>
        <time>2021-11-20T14:06:01.000Z</time>
      </trkpt>
      <trkpt lat="45.32599" lon="5.89896">
        <ele>930.56</ele>
        <time>2021-11-20T14:06:06.000Z</time>
      </trkpt>
      <trkpt lat="45.32582" lon="5.89872">
        <ele>930.89</ele>
        <time>2021-11-20T14:06:11.000Z</time>
      </trkpt>
      <trkpt lat="45.32564" lon="5.89846">
        <ele>933.08</ele>
        <time>2021-11-20T14:06:16.000Z</time>
      </trkpt>
      <trkpt lat="45.32548" lon="5.89821">
        <ele>932.3</ele>
        <time>2021-11-20T14:06:21.000Z</time>
      </trkpt>
      <trkpt lat="45.32531" lon="5.89799">
        <ele>932.9</ele>
        <time>2021-11-20T14:06:26.000Z</time>
      </trkpt>
      <trkpt lat="45.32512" lon="5.89782">
        <ele>936.22</ele>
        <time>2021-11-20T14:06:31.000Z</time>
      </trkpt>
      <trkpt lat="45.32492" lon="5.89766">
        <ele>940.24</ele>
        <time>2021-11-20T14:06:36.000Z</time>
      </trkpt>
      <trkpt lat="45.32479" lon="5.89738">
        <ele>941.73</ele>
        <time>2021-11-20T14:06:41.000Z</time>
      </trkpt>
      <trkpt lat="45.32468" lon="5.89709">
        <ele>942.15</ele>
        <time>2021-11-20T14:06:46.000Z</time>
      </trkpt>
      <trkpt lat="45.32457" lon="5.89687">
        <ele>942.85</ele>
        <time>2021-11-20T14:06:51.000Z</time>
      </trkpt>
      <trkpt lat="45.32444" lon="5.89658">
        <ele>944.88</ele>
        <time>2021-11-20T14:06:56.000Z</time>
      </trkpt>
      <trkpt lat="45.32435" lon="5.89627">
        <ele>943.01</ele>
        <time>2021-11-20T14:07:01.000Z</time>
      </trkpt>
      <trkpt lat="45.32432" lon="5.89592">
        <ele>942.78</ele>
        <time>2021-11-20T14:07:06.000Z</time>
      </trkpt>
      <trkpt lat="45.3242" lon="5.89562">
        <ele>943.09</ele>
        <time>2021-11-20T14:07:11.000Z</time>
      </trkpt>
      <trkpt lat="45.32398" lon="5.89538">
        <ele>944.64</ele>
        <time>2021-11-20T14:07:16.000Z</time>
      </trkpt>
      <trkpt lat="45.32375" lon="5.89516">
        <ele>947.43</ele>
        <time>2021-11-20T14:07:21.000Z</time>
      </trkpt>
      <trkpt lat="45.32354" lon="5.89495">
        <ele>946.98</ele>
        <time>2021-11-20T14:07:26.000Z</time>
      </trkpt>
      <trkpt lat="45.32328" lon="5.89477">
        <ele>950.03</ele>
        <time>2021-11-20T14:07:31.000Z</time>
      </trkpt>
      <trkpt lat="45.32305" lon="5.8946">
        <ele>952.97</ele>
        <time>2021-11-20T14:07:36.000Z</time>
      </trkpt>
      <trkpt lat="45.32284" lon="5.89437">
        <ele>948.46</ele>
        <time>2021-11-20T14:07:41.000Z</time>
      </trkpt>
      <trkpt lat="45.32265" lon="5.89413">
        <ele>949.19</ele>
        <time>2021-11-20T14:07:46.000Z</time>
      </trkpt>
      <trkpt lat="45.32241" lon="5.8939">
        <ele>950.42</ele>
        <time>2021-11-20T14:07:51.000Z</time>
      </trkpt>
      <trkpt lat="45.32221" lon="5.89373">
        <ele>948.11</ele>
        <time>2021-11-20T14:07:56.000Z</time>
      </trkpt>
      <trkpt lat="45.32199" lon="5.8936">
        <ele>950.33</ele>
        <time>2021-11-20T14:08:01.000Z</time>
      </trkpt>
      <trkpt lat="45.32177" lon="5.89338">
        <ele>946.11</ele>
        <time>2021-11-20T14:08:06.000Z</time>
      </trkpt>
      <trkpt lat="45.32156" lon="5.89312">
        <ele>945.69</ele>
        <time>2021-11-20T14:08:11.000Z</time>
      </trkpt>
      <trkpt lat="45.32133" lon="5.89291">
        <ele>949.12</ele>
        <time>2021-11-20T14:08:16.000Z</time>
      </trkpt>
      <trkpt lat="45.32112" lon="5.89269">
        <ele>948.42</ele>
        <time>2021-11-20T14:08:21.000Z</time>
      </trkpt>
      <trkpt lat="45.32091" lon="5.89246">
        <ele>950.21</ele>
        <time>2021-11-20T14:08:26.000Z</time>
      </trkpt>
      <trkpt lat="45.32071" lon="5.89217">
        <ele>948.01</ele>
        <time>2021-11-20T14:08:31.000Z</time>
      </trkpt>
      <trkpt lat="45.32049" lon="5.8919">
        <ele>947.72</ele>
        <time>2021-11-20T14:08:36.000Z</time>
      </trkpt>
      <trkpt lat="45.32023" lon="5.8918">
        <ele>950.05</ele>
        <time>2021-11-20T14:08:41.000Z</time>
      </trkpt>
      <trkpt lat="45.31996" lon="5.89168">
        <ele>947.66</ele>
        <time>2021-11-20T14:08:46.000Z</time>
      </trkpt>
      <trkpt lat="45.3197" lon="5.89159">
        <ele>945.69</ele>
        <time>2021-11-20T14:08:51.000Z</time>
      </trkpt>
      <trkpt lat="45.31944" lon="5.89147">
        <ele>945.19</ele>
        <time>2021-11-20T14:08:56.000Z</time>
      </trkpt>
      <trkpt lat="45.31921" lon="5.89125">
        <ele>943.27</ele>
        <time>2021-11-20T14:09:01.000Z</time>
      </trkpt>
      <trkpt lat="45.31907" lon="5.89095">
        <ele>944.99</ele>
        <time>2021-11-20T14:09:06.000Z</time>
      </trkpt>
      <trkpt lat="45.31911" lon="5.89053">
        <ele>946.01</ele>
        <time>2021-11-20T14:09:11.000Z</time>
      </trkpt>
      <trkpt lat="45.31912" lon="5.89003">
        <ele>945.76</ele>
        <time>2021-11-20T14:09:16.000Z</time>
      </trkpt>
      <trkpt lat="45.31899" lon="5.88964">
        <ele>945.9</ele>
        <time>2021-11-20T14:09:21.000Z</time>
      </trkpt>
      <trkpt lat="45.31882" lon="5.88934">
        <ele>945.9</ele>
        <time>2021-11-20T14:09:26.000Z</time>
      </trkpt>
      <trkpt lat="45.31859" lon="5.88912">
        <ele>947.91</ele>
        <time>2021-11-20T14:09:31.000Z</time>
      </trkpt>
      <trkpt lat="45.31831" lon="5.88901">
        <ele>947.44</ele>
        <time>2021-11-20T14:09:36.000Z</time>
      </trkpt>
      <trkpt lat="45.31801" lon="5.88884">
        <ele>945.78</ele>
        <time>2021-11-20T14:09:41.000Z</time>
      </trkpt>
      <trkpt lat="45.31772" lon="5.8886">
        <ele>950.56</ele>
        <time>2021-11-20T14:09:46.000Z</time>
      </trkpt>
      <trkpt lat="45.31748" lon="5.8885">
        <ele>950.16</ele>
        <time>2021-11-20T14:09:51.000Z</time>
      </trkpt>
      <trkpt lat="45.31722" lon="5.88838">
        <ele>949.57</ele>
        <time>2021-11-20T14:09:56.000Z</time>
      </trkpt>
      <trkpt lat="45.31696" lon="5.88819">
        <ele>949.79</ele>
        <time>2021-11-20T14:10:01.000Z</time>
      </trkpt>
      <trkpt lat="45.31673" lon="5.88804">
        <ele>945.92</ele>
        <time>2021-11-20T14:10:06.000Z</time>
      </trkpt>
      <trkpt lat="45.31648" lon="5.88794">
        <ele>944.84</ele>
        <time>2021-11-20T14:10:11.000Z</time>
      </trkpt>
      <trkpt lat="45.31619" lon="5.88802">
        <ele>944.8</ele>
        <time>2021-11-20T14:10:16.000Z</time>
      </trkpt>
      <trkpt lat="45.31596" lon="5.88813">
        <ele>943.46</ele>
        <time>2021-11-20T14:10:21.000Z</time>
      </trkpt>
      <trkpt lat="45.3157" lon="5.88824">
        <ele>945.76</ele>
        <time>2021-11-20T14:10:26.000Z</time>
      </trkpt>
      <trkpt lat="45.31542" lon="5.8882">
        <ele>947.39</ele>
        <time>2021-11-20T14:10:31.000Z</time>
      </trkpt>
      <trkpt lat="45.31515" lon="5.88813">
        <ele>948.45</ele>
        <time>2021-11-20T14:10:36.000Z</time>
      </trkpt>
      <trkpt lat="45.31485" lon="5.88805">
        <ele>948.52</ele>
        <time>2021-11-20T14:10:41.000Z</time>
      </trkpt>
      <trkpt lat="45.31456" lon="5.88795">
        <ele>950.34</ele>
        <time>2021-11-20T14:10:46.000Z</time>
      </trkpt>
      <trkpt lat="45.31427" lon="5.88779">
        <ele>947.33</ele>
        <time>2021-11-20T14:10:51.000Z</time>
      </trkpt>
      <trkpt lat="45.3139" lon="5.88776">
        <ele>946.92</ele>
        <time>2021-11-20T14:10:56.000Z</time>
      </trkpt>
      <trkpt lat="45.31359" lon="5.88766">
        <ele>951.84</ele>
        <time>2021-11-20T14:11:01.000Z</time>
      </trkpt>
      <trkpt lat="45.31332" lon="5.88756">
        <ele>955.76</ele>
        <time>2021-11-20T14:11:06.000Z</time>
      </trkpt>
      <trkpt lat="45.31305" lon="5.8875">
        <ele>956.83</ele>
        <time>2021-11-20T14:11:11.000Z</time>
      </trkpt>
      <trkpt lat="45.31276" lon="5.8875">
        <ele>962.28</ele>
        <time>2021-11-20T14:11:16.000Z</time>
      </trkpt>
      <trkpt lat="45.31253" lon="5.88739">
        <ele>963.21</ele>
        <time>2021-11-20T14:11:21.000Z</time>
      </trkpt>
      <trkpt lat="45.31226" lon="5.88748">
        <ele>960.45</ele>
        <time>2021-11-20T14:11:26.000Z</time>
      </trkpt>
      <trkpt lat="45.31201" lon="5.88746">
        <ele>961.05</ele>
        <time>2021-11-20T14:11:31.000Z</time>
      </trkpt>
      <trkpt lat="45.31178" lon="5.88744">
        <ele>963.2</ele>
        <time>2021-11-20T14:11:36.000Z</time>
      </trkpt>
      <trkpt lat="45.31153" lon="5.88741">
        <ele>962.11</ele>
        <time>2021-11-20T14:11:41.000Z</time>
      </trkpt>
      <trkpt lat="45.31125" lon="5.8874">
        <ele>962.65</ele>
        <time>2021-11-20T14:11:46.000Z</time>
      </trkpt>
      <trkpt lat="45.31098" lon="5.88738">
        <ele>963.86</ele>
        <time>2021-11-20T14:11:51.000Z</time>
      </trkpt>
      <trkpt lat="45.3107" lon="5.88737">
        <ele>970.73</ele>
        <time>2021-11-20T14:11:56.000Z</time>
      </trkpt>
      <trkpt lat="45.3105" lon="5.88743">
        <ele>974.32</ele>
        <time>2021-11-20T14:12:01.000Z</time>
      </trkpt>
      <trkpt lat="45.31034" lon="5.88754">
        <ele>976.45</ele>
        <time>2021-11-20T14:12:06.000Z</time>
      </trkpt>
      <trkpt lat="45.31024" lon="5.88767">
        <ele>973.72</ele>
        <time>2021-11-20T14:12:11.000Z</time>
      </trkpt>
      <trkpt lat="45.31016" lon="5.88758">
        <ele>975.32</ele>
        <time>2021-11-20T14:12:51.000Z</time>
      </trkpt>
      <trkpt lat="45.30999" lon="5.88738">
        <ele>980.19</ele>
        <time>2021-11-20T14:12:56.000Z</time>
      </trkpt>
      <trkpt lat="45.30981" lon="5.88721">
        <ele>983.03</ele>
        <time>2021-11-20T14:13:01.000Z</time>
      </trkpt>
      <trkpt lat="45.30967" lon="5.88733">
        <ele>977.75</ele>
        <time>2021-11-20T14:13:06.000Z</time>
      </trkpt>
      <trkpt lat="45.30974" lon="5.88769">
        <ele>977.7</ele>
        <time>2021-11-20T14:13:11.000Z</time>
      </trkpt>
      <trkpt lat="45.3099" lon="5.88792">
        <ele>983.16</ele>
        <time>2021-11-20T14:13:16.000Z</time>
      </trkpt>
      <trkpt lat="45.31004" lon="5.8881">
        <ele>988.38</ele>
        <time>2021-11-20T14:13:21.000Z</time>
      </trkpt>
      <trkpt lat="45.31017" lon="5.88821">
        <ele>987.07</ele>
        <time>2021-11-20T14:13:26.000Z</time>
      </trkpt>
      <trkpt lat="45.31024" lon="5.88842">
        <ele>987.48</ele>
        <time>2021-11-20T14:13:31.000Z</time>
      </trkpt>
      <trkpt lat="45.3103" lon="5.8887">
        <ele>988.15</ele>
        <time>2021-11-20T14:13:36.000Z</time>
      </trkpt>
      <trkpt lat="45.31033" lon="5.88898">
        <ele>988.43</ele>
        <time>2021-11-20T14:13:41.000Z</time>
      </trkpt>
      <trkpt lat="45.31041" lon="5.88928">
        <ele>985.59</ele>
        <time>2021-11-20T14:13:46.000Z</time>
      </trkpt>
      <trkpt lat="45.31057" lon="5.88949">
        <ele>989.31</ele>
        <time>2021-11-20T14:13:51.000Z</time>
      </trkpt>
      <trkpt lat="45.31071" lon="5.88965">
        <ele>988.33</ele>
        <time>2021-11-20T14:13:56.000Z</time>
      </trkpt>
      <trkpt lat="45.31072" lon="5.88983">
        <ele>989.26</ele>
        <time>2021-11-20T14:14:01.000Z</time>
      </trkpt>
      <trkpt lat="45.31082" lon="5.88979">
        <ele>967.96</ele>
        <time>2021-11-20T14:15:09.000Z</time>
      </trkpt>
      <trkpt lat="45.31094" lon="5.88974">
        <ele>959.16</ele>
        <time>2021-11-20T14:15:14.000Z</time>
      </trkpt>
      <trkpt lat="45.31086" lon="5.88979">
        <ele>966.46</ele>
        <time>2021-11-20T14:15:47.000Z</time>
      </trkpt>
      <trkpt lat="45.31076" lon="5.88979">
        <ele>968.63</ele>
        <time>2021-11-20T14:16:07.000Z</time>
      </trkpt>
      <trkpt lat="45.31071" lon="5.88968">
        <ele>970.94</ele>
        <time>2021-11-20T14:16:37.000Z</time>
      </trkpt>
      <trkpt lat="45.31065" lon="5.88957">
        <ele>969.11</ele>
        <time>2021-11-20T14:16:42.000Z</time>
      </trkpt>
      <trkpt lat="45.3106" lon="5.88942">
        <ele>972.85</ele>
        <time>2021-11-20T14:16:47.000Z</time>
      </trkpt>
      <trkpt lat="45.31051" lon="5.88919">
        <ele>971.36</ele>
        <time>2021-11-20T14:16:52.000Z</time>
      </trkpt>
      <trkpt lat="45.31045" lon="5.88893">
        <ele>972.73</ele>
        <time>2021-11-20T14:16:57.000Z</time>
      </trkpt>
      <trkpt lat="45.31042" lon="5.88872">
        <ele>971.11</ele>
        <time>2021-11-20T14:17:02.000Z</time>
      </trkpt>
      <trkpt lat="45.31037" lon="5.88852">
        <ele>967.75</ele>
        <time>2021-11-20T14:17:07.000Z</time>
      </trkpt>
      <trkpt lat="45.31029" lon="5.88833">
        <ele>969.29</ele>
        <time>2021-11-20T14:17:12.000Z</time>
      </trkpt>
      <trkpt lat="45.31021" lon="5.88813">
        <ele>972.54</ele>
        <time>2021-11-20T14:17:17.000Z</time>
      </trkpt>
      <trkpt lat="45.31014" lon="5.88799">
        <ele>972.77</ele>
        <time>2021-11-20T14:17:22.000Z</time>
      </trkpt>
      <trkpt lat="45.31006" lon="5.88793">
        <ele>974.71</ele>
        <time>2021-11-20T14:17:27.000Z</time>
      </trkpt>
      <trkpt lat="45.30993" lon="5.88782">
        <ele>974.38</ele>
        <time>2021-11-20T14:17:32.000Z</time>
      </trkpt>
      <trkpt lat="45.30977" lon="5.88759">
        <ele>973.32</ele>
        <time>2021-11-20T14:17:37.000Z</time>
      </trkpt>
      <trkpt lat="45.30971" lon="5.88734">
        <ele>971.99</ele>
        <time>2021-11-20T14:17:42.000Z</time>
      </trkpt>
      <trkpt lat="45.30975" lon="5.88711">
        <ele>972.4</ele>
        <time>2021-11-20T14:17:47.000Z</time>
      </trkpt>
      <trkpt lat="45.30978" lon="5.8869">
        <ele>971.39</ele>
        <time>2021-11-20T14:17:52.000Z</time>
      </trkpt>
      <trkpt lat="45.3097" lon="5.88676">
        <ele>972.73</ele>
        <time>2021-11-20T14:17:57.000Z</time>
      </trkpt>
      <trkpt lat="45.30961" lon="5.88677">
        <ele>971.48</ele>
        <time>2021-11-20T14:18:19.000Z</time>
      </trkpt>
      <trkpt lat="45.30947" lon="5.8866">
        <ele>970.55</ele>
        <time>2021-11-20T14:18:24.000Z</time>
      </trkpt>
      <trkpt lat="45.30932" lon="5.88636">
        <ele>970.09</ele>
        <time>2021-11-20T14:18:29.000Z</time>
      </trkpt>
      <trkpt lat="45.30921" lon="5.88609">
        <ele>972.82</ele>
        <time>2021-11-20T14:18:34.000Z</time>
      </trkpt>
      <trkpt lat="45.30912" lon="5.88578">
        <ele>973.1</ele>
        <time>2021-11-20T14:18:39.000Z</time>
      </trkpt>
      <trkpt lat="45.30903" lon="5.88551">
        <ele>967.56</ele>
        <time>2021-11-20T14:18:44.000Z</time>
      </trkpt>
      <trkpt lat="45.3089" lon="5.88521">
        <ele>970.71</ele>
        <time>2021-11-20T14:18:49.000Z</time>
      </trkpt>
      <trkpt lat="45.3088" lon="5.88495">
        <ele>970.5</ele>
        <time>2021-11-20T14:18:54.000Z</time>
      </trkpt>
      <trkpt lat="45.30867" lon="5.88467">
        <ele>973.97</ele>
        <time>2021-11-20T14:18:59.000Z</time>
      </trkpt>
      <trkpt lat="45.30854" lon="5.88437">
        <ele>974.32</ele>
        <time>2021-11-20T14:19:04.000Z</time>
      </trkpt>
      <trkpt lat="45.30843" lon="5.88407">
        <ele>972.74</ele>
        <time>2021-11-20T14:19:09.000Z</time>
      </trkpt>
      <trkpt lat="45.30832" lon="5.8838">
        <ele>974.32</ele>
        <time>2021-11-20T14:19:14.000Z</time>
      </trkpt>
      <trkpt lat="45.30825" lon="5.88345">
        <ele>977.31</ele>
        <time>2021-11-20T14:19:19.000Z</time>
      </trkpt>
      <trkpt lat="45.30813" lon="5.8832">
        <ele>976.24</ele>
        <time>2021-11-20T14:19:24.000Z</time>
      </trkpt>
      <trkpt lat="45.30802" lon="5.883">
        <ele>978.3</ele>
        <time>2021-11-20T14:19:29.000Z</time>
      </trkpt>
      <trkpt lat="45.30792" lon="5.88272">
        <ele>977.29</ele>
        <time>2021-11-20T14:19:34.000Z</time>
      </trkpt>
      <trkpt lat="45.30785" lon="5.88237">
        <ele>978.71</ele>
        <time>2021-11-20T14:19:39.000Z</time>
      </trkpt>
      <trkpt lat="45.30778" lon="5.88204">
        <ele>979.4</ele>
        <time>2021-11-20T14:19:44.000Z</time>
      </trkpt>
      <trkpt lat="45.30765" lon="5.8817">
        <ele>982.01</ele>
        <time>2021-11-20T14:19:49.000Z</time>
      </trkpt>
      <trkpt lat="45.30747" lon="5.88138">
        <ele>982.07</ele>
        <time>2021-11-20T14:19:54.000Z</time>
      </trkpt>
      <trkpt lat="45.30726" lon="5.88117">
        <ele>984.2</ele>
        <time>2021-11-20T14:19:59.000Z</time>
      </trkpt>
      <trkpt lat="45.30705" lon="5.88099">
        <ele>982.62</ele>
        <time>2021-11-20T14:20:04.000Z</time>
      </trkpt>
      <trkpt lat="45.30689" lon="5.88069">
        <ele>987.5</ele>
        <time>2021-11-20T14:20:09.000Z</time>
      </trkpt>
      <trkpt lat="45.30667" lon="5.88047">
        <ele>988.37</ele>
        <time>2021-11-20T14:20:14.000Z</time>
      </trkpt>
      <trkpt lat="45.30654" lon="5.88027">
        <ele>989.98</ele>
        <time>2021-11-20T14:20:19.000Z</time>
      </trkpt>
      <trkpt lat="45.30639" lon="5.88006">
        <ele>988.93</ele>
        <time>2021-11-20T14:20:24.000Z</time>
      </trkpt>
      <trkpt lat="45.30624" lon="5.87988">
        <ele>989.05</ele>
        <time>2021-11-20T14:20:29.000Z</time>
      </trkpt>
      <trkpt lat="45.30603" lon="5.87981">
        <ele>990.35</ele>
        <time>2021-11-20T14:20:34.000Z</time>
      </trkpt>
      <trkpt lat="45.30583" lon="5.87977">
        <ele>992.86</ele>
        <time>2021-11-20T14:20:39.000Z</time>
      </trkpt>
      <trkpt lat="45.30562" lon="5.87972">
        <ele>994.26</ele>
        <time>2021-11-20T14:20:44.000Z</time>
      </trkpt>
      <trkpt lat="45.3054" lon="5.87975">
        <ele>996.28</ele>
        <time>2021-11-20T14:20:49.000Z</time>
      </trkpt>
      <trkpt lat="45.3052" lon="5.87988">
        <ele>999.05</ele>
        <time>2021-11-20T14:20:54.000Z</time>
      </trkpt>
      <trkpt lat="45.30501" lon="5.87997">
        <ele>1000.73</ele>
        <time>2021-11-20T14:20:59.000Z</time>
      </trkpt>
      <trkpt lat="45.30481" lon="5.88003">
        <ele>1000.81</ele>
        <time>2021-11-20T14:21:04.000Z</time>
      </trkpt>
      <trkpt lat="45.3046" lon="5.87998">
        <ele>998.75</ele>
        <time>2021-11-20T14:21:09.000Z</time>
      </trkpt>
      <trkpt lat="45.30439" lon="5.87988">
        <ele>998.6</ele>
        <time>2021-11-20T14:21:14.000Z</time>
      </trkpt>
      <trkpt lat="45.30419" lon="5.87975">
        <ele>1000.77</ele>
        <time>2021-11-20T14:21:19.000Z</time>
      </trkpt>
      <trkpt lat="45.304" lon="5.87962">
        <ele>1002.25</ele>
        <time>2021-11-20T14:21:24.000Z</time>
      </trkpt>
      <trkpt lat="45.30381" lon="5.87945">
        <ele>1005.73</ele>
        <time>2021-11-20T14:21:29.000Z</time>
      </trkpt>
      <trkpt lat="45.30364" lon="5.87927">
        <ele>1006.31</ele>
        <time>2021-11-20T14:21:34.000Z</time>
      </trkpt>
      <trkpt lat="45.30349" lon="5.87907">
        <ele>1006.83</ele>
        <time>2021-11-20T14:21:39.000Z</time>
      </trkpt>
      <trkpt lat="45.30337" lon="5.87883">
        <ele>1006.97</ele>
        <time>2021-11-20T14:21:44.000Z</time>
      </trkpt>
      <trkpt lat="45.30325" lon="5.87859">
        <ele>1005.2</ele>
        <time>2021-11-20T14:21:49.000Z</time>
      </trkpt>
      <trkpt lat="45.30314" lon="5.87834">
        <ele>1005.03</ele>
        <time>2021-11-20T14:21:54.000Z</time>
      </trkpt>
      <trkpt lat="45.30305" lon="5.87808">
        <ele>1006.47</ele>
        <time>2021-11-20T14:21:59.000Z</time>
      </trkpt>
      <trkpt lat="45.30294" lon="5.87782">
        <ele>1007.18</ele>
        <time>2021-11-20T14:22:04.000Z</time>
      </trkpt>
      <trkpt lat="45.30283" lon="5.87755">
        <ele>1009.94</ele>
        <time>2021-11-20T14:22:09.000Z</time>
      </trkpt>
      <trkpt lat="45.30271" lon="5.87727">
        <ele>1012.21</ele>
        <time>2021-11-20T14:22:14.000Z</time>
      </trkpt>
      <trkpt lat="45.30259" lon="5.87703">
        <ele>1014.36</ele>
        <time>2021-11-20T14:22:19.000Z</time>
      </trkpt>
      <trkpt lat="45.30248" lon="5.8768">
        <ele>1015.72</ele>
        <time>2021-11-20T14:22:24.000Z</time>
      </trkpt>
      <trkpt lat="45.30241" lon="5.87651">
        <ele>1016.38</ele>
        <time>2021-11-20T14:22:29.000Z</time>
      </trkpt>
      <trkpt lat="45.30231" lon="5.87626">
        <ele>1019.24</ele>
        <time>2021-11-20T14:22:34.000Z</time>
      </trkpt>
      <trkpt lat="45.30222" lon="5.876">
        <ele>1022.05</ele>
        <time>2021-11-20T14:22:39.000Z</time>
      </trkpt>
      <trkpt lat="45.30213" lon="5.87569">
        <ele>1023.43</ele>
        <time>2021-11-20T14:22:44.000Z</time>
      </trkpt>
      <trkpt lat="45.30203" lon="5.87534">
        <ele>1023.91</ele>
        <time>2021-11-20T14:22:49.000Z</time>
      </trkpt>
      <trkpt lat="45.30195" lon="5.875">
        <ele>1024.01</ele>
        <time>2021-11-20T14:22:54.000Z</time>
      </trkpt>
      <trkpt lat="45.30186" lon="5.87466">
        <ele>1024.73</ele>
        <time>2021-11-20T14:22:59.000Z</time>
      </trkpt>
      <trkpt lat="45.30172" lon="5.87435">
        <ele>1026.97</ele>
        <time>2021-11-20T14:23:04.000Z</time>
      </trkpt>
      <trkpt lat="45.30158" lon="5.87406">
        <ele>1026.46</ele>
        <time>2021-11-20T14:23:09.000Z</time>
      </trkpt>
      <trkpt lat="45.30145" lon="5.87375">
        <ele>1030.52</ele>
        <time>2021-11-20T14:23:14.000Z</time>
      </trkpt>
      <trkpt lat="45.30137" lon="5.87346">
        <ele>1034.93</ele>
        <time>2021-11-20T14:23:19.000Z</time>
      </trkpt>
      <trkpt lat="45.3013" lon="5.87331">
        <ele>1033.94</ele>
        <time>2021-11-20T14:23:24.000Z</time>
      </trkpt>
      <trkpt lat="45.30123" lon="5.87318">
        <ele>1031.77</ele>
        <time>2021-11-20T14:23:29.000Z</time>
      </trkpt>
      <trkpt lat="45.30116" lon="5.87304">
        <ele>1031.98</ele>
        <time>2021-11-20T14:24:10.000Z</time>
      </trkpt>
      <trkpt lat="45.30107" lon="5.87278">
        <ele>1025.7</ele>
        <time>2021-11-20T14:24:15.000Z</time>
      </trkpt>
      <trkpt lat="45.30099" lon="5.87252">
        <ele>1024.2</ele>
        <time>2021-11-20T14:24:20.000Z</time>
      </trkpt>
      <trkpt lat="45.3009" lon="5.87215">
        <ele>1024.26</ele>
        <time>2021-11-20T14:24:25.000Z</time>
      </trkpt>
      <trkpt lat="45.30075" lon="5.87174">
        <ele>1024.49</ele>
        <time>2021-11-20T14:24:30.000Z</time>
      </trkpt>
      <trkpt lat="45.30064" lon="5.87139">
        <ele>1026.39</ele>
        <time>2021-11-20T14:24:35.000Z</time>
      </trkpt>
      <trkpt lat="45.30054" lon="5.87099">
        <ele>1023.03</ele>
        <time>2021-11-20T14:24:40.000Z</time>
      </trkpt>
      <trkpt lat="45.30042" lon="5.87054">
        <ele>1021.71</ele>
        <time>2021-11-20T14:24:45.000Z</time>
      </trkpt>
      <trkpt lat="45.30031" lon="5.87">
        <ele>1018.64</ele>
        <time>2021-11-20T14:24:50.000Z</time>
      </trkpt>
      <trkpt lat="45.30054" lon="5.86948">
        <ele>1018.3</ele>
        <time>2021-11-20T14:24:55.000Z</time>
      </trkpt>
      <trkpt lat="45.30065" lon="5.86892">
        <ele>1018.61</ele>
        <time>2021-11-20T14:25:00.000Z</time>
      </trkpt>
      <trkpt lat="45.30023" lon="5.86881">
        <ele>1016.25</ele>
        <time>2021-11-20T14:25:05.000Z</time>
      </trkpt>
      <trkpt lat="45.29971" lon="5.86892">
        <ele>1009.24</ele>
        <time>2021-11-20T14:25:10.000Z</time>
      </trkpt>
      <trkpt lat="45.29961" lon="5.86849">
        <ele>1008.04</ele>
        <time>2021-11-20T14:25:15.000Z</time>
      </trkpt>
      <trkpt lat="45.29991" lon="5.86796">
        <ele>1007.77</ele>
        <time>2021-11-20T14:25:20.000Z</time>
      </trkpt>
      <trkpt lat="45.29989" lon="5.86735">
        <ele>1004.04</ele>
        <time>2021-11-20T14:25:25.000Z</time>
      </trkpt>
      <trkpt lat="45.29939" lon="5.86724">
        <ele>1001.18</ele>
        <time>2021-11-20T14:25:30.000Z</time>
      </trkpt>
      <trkpt lat="45.29894" lon="5.86693">
        <ele>999.81</ele>
        <time>2021-11-20T14:25:35.000Z</time>
      </trkpt>
      <trkpt lat="45.29853" lon="5.86676">
        <ele>993.01</ele>
        <time>2021-11-20T14:25:40.000Z</time>
      </trkpt>
      <trkpt lat="45.29817" lon="5.86659">
        <ele>992.86</ele>
        <time>2021-11-20T14:25:45.000Z</time>
      </trkpt>
      <trkpt lat="45.29787" lon="5.86662">
        <ele>994.51</ele>
        <time>2021-11-20T14:25:50.000Z</time>
      </trkpt>
      <trkpt lat="45.29766" lon="5.8665">
        <ele>996.53</ele>
        <time>2021-11-20T14:25:55.000Z</time>
      </trkpt>
      <trkpt lat="45.29738" lon="5.86634">
        <ele>994.77</ele>
        <time>2021-11-20T14:26:00.000Z</time>
      </trkpt>
      <trkpt lat="45.29709" lon="5.86634">
        <ele>993.15</ele>
        <time>2021-11-20T14:26:05.000Z</time>
      </trkpt>
      <trkpt lat="45.29685" lon="5.86625">
        <ele>988.84</ele>
        <time>2021-11-20T14:26:10.000Z</time>
      </trkpt>
      <trkpt lat="45.29658" lon="5.86597">
        <ele>996.32</ele>
        <time>2021-11-20T14:26:15.000Z</time>
      </trkpt>
      <trkpt lat="45.29627" lon="5.86584">
        <ele>1001.97</ele>
        <time>2021-11-20T14:26:20.000Z</time>
      </trkpt>
      <trkpt lat="45.29614" lon="5.86557">
        <ele>1000.61</ele>
        <time>2021-11-20T14:26:25.000Z</time>
      </trkpt>
      <trkpt lat="45.29617" lon="5.86524">
        <ele>1002.45</ele>
        <time>2021-11-20T14:26:30.000Z</time>
      </trkpt>
      <trkpt lat="45.29622" lon="5.86487">
        <ele>1000.87</ele>
        <time>2021-11-20T14:26:35.000Z</time>
      </trkpt>
      <trkpt lat="45.29618" lon="5.86453">
        <ele>1002.82</ele>
        <time>2021-11-20T14:26:40.000Z</time>
      </trkpt>
      <trkpt lat="45.29597" lon="5.86441">
        <ele>1001.26</ele>
        <time>2021-11-20T14:26:45.000Z</time>
      </trkpt>
      <trkpt lat="45.29577" lon="5.86442">
        <ele>1001.96</ele>
        <time>2021-11-20T14:26:50.000Z</time>
      </trkpt>
      <trkpt lat="45.29556" lon="5.86451">
        <ele>1003.77</ele>
        <time>2021-11-20T14:26:55.000Z</time>
      </trkpt>
      <trkpt lat="45.2953" lon="5.86453">
        <ele>1006.23</ele>
        <time>2021-11-20T14:27:00.000Z</time>
      </trkpt>
      <trkpt lat="45.29505" lon="5.86448">
        <ele>1005.89</ele>
        <time>2021-11-20T14:27:05.000Z</time>
      </trkpt>
      <trkpt lat="45.29479" lon="5.8644">
        <ele>1005.81</ele>
        <time>2021-11-20T14:27:10.000Z</time>
      </trkpt>
      <trkpt lat="45.2945" lon="5.8643">
        <ele>1004.08</ele>
        <time>2021-11-20T14:27:15.000Z</time>
      </trkpt>
      <trkpt lat="45.29419" lon="5.86418">
        <ele>1007.77</ele>
        <time>2021-11-20T14:27:20.000Z</time>
      </trkpt>
      <trkpt lat="45.2939" lon="5.86394">
        <ele>1007.13</ele>
        <time>2021-11-20T14:27:25.000Z</time>
      </trkpt>
      <trkpt lat="45.29366" lon="5.86355">
        <ele>1007.19</ele>
        <time>2021-11-20T14:27:30.000Z</time>
      </trkpt>
      <trkpt lat="45.29352" lon="5.86308">
        <ele>1005.47</ele>
        <time>2021-11-20T14:27:35.000Z</time>
      </trkpt>
      <trkpt lat="45.29332" lon="5.86265">
        <ele>1005.99</ele>
        <time>2021-11-20T14:27:40.000Z</time>
      </trkpt>
      <trkpt lat="45.29307" lon="5.86234">
        <ele>1003.25</ele>
        <time>2021-11-20T14:27:45.000Z</time>
      </trkpt>
      <trkpt lat="45.29276" lon="5.86208">
        <ele>999.08</ele>
        <time>2021-11-20T14:27:50.000Z</time>
      </trkpt>
      <trkpt lat="45.2924" lon="5.86178">
        <ele>994.35</ele>
        <time>2021-11-20T14:27:55.000Z</time>
      </trkpt>
      <trkpt lat="45.29217" lon="5.8613">
        <ele>994.44</ele>
        <time>2021-11-20T14:28:00.000Z</time>
      </trkpt>
      <trkpt lat="45.29198" lon="5.86077">
        <ele>994.78</ele>
        <time>2021-11-20T14:28:05.000Z</time>
      </trkpt>
      <trkpt lat="45.29181" lon="5.86044">
        <ele>996.57</ele>
        <time>2021-11-20T14:28:10.000Z</time>
      </trkpt>
      <trkpt lat="45.29158" lon="5.86006">
        <ele>994.76</ele>
        <time>2021-11-20T14:28:15.000Z</time>
      </trkpt>
      <trkpt lat="45.29144" lon="5.85959">
        <ele>995.96</ele>
        <time>2021-11-20T14:28:20.000Z</time>
      </trkpt>
      <trkpt lat="45.2914" lon="5.85918">
        <ele>994.31</ele>
        <time>2021-11-20T14:28:25.000Z</time>
      </trkpt>
      <trkpt lat="45.2914" lon="5.8589">
        <ele>995.26</ele>
        <time>2021-11-20T14:28:30.000Z</time>
      </trkpt>
      <trkpt lat="45.29141" lon="5.85874">
        <ele>996.12</ele>
        <time>2021-11-20T14:28:35.000Z</time>
      </trkpt>
      <trkpt lat="45.2915" lon="5.85871">
        <ele>993.4</ele>
        <time>2021-11-20T14:28:53.000Z</time>
      </trkpt>
      <trkpt lat="45.2914" lon="5.85871">
        <ele>990.49</ele>
        <time>2021-11-20T14:31:28.000Z</time>
      </trkpt>
      <trkpt lat="45.29132" lon="5.85876">
        <ele>992.49</ele>
        <time>2021-11-20T14:31:41.000Z</time>
      </trkpt>
      <trkpt lat="45.29117" lon="5.85871">
        <ele>992.1</ele>
        <time>2021-11-20T14:31:46.000Z</time>
      </trkpt>
      <trkpt lat="45.29091" lon="5.85868">
        <ele>996.43</ele>
        <time>2021-11-20T14:31:51.000Z</time>
      </trkpt>
      <trkpt lat="45.29058" lon="5.85863">
        <ele>996.36</ele>
        <time>2021-11-20T14:31:56.000Z</time>
      </trkpt>
      <trkpt lat="45.29045" lon="5.85814">
        <ele>991.13</ele>
        <time>2021-11-20T14:32:01.000Z</time>
      </trkpt>
      <trkpt lat="45.29068" lon="5.85771">
        <ele>989.83</ele>
        <time>2021-11-20T14:32:06.000Z</time>
      </trkpt>
      <trkpt lat="45.29071" lon="5.85732">
        <ele>985.76</ele>
        <time>2021-11-20T14:32:11.000Z</time>
      </trkpt>
      <trkpt lat="45.29074" lon="5.8568">
        <ele>982.78</ele>
        <time>2021-11-20T14:32:16.000Z</time>
      </trkpt>
      <trkpt lat="45.29076" lon="5.85638">
        <ele>980.7</ele>
        <time>2021-11-20T14:32:21.000Z</time>
      </trkpt>
      <trkpt lat="45.29071" lon="5.85626">
        <ele>982.05</ele>
        <time>2021-11-20T14:32:35.000Z</time>
      </trkpt>
      <trkpt lat="45.29065" lon="5.85615">
        <ele>975.81</ele>
        <time>2021-11-20T14:33:39.000Z</time>
      </trkpt>
      <trkpt lat="45.29053" lon="5.85586">
        <ele>975.61</ele>
        <time>2021-11-20T14:33:44.000Z</time>
      </trkpt>
      <trkpt lat="45.29052" lon="5.85545">
        <ele>975.91</ele>
        <time>2021-11-20T14:33:49.000Z</time>
      </trkpt>
      <trkpt lat="45.29054" lon="5.85496">
        <ele>976.27</ele>
        <time>2021-11-20T14:33:54.000Z</time>
      </trkpt>
      <trkpt lat="45.29059" lon="5.85444">
        <ele>974.47</ele>
        <time>2021-11-20T14:33:59.000Z</time>
      </trkpt>
      <trkpt lat="45.29064" lon="5.85391">
        <ele>972.81</ele>
        <time>2021-11-20T14:34:04.000Z</time>
      </trkpt>
      <trkpt lat="45.2907" lon="5.85372">
        <ele>971.17</ele>
        <time>2021-11-20T14:34:09.000Z</time>
      </trkpt>
      <trkpt lat="45.29067" lon="5.85356">
        <ele>965.05</ele>
        <time>2021-11-20T14:34:34.000Z</time>
      </trkpt>
      <trkpt lat="45.29071" lon="5.85333">
        <ele>966.71</ele>
        <time>2021-11-20T14:34:39.000Z</time>
      </trkpt>
      <trkpt lat="45.29092" lon="5.85322">
        <ele>966.69</ele>
        <time>2021-11-20T14:34:44.000Z</time>
      </trkpt>
      <trkpt lat="45.29117" lon="5.85324">
        <ele>966.4</ele>
        <time>2021-11-20T14:34:49.000Z</time>
      </trkpt>
      <trkpt lat="45.29144" lon="5.8531">
        <ele>965.5</ele>
        <time>2021-11-20T14:34:54.000Z</time>
      </trkpt>
      <trkpt lat="45.29174" lon="5.8531">
        <ele>969.49</ele>
        <time>2021-11-20T14:34:59.000Z</time>
      </trkpt>
      <trkpt lat="45.29206" lon="5.85298">
        <ele>969.45</ele>
        <time>2021-11-20T14:35:04.000Z</time>
      </trkpt>
      <trkpt lat="45.29236" lon="5.85272">
        <ele>972.74</ele>
        <time>2021-11-20T14:35:09.000Z</time>
      </trkpt>
      <trkpt lat="45.29247" lon="5.85226">
        <ele>972.21</ele>
        <time>2021-11-20T14:35:14.000Z</time>
      </trkpt>
      <trkpt lat="45.29221" lon="5.85189">
        <ele>972.59</ele>
        <time>2021-11-20T14:35:19.000Z</time>
      </trkpt>
      <trkpt lat="45.2919" lon="5.85177">
        <ele>968.85</ele>
        <time>2021-11-20T14:35:24.000Z</time>
      </trkpt>
      <trkpt lat="45.29153" lon="5.85164">
        <ele>965.29</ele>
        <time>2021-11-20T14:35:29.000Z</time>
      </trkpt>
      <trkpt lat="45.29115" lon="5.85156">
        <ele>964.11</ele>
        <time>2021-11-20T14:35:34.000Z</time>
      </trkpt>
      <trkpt lat="45.29081" lon="5.85143">
        <ele>962.24</ele>
        <time>2021-11-20T14:35:39.000Z</time>
      </trkpt>
      <trkpt lat="45.29049" lon="5.85137">
        <ele>959.68</ele>
        <time>2021-11-20T14:35:44.000Z</time>
      </trkpt>
      <trkpt lat="45.29027" lon="5.85131">
        <ele>956.79</ele>
        <time>2021-11-20T14:35:49.000Z</time>
      </trkpt>
      <trkpt lat="45.29008" lon="5.85115">
        <ele>957.76</ele>
        <time>2021-11-20T14:35:54.000Z</time>
      </trkpt>
      <trkpt lat="45.28988" lon="5.8509">
        <ele>952.42</ele>
        <time>2021-11-20T14:35:59.000Z</time>
      </trkpt>
      <trkpt lat="45.28966" lon="5.85055">
        <ele>952.31</ele>
        <time>2021-11-20T14:36:04.000Z</time>
      </trkpt>
      <trkpt lat="45.28954" lon="5.8501">
        <ele>953.22</ele>
        <time>2021-11-20T14:36:09.000Z</time>
      </trkpt>
      <trkpt lat="45.28967" lon="5.84947">
        <ele>955.35</ele>
        <time>2021-11-20T14:36:14.000Z</time>
      </trkpt>
      <trkpt lat="45.28946" lon="5.84909">
        <ele>949.78</ele>
        <time>2021-11-20T14:36:19.000Z</time>
      </trkpt>
      <trkpt lat="45.28906" lon="5.84934">
        <ele>949.48</ele>
        <time>2021-11-20T14:36:24.000Z</time>
      </trkpt>
      <trkpt lat="45.28864" lon="5.84969">
        <ele>949.18</ele>
        <time>2021-11-20T14:36:29.000Z</time>
      </trkpt>
      <trkpt lat="45.28847" lon="5.85035">
        <ele>946.12</ele>
        <time>2021-11-20T14:36:34.000Z</time>
      </trkpt>
      <trkpt lat="45.28826" lon="5.85099">
        <ele>943.84</ele>
        <time>2021-11-20T14:36:39.000Z</time>
      </trkpt>
      <trkpt lat="45.28773" lon="5.85079">
        <ele>938.64</ele>
        <time>2021-11-20T14:36:44.000Z</time>
      </trkpt>
      <trkpt lat="45.2872" lon="5.85038">
        <ele>935.52</ele>
        <time>2021-11-20T14:36:49.000Z</time>
      </trkpt>
      <trkpt lat="45.28671" lon="5.84985">
        <ele>930.79</ele>
        <time>2021-11-20T14:36:54.000Z</time>
      </trkpt>
      <trkpt lat="45.28624" lon="5.84922">
        <ele>926.79</ele>
        <time>2021-11-20T14:36:59.000Z</time>
      </trkpt>
      <trkpt lat="45.2857" lon="5.84884">
        <ele>921.45</ele>
        <time>2021-11-20T14:37:04.000Z</time>
      </trkpt>
      <trkpt lat="45.28511" lon="5.84862">
        <ele>920.47</ele>
        <time>2021-11-20T14:37:09.000Z</time>
      </trkpt>
      <trkpt lat="45.28488" lon="5.84818">
        <ele>911.68</ele>
        <time>2021-11-20T14:37:14.000Z</time>
      </trkpt>
      <trkpt lat="45.2847" lon="5.84816">
        <ele>907.86</ele>
        <time>2021-11-20T14:37:19.000Z</time>
      </trkpt>
      <trkpt lat="45.28442" lon="5.84846">
        <ele>907.91</ele>
        <time>2021-11-20T14:37:24.000Z</time>
      </trkpt>
      <trkpt lat="45.28019" lon="5.84712">
        <ele>897.16</ele>
        <time>2021-11-20T14:38:09.000Z</time>
      </trkpt>
      <trkpt lat="45.28001" lon="5.84701">
        <ele>873.66</ele>
        <time>2021-11-20T14:38:14.000Z</time>
      </trkpt>
      <trkpt lat="45.27982" lon="5.84692">
        <ele>858.9</ele>
        <time>2021-11-20T14:38:19.000Z</time>
      </trkpt>
      <trkpt lat="45.27958" lon="5.84686">
        <ele>852.44</ele>
        <time>2021-11-20T14:38:24.000Z</time>
      </trkpt>
      <trkpt lat="45.27948" lon="5.84682">
        <ele>848.38</ele>
        <time>2021-11-20T14:38:32.000Z</time>
      </trkpt>
      <trkpt lat="45.27949" lon="5.84668">
        <ele>837.41</ele>
        <time>2021-11-20T14:41:13.000Z</time>
      </trkpt>
      <trkpt lat="45.2793" lon="5.84637">
        <ele>833.26</ele>
        <time>2021-11-20T14:41:18.000Z</time>
      </trkpt>
      <trkpt lat="45.27903" lon="5.84594">
        <ele>830.91</ele>
        <time>2021-11-20T14:41:23.000Z</time>
      </trkpt>
      <trkpt lat="45.27901" lon="5.84517">
        <ele>824.74</ele>
        <time>2021-11-20T14:41:28.000Z</time>
      </trkpt>
      <trkpt lat="45.27904" lon="5.84433">
        <ele>823.29</ele>
        <time>2021-11-20T14:41:33.000Z</time>
      </trkpt>
      <trkpt lat="45.27868" lon="5.84362">
        <ele>816.08</ele>
        <time>2021-11-20T14:41:38.000Z</time>
      </trkpt>
      <trkpt lat="45.27849" lon="5.84289">
        <ele>805.86</ele>
        <time>2021-11-20T14:41:43.000Z</time>
      </trkpt>
      <trkpt lat="45.27817" lon="5.84214">
        <ele>799.34</ele>
        <time>2021-11-20T14:41:48.000Z</time>
      </trkpt>
      <trkpt lat="45.27775" lon="5.84155">
        <ele>796.13</ele>
        <time>2021-11-20T14:41:53.000Z</time>
      </trkpt>
      <trkpt lat="45.27728" lon="5.84107">
        <ele>790.71</ele>
        <time>2021-11-20T14:41:58.000Z</time>
      </trkpt>
      <trkpt lat="45.27692" lon="5.84033">
        <ele>786.96</ele>
        <time>2021-11-20T14:42:03.000Z</time>
      </trkpt>
      <trkpt lat="45.27656" lon="5.83954">
        <ele>778.51</ele>
        <time>2021-11-20T14:42:08.000Z</time>
      </trkpt>
      <trkpt lat="45.27597" lon="5.8389">
        <ele>776.68</ele>
        <time>2021-11-20T14:42:13.000Z</time>
      </trkpt>
      <trkpt lat="45.27541" lon="5.83825">
        <ele>768.87</ele>
        <time>2021-11-20T14:42:18.000Z</time>
      </trkpt>
      <trkpt lat="45.27518" lon="5.83773">
        <ele>764.42</ele>
        <time>2021-11-20T14:42:23.000Z</time>
      </trkpt>
      <trkpt lat="45.27515" lon="5.83786">
        <ele>755.52</ele>
        <time>2021-11-20T14:42:37.000Z</time>
      </trkpt>
      <trkpt lat="45.27515" lon="5.83808">
        <ele>754.35</ele>
        <time>2021-11-20T14:42:42.000Z</time>
      </trkpt>
      <trkpt lat="45.27528" lon="5.83853">
        <ele>755.21</ele>
        <time>2021-11-20T14:42:47.000Z</time>
      </trkpt>
      <trkpt lat="45.27539" lon="5.83918">
        <ele>753.01</ele>
        <time>2021-11-20T14:42:52.000Z</time>
      </trkpt>
      <trkpt lat="45.27563" lon="5.83998">
        <ele>743.49</ele>
        <time>2021-11-20T14:42:57.000Z</time>
      </trkpt>
      <trkpt lat="45.27578" lon="5.84093">
        <ele>735.89</ele>
        <time>2021-11-20T14:43:02.000Z</time>
      </trkpt>
      <trkpt lat="45.27594" lon="5.84182">
        <ele>730.14</ele>
        <time>2021-11-20T14:43:07.000Z</time>
      </trkpt>
      <trkpt lat="45.27599" lon="5.84236">
        <ele>729.1</ele>
        <time>2021-11-20T14:43:12.000Z</time>
      </trkpt>
      <trkpt lat="45.27564" lon="5.84176">
        <ele>720.89</ele>
        <time>2021-11-20T14:43:17.000Z</time>
      </trkpt>
      <trkpt lat="45.27522" lon="5.84122">
        <ele>719.44</ele>
        <time>2021-11-20T14:43:22.000Z</time>
      </trkpt>
      <trkpt lat="45.275" lon="5.8404">
        <ele>709.8</ele>
        <time>2021-11-20T14:43:27.000Z</time>
      </trkpt>
      <trkpt lat="45.27472" lon="5.83955">
        <ele>706.6</ele>
        <time>2021-11-20T14:43:32.000Z</time>
      </trkpt>
      <trkpt lat="45.27414" lon="5.83924">
        <ele>702.18</ele>
        <time>2021-11-20T14:43:37.000Z</time>
      </trkpt>
      <trkpt lat="45.27405" lon="5.83856">
        <ele>696.53</ele>
        <time>2021-11-20T14:43:42.000Z</time>
      </trkpt>
      <trkpt lat="45.27422" lon="5.83785">
        <ele>686.89</ele>
        <time>2021-11-20T14:43:47.000Z</time>
      </trkpt>
      <trkpt lat="45.27444" lon="5.83713">
        <ele>682.17</ele>
        <time>2021-11-20T14:43:52.000Z</time>
      </trkpt>
      <trkpt lat="45.27455" lon="5.8364">
        <ele>679.09</ele>
        <time>2021-11-20T14:43:57.000Z</time>
      </trkpt>
      <trkpt lat="45.27443" lon="5.83566">
        <ele>676.68</ele>
        <time>2021-11-20T14:44:02.000Z</time>
      </trkpt>
      <trkpt lat="45.27415" lon="5.83556">
        <ele>676.1</ele>
        <time>2021-11-20T14:44:07.000Z</time>
      </trkpt>
      <trkpt lat="45.27424" lon="5.83558">
        <ele>677.31</ele>
        <time>2021-11-20T14:44:25.000Z</time>
      </trkpt>
      <trkpt lat="45.27415" lon="5.83565">
        <ele>669.97</ele>
        <time>2021-11-20T14:47:48.000Z</time>
      </trkpt>
      <trkpt lat="45.27413" lon="5.83579">
        <ele>669.04</ele>
        <time>2021-11-20T14:47:54.000Z</time>
      </trkpt>
      <trkpt lat="45.27419" lon="5.83599">
        <ele>663.63</ele>
        <time>2021-11-20T14:47:59.000Z</time>
      </trkpt>
      <trkpt lat="45.27433" lon="5.8364">
        <ele>658.68</ele>
        <time>2021-11-20T14:48:04.000Z</time>
      </trkpt>
      <trkpt lat="45.27415" lon="5.83699">
        <ele>654.37</ele>
        <time>2021-11-20T14:48:09.000Z</time>
      </trkpt>
      <trkpt lat="45.27382" lon="5.83758">
        <ele>652.62</ele>
        <time>2021-11-20T14:48:14.000Z</time>
      </trkpt>
      <trkpt lat="45.2735" lon="5.83825">
        <ele>649.76</ele>
        <time>2021-11-20T14:48:19.000Z</time>
      </trkpt>
      <trkpt lat="45.27332" lon="5.83906">
        <ele>646.85</ele>
        <time>2021-11-20T14:48:24.000Z</time>
      </trkpt>
      <trkpt lat="45.27323" lon="5.83999">
        <ele>644.98</ele>
        <time>2021-11-20T14:48:29.000Z</time>
      </trkpt>
      <trkpt lat="45.2733" lon="5.84088">
        <ele>639.27</ele>
        <time>2021-11-20T14:48:34.000Z</time>
      </trkpt>
      <trkpt lat="45.27297" lon="5.8417">
        <ele>632.57</ele>
        <time>2021-11-20T14:48:39.000Z</time>
      </trkpt>
      <trkpt lat="45.27318" lon="5.84264">
        <ele>628.85</ele>
        <time>2021-11-20T14:48:44.000Z</time>
      </trkpt>
      <trkpt lat="45.27356" lon="5.84356">
        <ele>625.95</ele>
        <time>2021-11-20T14:48:49.000Z</time>
      </trkpt>
      <trkpt lat="45.27405" lon="5.84429">
        <ele>622.04</ele>
        <time>2021-11-20T14:48:54.000Z</time>
      </trkpt>
      <trkpt lat="45.27467" lon="5.84489">
        <ele>617.7</ele>
        <time>2021-11-20T14:48:59.000Z</time>
      </trkpt>
      <trkpt lat="45.27524" lon="5.84561">
        <ele>610.97</ele>
        <time>2021-11-20T14:49:04.000Z</time>
      </trkpt>
      <trkpt lat="45.2758" lon="5.84624">
        <ele>601.26</ele>
        <time>2021-11-20T14:49:09.000Z</time>
      </trkpt>
      <trkpt lat="45.27632" lon="5.84691">
        <ele>595.16</ele>
        <time>2021-11-20T14:49:14.000Z</time>
      </trkpt>
      <trkpt lat="45.27646" lon="5.84717">
        <ele>588.85</ele>
        <time>2021-11-20T14:49:19.000Z</time>
      </trkpt>
      <trkpt lat="45.27634" lon="5.84716">
        <ele>581</ele>
        <time>2021-11-20T14:49:33.000Z</time>
      </trkpt>
      <trkpt lat="45.27618" lon="5.84702">
        <ele>579.26</ele>
        <time>2021-11-20T14:49:38.000Z</time>
      </trkpt>
      <trkpt lat="45.27592" lon="5.8468">
        <ele>574.59</ele>
        <time>2021-11-20T14:49:43.000Z</time>
      </trkpt>
      <trkpt lat="45.27552" lon="5.8465">
        <ele>567.21</ele>
        <time>2021-11-20T14:49:48.000Z</time>
      </trkpt>
      <trkpt lat="45.27495" lon="5.84635">
        <ele>563.29</ele>
        <time>2021-11-20T14:49:53.000Z</time>
      </trkpt>
      <trkpt lat="45.27436" lon="5.84589">
        <ele>559.77</ele>
        <time>2021-11-20T14:49:58.000Z</time>
      </trkpt>
      <trkpt lat="45.27382" lon="5.84532">
        <ele>557.67</ele>
        <time>2021-11-20T14:50:03.000Z</time>
      </trkpt>
      <trkpt lat="45.2732" lon="5.84484">
        <ele>553.25</ele>
        <time>2021-11-20T14:50:08.000Z</time>
      </trkpt>
      <trkpt lat="45.27262" lon="5.84424">
        <ele>548.22</ele>
        <time>2021-11-20T14:50:13.000Z</time>
      </trkpt>
      <trkpt lat="45.27215" lon="5.84344">
        <ele>541.62</ele>
        <time>2021-11-20T14:50:18.000Z</time>
      </trkpt>
      <trkpt lat="45.27172" lon="5.84261">
        <ele>534.72</ele>
        <time>2021-11-20T14:50:23.000Z</time>
      </trkpt>
      <trkpt lat="45.27143" lon="5.8417">
        <ele>526.05</ele>
        <time>2021-11-20T14:50:28.000Z</time>
      </trkpt>
      <trkpt lat="45.27096" lon="5.84122">
        <ele>519.77</ele>
        <time>2021-11-20T14:50:33.000Z</time>
      </trkpt>
      <trkpt lat="45.27037" lon="5.84117">
        <ele>514.43</ele>
        <time>2021-11-20T14:50:38.000Z</time>
      </trkpt>
      <trkpt lat="45.26975" lon="5.84112">
        <ele>513.27</ele>
        <time>2021-11-20T14:50:43.000Z</time>
      </trkpt>
      <trkpt lat="45.26902" lon="5.84116">
        <ele>509.62</ele>
        <time>2021-11-20T14:50:48.000Z</time>
      </trkpt>
      <trkpt lat="45.26834" lon="5.84117">
        <ele>506.01</ele>
        <time>2021-11-20T14:50:53.000Z</time>
      </trkpt>
      <trkpt lat="45.26766" lon="5.84111">
        <ele>499.19</ele>
        <time>2021-11-20T14:50:58.000Z</time>
      </trkpt>
      <trkpt lat="45.26699" lon="5.84097">
        <ele>489.94</ele>
        <time>2021-11-20T14:51:03.000Z</time>
      </trkpt>
      <trkpt lat="45.26634" lon="5.84082">
        <ele>483.01</ele>
        <time>2021-11-20T14:51:08.000Z</time>
      </trkpt>
      <trkpt lat="45.26581" lon="5.84073">
        <ele>475.22</ele>
        <time>2021-11-20T14:51:13.000Z</time>
      </trkpt>
      <trkpt lat="45.26562" lon="5.84073">
        <ele>469.79</ele>
        <time>2021-11-20T14:51:18.000Z</time>
      </trkpt>
      <trkpt lat="45.26556" lon="5.84083">
        <ele>467.51</ele>
        <time>2021-11-20T14:51:23.000Z</time>
      </trkpt>
      <trkpt lat="45.26549" lon="5.84095">
        <ele>465.27</ele>
        <time>2021-11-20T14:52:49.000Z</time>
      </trkpt>
      <trkpt lat="45.26537" lon="5.84112">
        <ele>459.61</ele>
        <time>2021-11-20T14:52:54.000Z</time>
      </trkpt>
      <trkpt lat="45.26513" lon="5.84143">
        <ele>454.43</ele>
        <time>2021-11-20T14:52:59.000Z</time>
      </trkpt>
      <trkpt lat="45.26488" lon="5.84175">
        <ele>450.24</ele>
        <time>2021-11-20T14:53:04.000Z</time>
      </trkpt>
      <trkpt lat="45.26466" lon="5.84205">
        <ele>446.63</ele>
        <time>2021-11-20T14:53:09.000Z</time>
      </trkpt>
      <trkpt lat="45.26449" lon="5.84235">
        <ele>444.5</ele>
        <time>2021-11-20T14:53:14.000Z</time>
      </trkpt>
      <trkpt lat="45.26431" lon="5.8426">
        <ele>441.12</ele>
        <time>2021-11-20T14:53:19.000Z</time>
      </trkpt>
      <trkpt lat="45.26421" lon="5.84275">
        <ele>440</ele>
        <time>2021-11-20T14:53:24.000Z</time>
      </trkpt>
      <trkpt lat="45.26411" lon="5.8429">
        <ele>440.14</ele>
        <time>2021-11-20T14:53:29.000Z</time>
      </trkpt>
      <trkpt lat="45.26399" lon="5.84306">
        <ele>439.4</ele>
        <time>2021-11-20T14:53:34.000Z</time>
      </trkpt>
      <trkpt lat="45.26387" lon="5.84332">
        <ele>435.93</ele>
        <time>2021-11-20T14:53:39.000Z</time>
      </trkpt>
      <trkpt lat="45.26362" lon="5.84371">
        <ele>432.41</ele>
        <time>2021-11-20T14:53:44.000Z</time>
      </trkpt>
      <trkpt lat="45.26343" lon="5.84405">
        <ele>429.54</ele>
        <time>2021-11-20T14:53:49.000Z</time>
      </trkpt>
      <trkpt lat="45.26328" lon="5.84427">
        <ele>427.07</ele>
        <time>2021-11-20T14:53:54.000Z</time>
      </trkpt>
      <trkpt lat="45.26304" lon="5.84465">
        <ele>420.13</ele>
        <time>2021-11-20T14:53:59.000Z</time>
      </trkpt>
      <trkpt lat="45.26278" lon="5.84498">
        <ele>418</ele>
        <time>2021-11-20T14:54:04.000Z</time>
      </trkpt>
      <trkpt lat="45.2625" lon="5.84535">
        <ele>411.17</ele>
        <time>2021-11-20T14:54:09.000Z</time>
      </trkpt>
      <trkpt lat="45.26231" lon="5.84557">
        <ele>407.53</ele>
        <time>2021-11-20T14:54:14.000Z</time>
      </trkpt>
      <trkpt lat="45.26206" lon="5.84584">
        <ele>403.9</ele>
        <time>2021-11-20T14:54:19.000Z</time>
      </trkpt>
      <trkpt lat="45.26182" lon="5.84624">
        <ele>403.68</ele>
        <time>2021-11-20T14:54:24.000Z</time>
      </trkpt>
      <trkpt lat="45.26152" lon="5.84665">
        <ele>401.16</ele>
        <time>2021-11-20T14:54:29.000Z</time>
      </trkpt>
      <trkpt lat="45.26128" lon="5.84693">
        <ele>400.19</ele>
        <time>2021-11-20T14:54:34.000Z</time>
      </trkpt>
      <trkpt lat="45.26104" lon="5.84737">
        <ele>397.72</ele>
        <time>2021-11-20T14:54:39.000Z</time>
      </trkpt>
      <trkpt lat="45.26083" lon="5.8477">
        <ele>393.73</ele>
        <time>2021-11-20T14:54:44.000Z</time>
      </trkpt>
      <trkpt lat="45.26055" lon="5.84802">
        <ele>388.89</ele>
        <time>2021-11-20T14:54:49.000Z</time>
      </trkpt>
      <trkpt lat="45.26025" lon="5.84833">
        <ele>382.06</ele>
        <time>2021-11-20T14:54:54.000Z</time>
      </trkpt>
      <trkpt lat="45.26001" lon="5.84858">
        <ele>377.2</ele>
        <time>2021-11-20T14:54:59.000Z</time>
      </trkpt>
      <trkpt lat="45.25976" lon="5.84891">
        <ele>373.34</ele>
        <time>2021-11-20T14:55:04.000Z</time>
      </trkpt>
      <trkpt lat="45.25945" lon="5.84921">
        <ele>372.38</ele>
        <time>2021-11-20T14:55:09.000Z</time>
      </trkpt>
      <trkpt lat="45.25925" lon="5.84948">
        <ele>371.36</ele>
        <time>2021-11-20T14:55:14.000Z</time>
      </trkpt>
      <trkpt lat="45.25898" lon="5.84984">
        <ele>368.59</ele>
        <time>2021-11-20T14:55:19.000Z</time>
      </trkpt>
      <trkpt lat="45.25884" lon="5.85012">
        <ele>360.95</ele>
        <time>2021-11-20T14:55:24.000Z</time>
      </trkpt>
      <trkpt lat="45.25865" lon="5.85038">
        <ele>357.5</ele>
        <time>2021-11-20T14:55:29.000Z</time>
      </trkpt>
      <trkpt lat="45.25847" lon="5.85063">
        <ele>353.33</ele>
        <time>2021-11-20T14:55:34.000Z</time>
      </trkpt>
      <trkpt lat="45.25822" lon="5.8508">
        <ele>351.71</ele>
        <time>2021-11-20T14:55:39.000Z</time>
      </trkpt>
      <trkpt lat="45.25809" lon="5.85084">
        <ele>349.7</ele>
        <time>2021-11-20T14:55:44.000Z</time>
      </trkpt>
      <trkpt lat="45.258" lon="5.85056">
        <ele>347.18</ele>
        <time>2021-11-20T14:55:49.000Z</time>
      </trkpt>
      <trkpt lat="45.25781" lon="5.85027">
        <ele>346.3</ele>
        <time>2021-11-20T14:55:54.000Z</time>
      </trkpt>
      <trkpt lat="45.25761" lon="5.84994">
        <ele>346.75</ele>
        <time>2021-11-20T14:55:59.000Z</time>
      </trkpt>
      <trkpt lat="45.25741" lon="5.84959">
        <ele>346.66</ele>
        <time>2021-11-20T14:56:04.000Z</time>
      </trkpt>
      <trkpt lat="45.25721" lon="5.8492">
        <ele>344.88</ele>
        <time>2021-11-20T14:56:09.000Z</time>
      </trkpt>
      <trkpt lat="45.25703" lon="5.8488">
        <ele>345.47</ele>
        <time>2021-11-20T14:56:14.000Z</time>
      </trkpt>
      <trkpt lat="45.25685" lon="5.84839">
        <ele>343.31</ele>
        <time>2021-11-20T14:56:19.000Z</time>
      </trkpt>
      <trkpt lat="45.25669" lon="5.84799">
        <ele>340.21</ele>
        <time>2021-11-20T14:56:24.000Z</time>
      </trkpt>
      <trkpt lat="45.25655" lon="5.8476">
        <ele>340.81</ele>
        <time>2021-11-20T14:56:29.000Z</time>
      </trkpt>
      <trkpt lat="45.25646" lon="5.84729">
        <ele>341.92</ele>
        <time>2021-11-20T14:56:34.000Z</time>
      </trkpt>
      <trkpt lat="45.25639" lon="5.84717">
        <ele>343.31</ele>
        <time>2021-11-20T14:56:39.000Z</time>
      </trkpt>
      <trkpt lat="45.25632" lon="5.84717">
        <ele>354.65</ele>
        <time>2021-11-20T14:57:50.000Z</time>
      </trkpt>
    </trkseg>
  </trk>
</gpx>